[[{"header":{"parameterUnit":"m.s-1","parameterCategory":1,"la1":30.6,"la2":29.2853,"lo1":-89.7004,"lo2":-87.6739,"dy":0.0162,"dx":0.0183,"nx":112,"ny":82,"refTime":"2024-06-19T06:00:00:Z","depth":0,"parameterNumber":2,"parameterNumberName":"U-component_of_WINDS"},"data":[0.0,0.0,0.0,0.0,0.0,0.0,0.0,0.0,0.0,0.0,0.0,0.0,0.0,0.0,0.0,0.0,0.0,0.0,0.0,0.0,0.0,0.0,0.0,0.0,0.0,0.0,0.0,0.0,0.0,0.0,0.0,0.0,0.0,0.0,0.0,0.0,0.0,0.0,0.0,0.0,0.0,0.0,0.0,0.0,0.0,0.0,0.0,0.0,0.0,0.0,0.0,0.0,0.0,0.0,0.0,0.0,0.0,0.0,0.0,0.0,0.0,0.0,0.0,0.0,0.0,0.0,0.0,0.0,0.0,0.0,0.0,0.0,0.0,0.0,0.0,0.0,0.0,0.0,0.0,0.0,0.0,0.0,0.0,0.0,0.0,0.0,0.0,0.0,0.0,0.0,0.0,0.1714,0.1911,0.1899,0.167,0.1644,0.169,0.181,0.0,0.0,0.0,0.0,0.0,0.0,0.0,0.0,0.0,0.0,0.0,0.0,0.0,0.0,0.0,0.0,0.0,0.0,0.0,0.0,0.0,0.0,0.0,0.0,0.0,0.0,0.0,0.0,0.0,0.0,0.0,0.0,0.0,0.0,0.0,0.0,0.0,0.0,0.0,0.0,0.0,0.0,0.0,0.0,0.0,0.0,0.0,0.0,0.0,0.0,0.0,0.0,0.0,0.0,0.0,0.0,0.0,0.0,0.0,0.0,0.0,0.0,0.0,0.0,0.0,0.0,0.0,0.0,0.0,0.0,0.0,0.0,0.0,0.0,0.0,0.0,0.0,0.0,0.0,0.0,0.0,0.0,0.0,0.0,0.0,0.0,0.0,0.0,0.0,0.0,0.0,0.0,0.0,0.0,0.0,0.0,0.0,0.0,0.0,0.0,0.0,0.0,0.0,0.0,0.0551,0.1311,0.146,0.1486,0.1453,0.1392,0.1515,0.1863,0.0,0.0,0.0,0.0,0.0,0.0,0.0,0.0,0.0,0.0,0.0,0.0,0.0,0.0,0.0,0.0,0.0,0.0,0.0,0.0,0.0,0.0,0.0,0.0,0.0,0.0,0.0,0.0,0.0,0.0,0.0,0.0,0.0,0.0,0.0,0.0,0.0,0.0,0.0,0.0,0.0,0.0,0.0,0.0,0.0,0.0,0.0,0.0,0.0,0.0,0.0,0.0,0.0,0.0,0.0,0.0,0.0,0.0,0.0,0.0,0.0,0.0,0.0,0.0,0.0,0.0,0.0,0.0,0.0,0.0,0.0,0.0,0.0,0.0,0.0,0.0,0.0,0.0,0.0,0.0,0.0,0.0,0.0,0.0,0.0,0.0,0.0,0.0,0.0,0.0,0.0,0.0,0.0,0.0,0.0,0.0,0.0,0.0,0.0,0.0,0.0,0.0,0.0,0.0753,0.0928,0.1259,0.1362,0.14,0.14,0.1337,0.1471,0.1873,0.1739,0.0,0.0,0.0,0.0,0.0,0.0,0.0,0.0,0.0,0.0,0.0,0.0,0.0,0.0,0.0,0.0,0.0,0.0,0.0,0.0,0.0,0.0,0.0,0.0,0.0,0.0,0.0,0.0,0.0,0.0,0.0,0.0,0.0,0.0,0.0,0.0,0.0,0.0,0.0,0.0,0.0,0.0,0.0,0.0,0.0,0.0,0.0,0.0,0.0,0.0,0.0,0.0,0.0,0.0,0.0,0.0,0.0,0.0,0.0,0.0,0.0,0.0,0.0,0.0,0.0,0.0,0.0,0.0,0.0,0.0,0.0,0.0,0.0,0.0,0.0,0.0,0.0,0.0,0.0,0.0,0.0,0.0,0.0,0.0,0.0,0.0,0.0,0.0,0.0,0.0,0.0,0.0,0.0,0.0,0.0,0.0,0.0,0.0,0.0,0.0,0.0,0.0,0.1104,0.1209,0.1209,0.132,0.14,0.14,0.1365,0.1497,0.1856,0.1796,0.0,0.0,0.0,0.0,0.0,0.0,0.0,0.0,0.0,0.0,0.0,0.0,0.0,0.0,0.0,0.0,0.0,0.0,0.0,0.0,0.0,0.0,0.0,0.0,0.0,0.0,0.0,0.0,0.0,0.0,0.0,0.0,0.0,0.0,0.0,0.0,0.0,0.0,0.0,0.0,0.0,0.0,0.0,0.0,0.0,0.0,0.0,0.0,0.0,0.0,0.0,0.0,0.0,0.0,0.0,0.0,0.0,0.0,0.0,0.0,0.0,0.0,0.0,0.0,0.0,0.0,0.0,0.0,0.0,0.0,0.0,0.0,0.0,0.0,0.0,0.0,0.0,0.0,0.0,0.0,0.0,0.0,0.0,0.0,0.0,0.0,0.0,0.0,0.0,0.0,0.0,0.0,0.0,0.0,0.0,0.0,0.0,0.0,0.0,0.0,0.0,0.0,0.0766,0.0927,0.0933,0.1214,0.14,0.14,0.1448,0.1578,0.1793,0.2028,0.0,0.0,0.0,0.0,0.0,0.0,0.0,0.0,0.0,0.0,0.0,0.0,0.0,0.0,0.0,0.0,0.0,0.0,0.0,0.0,0.0,0.0,0.0,0.0,0.0,0.0,0.0,0.0,0.0,0.0,0.0,0.0,0.0,0.0,0.0,0.0,0.0,0.0,0.0,0.0,0.0,0.0,0.0,0.0,0.0,0.0,0.0,0.0,0.0,0.0,0.0,0.0,0.0,0.0,0.0,0.0,0.0,0.0,0.0,0.0,0.0,0.0,0.0,0.0,0.0,0.0,0.0,0.0,0.0,0.0,0.0,0.0,0.0,0.0,0.0,0.0,0.0,0.0,0.0,0.0,0.0,0.0,0.0,0.0,0.0,0.0,0.0,0.0,0.0,0.0,0.0,0.0,0.0,0.0,0.0,0.0,0.0,0.0,0.0,0.0,0.0,0.0,0.0343,0.0432,0.0,0.0866,0.1051,0.0973,0.114,0.1373,0.1659,0.0,0.0,0.0,0.0,0.0,0.0,0.0,0.0,0.0,0.0,0.0,0.0,0.0,0.0,0.0,0.0,0.0,0.0,0.0,0.0,0.0,0.0,0.0,0.0,0.0,0.0,0.0,0.0,0.0,0.0,0.0,0.0,0.0,0.0,0.0,0.0,0.0,0.0,0.0,0.0,0.0,0.0,0.0,0.0,0.0,0.0,0.0,0.0,0.0,0.0,0.0,0.0,0.0,0.0,0.0,0.0,0.0,0.0,0.0,0.0,0.0,0.0,0.0,0.0,0.0,0.0,0.0,0.0,0.0,0.0,0.0,0.0,0.0,0.0,0.0,0.0,0.0,0.0,0.0,0.0,0.0,0.0,0.0,0.0,0.0,0.0,0.0,0.0,0.0,0.0,0.0,0.0,0.0,0.0,0.0,0.0,0.0,0.0,0.0,0.0,0.0,0.0,-0.0083,-0.0112,-0.0067,0.0,0.0513,0.0758,0.0791,0.1001,0.1266,0.1576,0.0,0.0,0.0,0.0,0.0,0.0,0.0,0.0,0.0,0.0,0.0,0.0,0.0,0.0,0.0,0.0,0.0,0.0,0.0,0.0,0.0,0.0,0.0,0.0,0.0,0.0,0.0,0.0,0.0,0.0,0.0,0.0,0.0,0.0,0.0,0.0,0.0,0.0,0.0,0.0,0.0,0.0,0.0,0.0,0.0,0.0,0.0,0.0,0.0,0.0,0.0,0.0,0.0,0.0,0.0,0.0,0.0,0.0,0.0,0.0,0.0,0.0,0.0,0.0,0.0,0.0,0.0,0.0,0.0,0.0,0.0,0.0,0.0,0.0,0.0,0.0,0.0,0.0,0.0,0.0,0.0,0.0,0.0,0.0,0.0,0.0,0.0,0.0,0.0,0.0,0.0,0.0,0.0,0.0,0.0,0.0,0.0,0.0,0.0,0.0,0.0,0.0,-0.0398,-0.0588,-0.0557,-0.0156,0.0185,0.0551,0.0953,0.1119,0.1311,0.0,0.0,0.0,0.0,0.0,0.0,0.0,0.0,0.0,0.0,0.0,0.0,0.0,0.0,0.0,0.0,0.0,0.0,0.0,0.0,0.0,0.0,0.0,0.0,0.0,0.0,0.0,0.0,0.0,0.0,0.0,0.0,0.0,0.0,0.0,0.0,0.0,0.0,0.0,0.0,0.0,0.0,0.0,0.0,0.0,0.0,0.0,0.0,0.0,0.0,0.0,0.0,0.0,0.0,0.0,0.0,0.0,0.0,0.0,0.0,0.0,0.0,0.0,0.0,0.0,0.0,0.0,0.0,0.0,0.0,0.0,0.0,0.0,0.0,0.0,0.0,0.0,0.0,0.0,0.0,0.0,0.0,0.0,0.0,0.0,0.0,0.0,0.0,0.0,0.0,0.0,0.0,0.0,0.0,0.0,0.0,0.0,0.0,0.0,0.0,0.0,0.0,0.0,-0.0987,-0.1142,-0.1201,-0.1036,-0.0422,-0.0011,0.0011,0.0568,0.0993,0.1164,0.0,0.0,0.0,0.0,0.0,0.0,0.0,0.0,0.0,0.0,0.0,0.0,0.0,0.0,0.0,0.0,0.0,0.0,0.0,0.0,0.0,0.0,0.0,0.0,0.0,0.0,0.0,0.0,0.0,0.0,0.0,0.0,0.0,0.0,0.0,0.0,0.0,0.0,0.0,0.0,0.0,0.0,0.0,0.0,0.0,0.0,0.0,0.0,0.0,0.0,0.0,0.0,0.0,0.0,0.0,0.0,0.0,0.0,0.0,0.0,0.0,0.0,0.0,0.0,0.0,0.0,0.0,0.0,0.0,0.0,0.0,0.0,0.0,0.0,0.0,0.0,0.0,0.0,0.0,0.0,0.0,0.0,0.0,0.0,0.0,0.0,0.0,0.0,0.0,0.0,0.0,0.0,0.0,0.0,0.0,0.0,0.0,0.0,0.0,0.0,0.0,0.0,-0.1253,-0.1483,-0.1594,-0.142,-0.0962,-0.0556,-0.0262,0.0174,0.0588,0.0934,0.0,0.0,0.0,0.0,0.0,0.0,0.0,0.0,0.0,0.0,0.0,0.0,0.0,0.0,0.0,0.0,0.0,0.0,0.0,0.0,0.0,0.0,0.0,0.0,0.0,0.0,0.0,0.0,0.0,0.0,0.0,0.0,0.0,0.0,0.0,0.0,0.0,0.0,0.0,0.0,0.0,0.0,0.0,0.0,0.0,0.0,0.0,0.0,0.0,0.0,0.0,0.0,0.0,0.0,0.0,0.0,0.0,0.0,0.0,0.0,0.0,0.0,0.0,0.0,0.0,0.0,0.0,0.0,0.0,0.0,0.0,0.0,0.0,0.0,0.0,0.0,0.0,0.0,0.0,0.0,0.0,0.0,0.0,0.0,0.0,0.0,0.0,0.0,0.0,0.0,0.0,0.0,0.0,0.0,0.0,0.0,0.0,0.0,0.0,0.0,0.0,0.0,-0.1353,-0.1712,-0.1838,-0.1511,-0.1433,-0.1059,-0.0202,-0.0111,0.0157,0.0768,0.0,0.0,0.0,0.0,0.0,0.0,0.0,0.0,0.0,0.0,0.0,0.0,0.0,0.0,0.0,0.0,0.0,0.0,0.0,0.0,0.0,0.0,0.0,0.0,0.0,0.0,0.0,0.0,0.0,0.0,0.0,0.0,0.0,0.0,0.0,0.0,0.0,0.0,0.0,0.0,0.0,0.0,0.0,0.0,0.0,0.0,0.0,0.0,0.0,0.0,0.0,0.0,0.0,0.0,0.0,0.0,0.0,0.0,0.0,0.0,-0.2175,0.0,0.0,0.0,0.0,0.0,0.0,0.0,0.0,0.0,0.0,0.0,0.0,0.0,0.0,0.0,0.0,0.0,0.0,0.0,0.0,0.0,0.0,0.0,0.0,0.0,0.0,0.0,0.0,0.0,0.0,0.0,0.0,0.0,0.0,0.0,0.0,0.0,0.0,0.0,0.0,0.0,-0.1949,-0.219,-0.2282,-0.2051,-0.1649,-0.1316,-0.1116,-0.0484,-0.0038,0.0106,0.0477,0.0,0.0,0.0,0.0,0.0,0.0,0.0,0.0,0.0,0.0,0.0,0.0,0.0,0.0,0.0,0.0,0.0,0.0,0.0,0.0,0.0,0.0,0.0,0.0,0.0,0.0,0.0,0.0,0.0,0.0,0.0,0.0,0.0,0.0,0.0,0.0,0.0,0.0,0.0,0.0,0.0,0.0,0.0,0.0,0.0,0.0,0.0,0.0,0.0,0.0,0.0,0.0,0.0,0.0,0.0,0.0,0.0,0.0,0.0,0.0,-0.2975,0.0,0.0,0.0,0.0,0.0,0.0,0.0,0.0,0.0,0.0,0.0,0.0,0.0,0.0,0.0,0.0,0.0,0.0,0.0,0.0,0.0,0.0,0.0,0.0,0.0,0.0,0.0,0.0,0.0,0.0,0.0,0.0,0.0,0.0,0.0,0.0,0.0,0.0,0.0,0.0,-0.1881,-0.2146,-0.232,-0.221,-0.198,-0.1746,-0.1512,-0.1138,-0.0728,-0.0275,0.0072,0.0,0.0,0.0,0.0,0.0,0.0,0.0,0.0,0.0,0.0,0.0,0.0,0.0,0.0,0.0,0.0,0.0,0.0,0.0,0.0,0.0,0.0,0.0,0.0,0.0,0.0,0.0,0.0,0.0,0.0,0.0,0.0,0.0,0.0,0.0,0.0,0.0,0.0,0.0,0.0,0.0,0.0,0.0,0.0,0.0,0.0,0.0,0.0,0.0,0.0,0.0,0.0,0.0,-0.4983,-0.5014,-0.4953,-0.5147,-0.5323,-0.5429,-0.4616,-0.4289,-0.4287,-0.384,0.0,0.0,0.0,0.0,0.0,0.0,0.0,0.0,0.0,0.0,0.0,0.0,0.0,0.0,0.0,0.0,0.0,0.0,0.0,0.0,0.0,0.0,0.0,0.0,-0.3051,-0.318,-0.289,0.0,0.0,0.0,0.0,0.0,0.0,0.0,0.0,0.0,0.0,0.0,-0.1897,-0.2217,-0.2403,-0.2266,-0.2304,-0.2181,-0.1791,-0.1712,-0.1343,-0.0573,-0.0227,0.0169,0.0,0.0,0.0,0.0,0.0,0.0,0.0,0.0,0.0,0.0,0.0,0.0,0.0,0.0,0.0,0.0,0.0,0.0,0.0,0.0,0.0,0.0,0.0,0.0,0.0,0.0,0.0,0.0,0.0,0.0,0.0,0.0,-0.3073,-0.3317,0.0,0.0,0.0,0.0,0.0,0.0,0.0,0.0,0.0,0.0,0.0,0.0,0.0,-0.5216,-0.5429,-0.5976,-0.6095,-0.5834,-0.6525,-0.6675,-0.6343,-0.6483,-0.669,-0.6906,-0.6666,0.0,-0.5197,-0.4791,0.0,0.0,0.0,0.0,0.0,0.0,0.0,0.0,0.0,0.0,0.0,0.0,0.0,0.0,0.0,0.0,0.0,0.0,0.0,0.0,0.0,0.0,-0.4664,-0.4514,-0.46,-0.4756,0.0,-0.3715,-0.2743,-0.3044,-0.2918,0.0,0.0,0.0,0.0,0.0,0.0,0.0,-0.3035,-0.3289,-0.324,-0.2537,-0.2471,-0.2448,-0.2382,-0.1655,-0.1137,-0.102,-0.0273,0.0298,0.0602,0.083,0.0,0.0,0.0,0.0,0.0,0.0,0.0,0.0,0.0,0.0,0.0,0.0,0.0,0.0,0.0,0.0,0.0,0.0,0.0,0.0,0.0,0.0,0.0,0.0,0.0,0.0,0.0,0.0,0.0,-0.287,-0.331,-0.3622,-0.362,-0.3592,0.0,0.0,0.0,0.0,0.0,0.0,0.0,0.0,0.0,-0.5955,-0.608,-0.6326,-0.6729,-0.7102,-0.7293,-0.7289,-0.765,-0.7734,-0.7552,-0.762,-0.7704,-0.7819,-0.7752,-0.7475,-0.6949,-0.5946,-0.5343,-0.5025,0.0,0.0,0.0,0.0,-0.4375,-0.4199,-0.4886,-0.467,-0.4175,-0.4716,0.0,0.0,0.0,0.0,0.0,0.0,0.0,0.0,0.0,0.0,-0.5105,-0.5081,-0.5121,-0.5188,-0.5285,-0.465,-0.4117,0.0,-0.4442,-0.4337,-0.3703,0.0,0.0,0.0,0.0,-0.3189,-0.29,-0.3123,-0.3156,-0.2768,-0.2726,-0.2721,-0.2721,-0.2073,-0.1548,-0.128,-0.0667,-0.0072,0.0463,0.0794,0.1049,0.0,0.0,0.0,0.0,0.0,0.0,0.0,0.0,0.0,0.0,0.0,0.0,0.0,0.0,0.0,0.0,0.0,0.0,0.0,0.0,0.0,0.0,0.0,0.0,0.0,0.0,0.0,0.0,-0.3426,-0.3817,-0.4076,-0.4322,-0.443,0.0,0.0,0.0,0.0,0.0,0.0,-0.6114,-0.6239,-0.6554,-0.7121,-0.7235,-0.7476,-0.7874,-0.8032,-0.819,-0.8357,-0.839,-0.8375,-0.8357,-0.839,-0.8404,-0.839,-0.836,-0.8357,-0.8259,-0.7007,-0.6316,-0.5986,-0.5554,-0.5261,-0.5117,-0.5423,-0.5353,-0.5202,-0.6026,-0.5797,-0.5249,-0.5785,-0.549,-0.4888,-0.4795,0.0,0.0,0.0,0.0,-0.5393,-0.5429,-0.5607,-0.5796,-0.5851,-0.5869,-0.5869,-0.5869,-0.5833,-0.5686,0.0,-0.5544,-0.5454,-0.4541,0.0,0.0,0.0,0.0,-0.3357,-0.3186,-0.3201,-0.3168,-0.2998,-0.2951,-0.2931,-0.2931,-0.2418,-0.1895,-0.1432,-0.0963,-0.0399,0.0273,0.0654,0.0891,0.0993,0.0,0.0,0.0,0.0,0.0,0.0,0.0,0.0,0.0,0.0,0.0,0.0,0.0,0.0,0.0,0.0,0.0,0.0,0.0,0.0,0.0,0.0,0.0,0.0,0.0,0.0,0.0,0.0,0.0,-0.521,-0.5675,0.0,0.0,0.0,0.0,-0.5646,-0.6235,-0.6893,-0.756,-0.7779,-0.8196,-0.885,-0.8686,-0.8609,-0.8633,-0.8645,-0.861,-0.8501,-0.8622,-0.8607,-0.8501,-0.8622,-0.8681,-0.8681,-0.8548,-0.8501,-0.844,-0.7791,-0.7509,-0.744,-0.691,-0.6573,-0.6429,-0.6643,-0.6705,-0.673,-0.7039,-0.6823,-0.6488,-0.7035,-0.667,-0.6017,-0.6009,-0.5786,0.0,0.0,-0.6348,-0.6772,-0.7094,-0.728,-0.7385,-0.7394,-0.7381,-0.7381,-0.7381,-0.7383,-0.7081,0.0,-0.5571,-0.5411,-0.5659,0.0,-0.5392,-0.5618,-0.5167,-0.478,-0.469,-0.42,-0.368,-0.3231,-0.3067,-0.2991,-0.2991,-0.2452,-0.1899,-0.1428,-0.0959,-0.048,0.0,0.0286,0.0429,0.0442,0.1142,0.0,0.0,0.0,0.0,0.0,0.0,0.0,0.0,0.0,0.0,0.0,0.0,0.0,0.0,0.0,0.0,0.0,0.0,0.0,0.0,0.0,0.0,0.0,0.0,0.0,0.0,0.0,0.0,-0.6032,-0.635,0.0,-0.635,-0.6695,-0.7002,-0.717,-0.7759,-0.8289,-0.8709,-0.8795,-0.8949,-0.918,-0.912,-0.9164,-0.9337,-0.9337,-0.9379,-0.946,-0.9522,-0.951,-0.946,-0.9429,-0.9414,-0.9398,-0.9212,-0.9134,-0.911,-0.8726,-0.8361,-0.8026,-0.7842,-0.772,-0.7677,-0.7734,-0.7764,-0.7773,-0.7883,-0.7801,-0.7686,-0.7886,-0.7742,-0.7514,-0.7514,-0.7431,-0.7362,-0.7478,-0.751,-0.7531,-0.7649,-0.7586,-0.7501,-0.7501,-0.7501,-0.7501,-0.7501,-0.7501,-0.7385,-0.7004,-0.6813,-0.6661,-0.6466,-0.6251,-0.604,-0.5832,-0.5546,-0.5198,-0.4784,-0.4554,-0.4207,-0.3647,-0.3382,-0.322,-0.3139,-0.2654,-0.2116,-0.1565,-0.1085,-0.0637,-0.0206,0.0232,0.04,0.0277,0.1043,0.1333,0.0,0.0,0.0,0.0,0.0,0.0,0.0,0.0,0.0,0.0,0.0,0.0,0.0,0.0,0.0,0.0,0.0,0.0,0.0,0.0,0.0,0.0,0.0,0.0,0.0,0.0,-0.6289,-0.6695,-0.7142,-0.7391,-0.7353,-0.7838,-0.8243,-0.843,-0.8854,-0.9313,-0.9808,-0.972,-0.9781,-1.01,-1.0207,-1.0323,-1.052,-1.076,-1.0823,-1.0718,-1.0718,-1.0572,-1.0294,-1.0208,-1.0175,-1.0159,-1.0028,-0.9978,-0.9966,-0.9786,-0.9491,-0.9126,-0.8634,-0.8434,-0.8434,-0.8434,-0.8434,-0.8434,-0.8434,-0.8404,-0.8372,-0.8372,-0.8331,-0.8301,-0.8301,-0.8331,-0.8357,-0.8316,-0.8245,-0.816,-0.8117,-0.8004,-0.7893,-0.7786,-0.7763,-0.7751,-0.7659,-0.7634,-0.7634,-0.7634,-0.7555,-0.7399,-0.7082,-0.6919,-0.6715,-0.6356,-0.5936,-0.5514,-0.5065,-0.4694,-0.4305,-0.391,-0.367,-0.3479,-0.3342,-0.2989,-0.2459,-0.1712,-0.1337,-0.0888,-0.0327,0.0087,0.0289,0.027,0.1015,0.1313,0.1136,0.0,0.0,0.0,0.0,0.0,0.0,0.0,0.0,0.0,0.0,0.0,0.0,0.0,0.0,0.0,0.0,0.0,0.0,0.0,0.0,0.0,0.0,0.0,-0.6173,-0.666,-0.7083,-0.7252,-0.8066,-0.8576,-0.8435,-0.8981,-0.9335,-0.9335,-0.9478,-0.9963,-1.0868,-1.0561,-1.0763,-1.1654,-1.1968,-1.2125,-1.2125,-1.2852,-1.2867,-1.2142,-1.2125,-1.1713,-1.0955,-1.0921,-1.0921,-1.0921,-1.0903,-1.0903,-1.0903,-1.0903,-1.0903,-1.0755,-0.9325,-0.8761,-0.8761,-0.8761,-0.8749,-0.8749,-0.8734,-0.8646,-0.854,-0.854,-0.8439,-0.8339,-0.8339,-0.8424,-0.8498,-0.8369,-0.8516,-0.8678,-0.8557,-0.8619,-0.8623,-0.8371,-0.8311,-0.8251,-0.7973,-0.7925,-0.7913,-0.7913,-0.7701,-0.7501,-0.7501,-0.7501,-0.7473,-0.7338,-0.649,0.0,-0.5645,-0.4712,-0.4049,-0.4007,-0.3891,-0.3744,-0.3617,-0.3423,-0.2886,-0.1869,-0.1689,-0.1214,-0.0344,-0.0179,0.005,0.0387,0.104,0.132,0.1208,0.0,0.0,0.0,0.0,0.0,0.0,0.0,0.0,0.0,0.0,0.0,0.0,0.0,0.0,0.0,0.0,0.0,0.0,0.0,0.0,0.0,0.0,-0.7412,-0.7279,-0.7609,-0.8092,-0.8661,-0.8949,-0.9093,-0.905,-0.9644,-1.0035,-1.0035,-1.0554,-1.0998,-1.1247,-1.1159,-1.1223,-1.1472,-1.2116,-1.2463,-1.2463,-1.3202,-1.3453,-1.3252,-1.2716,-1.2345,-1.2108,-1.1423,-1.1127,-1.111,-1.0955,-1.0903,-1.0903,-1.0903,-1.0903,-1.0865,-1.0443,-1.0187,-1.0011,-1.0011,-0.9853,-0.9615,-0.9366,-0.935,-0.9425,-0.9284,-0.9205,-0.9162,-0.9162,-0.9194,-0.9221,-0.9178,-0.9081,-0.8987,-0.8941,-0.8825,-0.8686,-0.8599,-0.8587,-0.8563,-0.8491,-0.8335,-0.8191,-0.8191,-0.7979,-0.7794,-0.7794,-0.7794,-0.7781,-0.7741,-0.7501,0.0,-0.6141,-0.5696,-0.5117,-0.4228,-0.3935,-0.379,-0.375,-0.3604,-0.3082,-0.2085,-0.189,-0.1426,-0.055,-0.0341,-0.0089,0.0249,0.0531,0.0896,0.0,0.0,0.0,0.0,0.0,0.0,0.0,0.0,0.0,0.0,0.0,0.0,0.0,0.0,0.0,0.0,0.0,0.0,0.0,0.0,0.0,0.0,-0.7999,-0.8521,-0.8607,-0.8644,-0.8861,-0.9409,-0.9607,-0.9754,-0.987,-1.0424,-1.0801,-1.0866,-1.1286,-1.1679,-1.2054,-1.194,-1.1975,-1.2234,-1.2868,-1.3185,-1.3098,-1.3927,-1.4099,-1.3602,-1.3271,-1.2889,-1.2452,-1.1921,-1.1655,-1.1655,-1.1549,-1.1496,-1.1496,-1.1496,-1.1496,0.0,0.0,0.0,0.0,0.0,-1.0543,-1.0353,-1.0155,-1.0081,-1.0075,-0.9961,-0.9826,-0.9708,-0.9708,-0.9708,-0.9708,-0.9708,-0.9601,-0.9466,-0.9466,-0.9355,-0.9223,-0.9127,-0.9117,-0.9093,-0.8969,-0.8835,-0.8724,-0.8724,-0.8473,0.0,-0.8275,-0.8068,-0.7808,-0.7528,-0.7528,-0.7125,-0.5896,-0.5719,-0.535,-0.4422,-0.4187,-0.4061,-0.3976,-0.3868,0.0,0.0,0.0,-0.1556,-0.06,-0.0315,0.0,0.0,0.0,0.0,0.0,0.0,0.0,0.0,0.2171,0.2216,0.0,0.0,0.0,0.0,0.0,0.0,0.0,0.0,0.0,0.0,0.0,0.0,0.0,0.0,0.0,0.0,-0.8886,-0.9577,-0.9967,-0.9764,-0.9639,-0.9824,-1.0181,-1.0519,-1.0794,-1.1235,-1.1597,-1.1768,-1.1827,-1.2167,-1.2952,0.0,0.0,0.0,0.0,-1.4093,-1.4078,-1.483,-1.474,-1.387,-1.3885,-1.3426,-1.2602,-1.2491,-1.2454,-1.2472,-1.239,-1.2377,-1.2382,-1.2318,-1.2305,-1.2215,-1.1339,-1.1011,-1.1011,-1.0951,-1.0938,-1.0955,-1.0921,0.0,0.0,-1.0551,-1.0327,-1.0066,-1.0066,-1.0024,-0.9999,-0.9999,-0.9999,-0.9999,-0.9999,-0.9999,-0.9952,-0.9785,-0.9737,-0.966,-0.9434,-0.9359,-0.9346,-0.9346,-0.9087,-0.8813,-0.8718,-0.8274,-0.7702,-0.7047,-0.7034,-0.6625,-0.5289,-0.5226,-0.5089,-0.456,0.0,0.0,-0.4247,-0.4148,-0.3824,-0.3189,-0.2456,-0.1627,-0.0661,-0.0281,-0.02,-0.0426,0.0238,0.0587,0.0598,0.0991,0.1356,0.1704,0.1902,0.1983,0.0,0.0,0.0,0.0,0.0,0.0,0.0,0.0,0.0,0.0,0.0,0.0,0.0,0.0,0.0,-0.9076,-0.9849,-1.0441,-1.0749,-1.1048,-1.1105,-1.0783,-1.0957,-1.1204,-1.1485,-1.1975,-1.2294,-1.2343,-1.2549,-1.2743,-1.2923,-1.2853,-1.3154,-1.3861,-1.4027,-1.4653,-1.5807,-1.5401,-1.5516,-1.6145,0.0,0.0,-1.4464,-1.3635,-1.3383,-1.3557,-1.295,-1.2798,-1.2903,-1.2472,-1.2305,-1.2265,-1.1864,-1.1713,-1.1669,-1.1274,-1.1213,-1.1252,-1.099,-1.0968,-1.1049,-1.0878,-1.0636,-1.0407,-1.0407,-1.0209,0.0,-0.9999,-0.9999,-0.9999,-0.9999,-0.9999,-0.9986,-0.9952,-0.9939,-0.9926,-0.9879,-0.9732,-0.9624,-0.9624,-0.9396,-0.8983,-0.8265,-0.8137,-0.7929,-0.7316,-0.7152,-0.6656,-0.5418,-0.5281,-0.5089,-0.456,-0.4353,-0.4305,-0.4423,-0.4181,-0.3847,-0.3456,-0.2384,-0.1663,-0.1395,-0.0905,-0.0649,-0.0646,-0.029,-0.0077,-0.0022,0.0272,0.0642,0.1083,0.1659,0.1862,0.0,0.0,0.0,0.0,0.0,0.0,0.0,0.0,0.0,0.0,0.0,-0.7443,-0.8215,0.0,-0.9433,-0.9958,-1.0672,-1.1198,-1.1316,-1.1648,-1.174,-1.1391,-1.1682,-1.1953,-1.2089,-1.2451,-1.2741,-1.2831,-1.2972,-1.309,-1.32,-1.3361,-1.3615,-1.3985,-1.4205,-1.4598,-1.5253,-1.499,-1.5028,-1.5339,-1.4672,-1.4378,-1.4423,-1.3934,-1.3758,-1.3876,-1.3507,-1.3419,-1.3463,-1.3081,-1.2823,-1.2674,-1.2432,-1.2261,-1.2064,-1.1828,-1.1793,-1.1828,-1.165,-1.1576,-1.1528,-1.1423,-1.1192,-1.094,-1.094,-1.0819,-1.0659,-1.0533,-1.0493,-1.0467,-1.034,-1.0301,-1.0301,-1.0301,-1.0301,-1.0301,-1.0301,-1.0228,-1.0139,-1.0139,-0.9903,-0.9566,-0.913,-0.8583,-0.7923,-0.7082,-0.7152,-0.6882,-0.5705,-0.5555,-0.5336,-0.4767,-0.4615,-0.456,-0.4601,-0.4287,-0.3924,-0.3524,-0.2871,-0.2249,-0.1678,-0.1393,-0.1095,-0.0753,-0.0614,-0.0453,-0.025,-0.0121,0.0173,0.0617,0.1187,0.1542,0.0,0.0,0.0,0.0,0.0,0.0,0.0,-0.6926,-0.7137,-0.7854,-0.8178,-0.854,-0.9266,-0.9938,-1.0483,-1.0779,-1.1403,-1.1861,-1.1861,-1.2071,-1.2182,-1.2013,-1.2333,-1.2579,-1.2636,-1.2861,-1.309,-1.3255,-1.3312,-1.3414,-1.3594,-1.392,-1.4172,-1.4309,-1.4422,-1.4555,-1.4676,-1.4555,-1.4428,-1.4329,-1.4329,-1.4293,-1.4192,-1.4152,-1.4152,-1.4192,-1.4081,-1.3985,-1.389,-1.366,-1.3463,-1.3242,-1.3089,-1.2804,-1.2496,-1.2336,-1.2305,-1.2305,-1.2305,-1.2163,-1.1993,-1.1993,-1.1757,-1.1499,-1.1499,-1.1459,-1.1352,-1.1142,-1.1076,-1.1025,-1.0747,-1.068,-1.0667,-1.06,-1.0602,-1.0602,-1.0602,-1.0602,-1.0602,-1.0602,-1.0383,-1.0135,-0.9975,-0.9172,-0.8152,-0.6922,-0.6985,-0.6801,-0.576,-0.5623,-0.5445,-0.4952,-0.4897,-0.4856,-0.4739,-0.4489,-0.4174,-0.3797,-0.3558,-0.3006,-0.2045,-0.1893,-0.1545,-0.0908,-0.0952,-0.079,-0.042,-0.0539,-0.0347,0.0116,0.0437,0.0938,-0.6462,-0.6607,-0.6793,-0.7439,-0.7502,-0.7687,0.0,-0.8844,-0.8923,-0.9363,-0.9484,-0.9698,-1.0316,-1.0598,-1.0937,-1.1485,-1.2044,-1.2406,-1.2406,-1.2788,-1.3063,-1.3031,-1.2867,-1.286,-1.3096,-1.3299,-1.3437,-1.3455,-1.3736,-1.3931,-1.3949,-1.4257,-1.4748,-1.5392,-1.4817,-1.5118,-1.6411,-1.5138,-1.4958,-1.5849,-1.5163,-1.4961,-1.5238,-1.5052,-1.5072,-1.5203,-1.4729,-1.4283,-1.3909,-1.387,-1.3842,-1.3814,-1.3794,-1.3573,-1.3209,-1.2528,-1.2305,-1.2305,-1.2305,-1.2278,-1.2251,-1.2251,-1.2069,-1.1841,-1.1841,-1.1637,-1.1389,-1.1366,-1.1366,-1.1299,-1.1022,-1.0958,-1.0891,-1.0653,-1.0602,-1.0602,-1.0602,-1.0602,-1.0602,-1.0602,-1.0559,-1.0296,-0.9515,-0.967,-0.9288,-0.7493,-0.6516,-0.5746,-0.5089,-0.4993,-0.4979,-0.4911,-0.4897,-0.4897,-0.4883,-0.4841,-0.4806,-0.4744,-0.4218,-0.3682,-0.3145,-0.2601,-0.198,-0.1261,-0.1472,-0.1351,-0.0833,-0.1376,-0.1274,-0.0596,-0.0778,-0.0164,-0.7481,-0.7732,-0.7966,-0.8487,-0.8712,-0.8936,-0.9391,-0.9471,-0.9604,-1.0131,-1.0166,-1.0334,-1.1109,-1.1377,-1.1631,0.0,-1.2586,-1.2909,-1.2909,-1.3186,-1.3292,-1.3103,-1.315,-1.3255,-1.335,-1.3455,-1.3579,-1.3788,-1.392,-1.4081,-1.4272,-1.4575,-1.4875,-1.5177,-1.5087,-1.5317,-1.5945,-1.5317,-1.5249,-1.5675,-1.5342,-1.525,-1.5402,-1.5298,-1.5319,-1.5402,-1.5153,-1.4941,-1.475,-1.4648,-1.4487,-1.4297,-1.4177,-1.394,-1.3612,-1.3001,-1.2638,-1.2452,-1.2342,-1.2305,-1.2305,-1.2305,-1.2225,-1.2118,-1.2118,-1.2037,-1.1886,-1.173,-1.169,-1.1583,-1.1116,-1.0995,-1.0932,-1.0667,-1.0602,-1.0602,-1.0602,-1.0602,-1.0602,-1.0602,-1.0253,-0.9837,-0.9477,-0.8865,-0.8146,-0.7365,-0.6985,-0.6507,-0.5755,-0.5358,-0.5124,-0.5124,-0.5069,-0.5014,-0.5014,-0.4938,-0.4897,-0.4897,-0.4663,-0.4272,-0.3726,-0.3211,-0.2632,-0.2008,-0.1836,-0.1645,-0.1426,-0.1682,-0.1637,-0.1329,-0.1174,-0.079,-0.8329,-0.8593,-0.8857,-0.9244,-0.9565,-0.9806,-0.9806,-0.9875,-1.0077,-1.0568,-1.0581,-1.0743,-1.1503,-1.1893,-1.2184,-1.2494,-1.2949,-1.332,-1.3406,-1.3477,-1.3448,-1.3287,-1.3404,-1.3536,-1.3623,-1.3642,-1.3788,-1.4111,-1.4213,-1.4355,-1.4609,-1.4876,-1.5031,-1.5031,-1.5265,-1.5402,-1.5402,-1.5402,-1.5402,-1.5402,-1.5402,-1.5402,-1.5402,-1.5402,-1.5402,-1.5402,-1.5402,-1.5402,-1.5382,-1.5236,-1.5043,-1.4807,-1.4664,-1.4425,-1.4126,-1.3685,-1.3217,-1.2797,-1.2648,-1.2538,-1.247,-1.247,-1.247,-1.2452,-1.2397,-1.2378,-1.2325,-1.2087,-1.2002,-1.1895,-1.1387,-1.1253,-1.1159,-1.0801,-1.0707,-1.0693,-1.0629,-1.0602,-1.0602,-1.0602,-1.0174,-0.9748,-0.954,-0.8582,-0.7688,-0.7269,-0.733,-0.7086,-0.6151,-0.5597,-0.5297,-0.5297,-0.5215,-0.5152,-0.5152,-0.5069,-0.5014,-0.5014,-0.5014,-0.4759,-0.4222,-0.3871,-0.3345,-0.2623,-0.2362,-0.2097,-0.1804,-0.1972,-0.2,-0.1902,-0.1665,-0.1539,-0.8961,-0.9086,-0.9257,-0.9593,-0.9886,-1.0085,-1.0085,-1.0343,-1.062,-1.076,-1.0793,-1.0937,-1.1416,-1.194,-1.2372,-1.2652,-1.3129,-1.3609,-1.3931,-1.3697,-1.3627,-1.3935,-1.3682,-1.3623,0.0,-1.3979,-1.4125,-1.4467,-1.4716,-1.4885,-1.4885,-1.5192,-1.5367,-1.5367,-1.5382,-1.5402,-1.5402,-1.5402,-1.5402,-1.5402,-1.5402,-1.5402,-1.5402,-1.5402,-1.5402,-1.5402,-1.5402,-1.5402,-1.5402,-1.5382,-1.5382,-1.5367,-1.5367,-1.5157,-1.4845,-1.4629,-1.405,-1.3374,-1.3374,-1.3145,-1.2874,-1.2874,-1.2874,-1.2838,-1.2654,-1.2599,-1.2544,-1.2347,-1.2291,-1.2225,-1.1935,-1.1855,-1.1721,-1.1132,-1.0998,-1.0918,-1.0653,-1.0602,-1.0602,-1.0602,-1.057,-1.0349,-0.962,-0.9464,-0.8924,-0.7429,-0.7203,-0.6821,-0.576,-0.543,-0.5297,-0.5297,-0.5297,-0.5297,-0.5297,-0.5283,-0.5283,-0.5283,-0.5283,-0.5105,-0.4691,-0.4664,-0.4104,-0.2905,-0.3188,-0.284,-0.1804,-0.238,-0.2505,-0.2198,-0.2505,-0.2649,-0.9465,-0.9951,-1.0489,-1.0601,-1.1,-1.1302,-1.1079,-1.1122,-1.1221,-1.1256,-1.1015,-1.0982,-1.1585,-1.1777,-1.1992,-1.2497,-1.2898,-1.3287,-1.3609,-1.3565,-1.3448,-1.3345,-1.3623,0.0,0.0,0.0,0.0,-1.4701,-1.4692,-1.4911,-1.5534,-1.5665,-1.5826,-1.6074,-1.6052,-1.6052,-1.6052,-1.6052,-1.595,-1.5724,-1.5519,-1.5402,-1.5402,-1.5402,-1.5402,-1.5402,-1.5402,-1.5402,-1.5402,-1.5402,-1.5402,-1.5402,-1.5402,-1.5344,-1.5221,-1.5159,-1.4822,-1.4304,-1.3624,-1.3337,-1.3192,-1.2963,-1.2893,-1.2893,-1.282,-1.2801,-1.2783,-1.2709,-1.2691,-1.264,-1.2368,-1.2303,-1.2193,-1.1757,-1.1661,-1.1595,-1.126,-1.1205,-1.1053,-1.0499,-1.0222,-0.9923,-0.9444,-0.8705,-0.78,-0.6701,-0.6302,-0.6007,-0.5643,-0.5416,-0.5297,-0.5297,-0.5297,-0.5297,-0.5297,-0.5297,-0.5297,-0.5297,-0.5297,-0.5118,-0.4719,-0.4394,-0.3924,-0.3244,-0.3035,-0.2761,-0.2394,-0.2607,-0.2649,-0.2537,-0.2649,-0.2705,-1.0208,-1.0757,-1.1303,-1.1399,-1.1706,-1.1916,-1.1591,-1.1491,-1.1451,-1.1275,-1.1002,-1.0923,-1.1287,-1.1397,-1.1665,-1.2377,-1.2684,-1.3093,-1.3883,-1.3711,-1.355,-1.3663,-1.3975,-1.4213,0.0,0.0,0.0,-1.5017,-1.5043,-1.5262,-1.5855,-1.6023,-1.6191,-1.6382,-1.6396,-1.6396,-1.6396,-1.6396,-1.6294,-1.6082,-1.5862,-1.568,-1.5578,-1.5578,-1.5519,-1.5402,-1.5402,-1.5402,-1.5402,-1.5402,-1.5402,-1.5402,-1.5402,-1.5402,-1.5402,-1.5402,-1.525,-1.4982,-1.4207,-1.3782,-1.3573,-1.3354,-1.3212,-1.3108,-1.3035,-1.3003,-1.2984,-1.2911,-1.2893,-1.2851,-1.2691,-1.2649,-1.2564,-1.2256,-1.2185,-1.2101,-1.1745,-1.1675,-1.1492,-1.0849,-1.0412,-0.9972,-0.9404,-0.8301,-0.7328,-0.6814,-0.6308,-0.5906,-0.5643,-0.5486,-0.5383,-0.5305,-0.5297,-0.5297,-0.5297,-0.5297,-0.5297,-0.5297,-0.5297,-0.5187,-0.4926,-0.4622,-0.4201,-0.3619,-0.3318,-0.3012,-0.2705,-0.2705,-0.2705,-0.2705,-0.2705,-0.2705,-1.1154,-1.1488,-1.173,-1.1978,-1.2048,-1.1961,-1.1621,-1.1537,-1.1373,-1.0907,-1.0794,-1.0739,-1.0609,-1.0843,-1.1385,-1.2319,-1.2494,-1.3064,-1.4652,-1.4102,-1.3887,0.0,0.0,0.0,0.0,0.0,0.0,-1.545,0.0,-1.5885,-1.5943,-1.6265,-1.6426,-1.644,-1.644,-1.644,-1.644,-1.6426,-1.6433,-1.6433,-1.6419,-1.6235,-1.5914,-1.5914,-1.5753,-1.5461,-1.5446,-1.5432,-1.5411,-1.5417,-1.5402,-1.5402,-1.5402,-1.5402,-1.5402,-1.5402,-1.5402,-1.5338,-1.5031,-1.454,-1.4052,-1.4023,-1.3818,-1.3499,-1.3302,-1.3247,-1.3196,-1.2998,-1.2929,-1.2929,-1.2929,-1.2929,-1.2859,-1.2614,-1.2526,-1.241,-1.2118,-1.2031,-1.1913,-1.1574,-1.1124,-1.046,-0.9428,-0.8317,-0.7587,-0.7674,-0.7142,-0.6467,-0.5729,-0.5606,-0.5519,-0.5343,-0.5305,-0.5297,-0.5297,-0.5297,-0.5297,-0.5297,-0.5297,-0.5283,-0.527,-0.527,-0.487,-0.4021,-0.3979,-0.3563,-0.2733,-0.2719,-0.2705,-0.2705,-0.2705,-0.2705,-1.1485,-1.2063,-1.2668,-1.2723,-1.2752,-1.2666,-1.2316,-1.1898,-1.1481,-1.1105,-1.0624,-1.0261,-1.0229,-1.0506,-1.1033,-1.1967,-1.2348,0.0,-1.4399,-1.4404,0.0,-1.4842,0.0,-1.5731,-1.5786,-1.6073,0.0,0.0,-1.5851,-1.5841,-1.6602,-1.6727,-1.6865,-1.7054,-1.7054,-1.7054,-1.7054,-1.6865,-1.6771,-1.6771,-1.6536,-1.6353,-1.6279,-1.6279,-1.6235,-1.6133,-1.5891,-1.5768,-1.5753,-1.5505,-1.5402,-1.5402,-1.5402,-1.5402,-1.5402,-1.5402,-1.5402,-1.5402,-1.5294,-1.5022,-1.4643,-1.4448,-1.4316,-1.4199,-1.3893,-1.3801,-1.3724,-1.3437,-1.3346,-1.3346,-1.3346,-1.3346,-1.3331,-1.3263,-1.289,-1.2607,-1.2723,-1.2389,-1.1995,-1.1774,-1.1109,-1.0171,-0.8916,-0.8533,-0.821,-0.7635,-0.7409,-0.6999,-0.6158,-0.5789,-0.5581,-0.5519,-0.5391,-0.5297,-0.5297,-0.5297,-0.5297,-0.5297,-0.5297,-0.516,-0.487,-0.4857,-0.4587,-0.4007,-0.3702,-0.3438,-0.3221,-0.2872,-0.2705,-0.2705,-0.2705,-0.2705,-1.2352,-1.3026,-1.3623,-1.3477,-1.3331,-1.305,-1.2419,-1.1942,-1.1371,-1.0609,-1.0258,-0.998,-0.9555,-0.9848,-1.0477,0.0,0.0,0.0,-1.4526,-1.4944,-1.5224,0.0,-1.6232,0.0,-1.6392,-1.6687,-1.6927,0.0,-1.6468,-1.6439,-1.7,-1.7325,-1.7568,-1.7728,-1.7879,-1.7862,-1.7652,-1.7497,-1.743,-1.7407,-1.7251,-1.7176,-1.7226,-1.7226,-1.7172,-1.702,0.0,-1.6437,-1.6364,-1.5838,-1.5622,-1.5607,-1.5461,-1.5402,-1.5402,-1.5402,-1.5402,-1.5402,-1.5402,-1.5285,-1.5061,-1.4759,-1.4609,-1.4462,-1.4291,-1.4111,-1.3964,-1.3774,-1.3609,-1.3492,-1.3492,-1.3492,-1.3492,-1.3492,-1.3236,-1.296,-1.2863,-1.2569,-1.2096,-1.1361,-1.0619,-0.9862,-0.9112,-0.8771,-0.8479,-0.808,-0.7847,-0.7483,-0.6848,-0.6496,-0.6262,-0.6174,-0.5857,-0.5648,-0.5648,-0.5442,-0.5297,-0.5297,-0.5297,-0.5201,-0.4981,-0.4967,-0.476,-0.4311,-0.409,-0.3868,-0.366,-0.3216,-0.3035,-0.3091,-0.2886,-0.2816,-1.3331,-1.3993,-1.4423,-1.4023,-1.3638,-1.3126,-1.2156,-1.1619,-1.099,-0.9835,-0.9775,-0.9672,-0.8909,-0.9219,-0.9979,-1.1108,0.0,-1.2886,-1.4965,-1.5606,-1.6074,-1.6673,-1.7127,-1.7232,-1.6887,-1.7115,-1.7317,-1.7317,-1.7317,-1.7302,-1.727,-1.7862,-1.8233,-1.8303,-1.8582,-1.8549,-1.8203,-1.8203,-1.8203,-1.8203,-1.8203,-1.8256,-1.8367,-1.8367,-1.823,-1.7988,-1.7486,-1.7272,-1.7198,-1.6465,-1.6122,-1.6048,-1.5767,-1.5592,-1.5486,-1.5486,-1.5444,-1.5402,-1.5402,-1.5402,-1.5359,-1.5061,-1.4803,-1.4609,-1.4565,-1.436,-1.4106,-1.4081,-1.3814,-1.3547,-1.3459,-1.3466,-1.3473,-1.3401,-1.3382,-1.3236,-1.2709,-1.2544,-1.2083,-1.0761,-1.0084,-0.9687,-0.9568,-0.8992,-0.8582,-0.8706,-0.8355,-0.7954,-0.7668,-0.7382,-0.7134,-0.6959,-0.65,-0.6217,-0.6217,-0.5775,-0.55,-0.5476,-0.5467,-0.5459,-0.5421,-0.5421,-0.5256,-0.4904,-0.4849,-0.4615,-0.4215,-0.3799,-0.366,-0.3766,-0.3384,-0.3226,-1.3389,-1.3993,-1.4345,-1.3744,-1.3126,-1.2511,-1.1825,-1.0784,-0.9892,-0.9645,-0.9248,-0.8982,-0.9097,-0.938,-1.0207,-1.204,0.0,0.0,0.0,0.0,-1.6381,0.0,0.0,0.0,0.0,0.0,0.0,0.0,0.0,-1.7788,-1.7624,-1.7723,-1.7957,-1.8287,-1.8367,-1.848,-1.8689,-1.8689,-1.8689,-1.8689,-1.8689,-1.868,-1.8709,-1.8709,-1.8677,-1.8637,-1.8245,0.0,-1.8065,-1.7711,-1.7374,-1.7048,-1.6985,-1.6567,-1.5984,-1.5984,-1.5735,-1.5402,-1.5402,-1.5402,-1.5402,-1.5323,-1.5285,-1.5198,-1.492,-1.4803,-1.4701,-1.4477,-1.4169,-1.3808,-1.3304,-1.333,-1.3364,-1.2856,-1.2764,-1.2728,-1.2618,-1.2212,-1.1587,-1.0671,-1.0426,-1.0125,-0.9383,-0.9015,-0.883,-0.8864,-0.8602,-0.8403,-0.8328,-0.7668,-0.7191,-0.7153,-0.6908,-0.677,-0.677,-0.6674,-0.656,-0.6379,-0.6369,-0.6272,-0.6055,-0.6046,-0.6005,-0.5937,-0.5614,-0.5396,-0.5314,-0.4869,-0.4649,-0.4677,-0.4763,-0.4518,-1.3888,-1.4476,-1.4765,-1.3945,-1.3258,-1.2511,-1.1562,-1.0447,-0.9513,-0.9204,-0.8909,-0.8645,-0.8443,-0.9061,-0.9914,-1.0881,-1.174,0.0,0.0,0.0,0.0,0.0,0.0,0.0,0.0,0.0,0.0,0.0,0.0,-1.849,-1.8176,-1.8534,-1.8831,-1.9018,-1.9222,-1.929,-1.9219,-1.9219,-1.9219,-1.9219,-1.9219,-1.9356,-1.9585,-1.9585,-1.9585,-1.9546,-1.9138,-1.8982,-1.8927,-1.8348,-1.7998,-1.7785,-1.7424,-1.7059,-1.6672,-1.6252,-1.6087,-1.6004,-1.5548,-1.5548,-1.5714,-1.5465,-1.5402,-1.5373,-1.5206,-1.5031,-1.4871,-1.473,-1.4355,-1.3918,-1.3634,-1.3536,-1.3346,-1.2746,-1.236,-1.2139,-1.2139,-1.1663,-1.1013,-1.0333,-1.0098,-0.9902,-0.9475,-0.9213,-0.9018,-0.8917,-0.8781,-0.8657,-0.8511,-0.8137,-0.7883,-0.7883,-0.7545,-0.7314,-0.7314,-0.7064,-0.6854,-0.6759,-0.6749,-0.6702,-0.6568,-0.6559,-0.6559,-0.6559,-0.6373,-0.6273,-0.6273,-0.5842,-0.5655,-0.5735,-0.5584,-0.538,-1.4287,-1.4889,-1.5066,-1.4121,-1.3389,-1.257,-1.1359,-1.0252,-0.9352,-0.8875,-0.8702,-0.8476,-0.7962,-0.8784,-0.9643,-0.9938,-1.1115,-1.2601,0.0,0.0,0.0,0.0,0.0,0.0,0.0,0.0,0.0,0.0,0.0,0.0,-1.8754,-1.9277,-1.9636,-1.97,-1.9995,-2.0025,-1.9752,-1.9752,-1.9752,-1.9752,-1.9752,-1.9934,-2.0292,-2.0292,-2.0292,-2.0269,-1.9928,-1.9752,-1.9689,-1.9023,-1.8681,-1.8568,-1.8008,-1.7658,-1.7354,-1.6724,-1.6567,-1.6587,-1.5922,-1.5859,-1.6046,-1.5673,-1.5486,-1.5402,-1.5402,-1.5206,-1.5002,-1.5002,-1.4613,-1.416,-1.4026,-1.3793,-1.3451,-1.276,-1.2046,-1.1496,-1.1496,-1.1031,-1.0481,-0.9992,-0.9776,-0.9676,-0.9676,-0.9453,-0.9245,-0.9079,-0.896,-0.883,-0.8614,-0.8533,-0.8501,-0.8501,-0.8127,-0.7871,-0.7871,-0.7485,-0.7229,-0.718,-0.717,-0.715,-0.7096,-0.7096,-0.7096,-0.7096,-0.7096,-0.7096,-0.7096,-0.6773,-0.6683,-0.6782,-0.6449,-0.6285,-1.4166,-1.4706,-1.471,-1.3784,-1.3053,-1.2283,-1.124,-0.9998,-0.9053,-0.9066,-0.8716,-0.8432,-0.843,-0.8965,-0.9819,-1.1042,-1.1672,-1.2858,-1.5308,0.0,0.0,0.0,0.0,0.0,0.0,0.0,0.0,0.0,0.0,0.0,-1.9166,-1.9217,-1.9384,-1.9683,-1.9734,-1.9905,-2.0246,-2.0246,-2.0246,-2.0246,-2.0246,-2.0269,-2.0292,-2.0292,-2.0292,-2.0292,-2.0246,-2.0246,0.0,-2.0167,-1.99,-1.9572,-1.9504,-1.8809,-1.7832,-1.7758,-1.7312,-1.6689,-1.6607,-1.6376,-1.6087,-1.6046,-1.5756,-1.5402,-1.5402,-1.5388,-1.5338,-1.5338,-1.509,-1.4692,-1.4134,-1.3976,-1.3726,-1.2815,-1.1719,-1.0881,-1.0881,-1.0406,-0.9954,-0.9898,-0.9887,-0.9865,-0.9865,-0.9701,-0.9558,-0.9536,-0.9176,-0.8884,-0.8863,-0.8646,-0.8501,-0.8501,-0.8463,-0.8436,-0.8436,-0.8382,-0.8276,-0.8098,-0.8087,-0.7976,-0.7732,-0.7721,-0.7721,-0.7721,-0.7721,-0.7721,-0.7721,-0.7677,-0.7662,-0.7687,-0.7889,-0.7628,-1.4192,-1.4602,-1.4527,-1.4001,-1.3332,-1.2534,-1.1527,-1.0228,-0.9256,-0.9279,-0.8806,-0.8458,-0.8694,-0.907,-0.966,-1.064,-1.1032,-1.1802,-1.3513,0.0,0.0,0.0,0.0,0.0,0.0,0.0,0.0,0.0,0.0,0.0,-1.9869,-1.9869,-1.9812,-1.97,-1.9927,-2.0138,-2.0292,-2.0292,-2.0292,-2.0292,-2.0292,-2.0292,-2.0292,-2.0292,-2.0292,-2.0292,-2.0292,-2.0292,0.0,-2.0292,-2.0206,-2.003,-1.9785,-1.9402,-1.889,-1.8182,-1.7892,-1.7726,-1.6974,-1.6771,-1.6808,-1.6273,-1.6149,-1.6072,-1.5548,-1.5402,-1.5402,-1.5402,-1.5148,-1.4839,-1.4597,-1.3818,-1.3068,-1.2922,-1.1954,-1.1006,-1.0823,-1.0612,-1.0331,-0.9973,-0.9898,-0.9898,-0.9898,-0.9841,-0.9733,-0.9622,-0.9439,-0.9256,-0.9105,-0.8889,-0.8738,-0.8738,-0.8603,-0.8501,-0.8501,-0.8501,-0.8474,-0.8393,-0.8382,-0.8323,-0.8221,-0.821,-0.821,-0.821,-0.821,-0.821,-0.821,-0.821,-0.821,-0.8237,-0.8323,-0.8223,-1.3899,-1.4298,-1.4281,-1.3988,-1.3392,-1.2632,-1.181,-1.0509,-0.9498,-0.9521,-0.9012,-0.8665,-0.8969,-0.93,-0.9754,-1.0391,-1.0708,-1.1319,-1.2552,-1.3271,0.0,0.0,0.0,0.0,0.0,0.0,0.0,0.0,0.0,0.0,-2.0292,-2.0292,-2.0172,-1.9893,-2.0155,-2.0292,-2.0292,-2.0292,-2.0292,-2.0292,-2.0292,-2.0292,-2.0292,-2.0292,-2.0292,-2.0292,-2.0292,-2.0292,0.0,-2.0292,-2.0292,-2.0275,-1.9978,-1.9785,-1.9609,-1.8763,-1.8494,-1.8462,-1.7569,-1.7319,-1.7298,-1.6685,-1.6582,-1.6587,-1.5963,-1.5693,-1.5569,-1.5444,-1.5221,-1.5017,-1.4929,-1.3789,-1.269,-1.2874,-1.1956,-1.0949,-1.0709,-1.0652,-1.0496,-0.9984,-0.9898,-0.9898,-0.9898,-0.9898,-0.9844,-0.9701,-0.9644,-0.9536,-0.9335,-0.9126,-0.8992,-0.8992,-0.877,-0.8592,-0.8501,-0.8501,-0.8501,-0.8501,-0.8501,-0.8501,-0.8501,-0.8501,-0.8501,-0.8501,-0.8501,-0.8501,-0.8501,-0.8501,-0.8501,-0.8501,-0.8501,-0.8501,-1.3153,-1.37,-1.3923,-1.3595,-1.2996,-1.2391,-1.1987,-1.0762,-0.9716,-0.9778,-0.9373,-0.9062,-0.9265,-0.9725,-1.0211,-1.0644,-1.1028,-1.1808,-1.3288,-1.3836,0.0,0.0,0.0,0.0,0.0,0.0,0.0,0.0,0.0,0.0,-2.0292,-2.0292,-2.0292,-2.0292,-2.0292,-2.0292,-2.0292,-2.0292,-2.0292,-2.0292,-2.0292,-2.0292,-2.0292,-2.0292,-2.0292,-2.0292,-2.0292,-2.0292,0.0,-2.0292,-2.0292,-2.0292,-2.0314,-2.0047,-1.97,-1.9683,-1.9226,-1.86,-1.8579,-1.8052,-1.74,-1.74,-1.7078,-1.6689,-1.6689,-1.6417,-1.6004,-1.5527,-1.5402,-1.5329,-1.4988,-1.394,-1.2911,-1.257,-1.1542,-1.0553,-1.0336,-1.0313,-1.0218,-0.9951,-0.9898,-0.9898,-0.9898,-0.9898,-0.9898,-0.9898,-0.9723,-0.9601,-0.959,-0.9357,-0.9206,-0.9206,-0.9018,-0.8781,-0.8522,-0.8501,-0.8501,-0.8501,-0.8501,-0.8501,-0.8501,-0.8501,-0.8501,-0.8501,-0.8501,-0.8501,-0.8501,-0.8501,-0.8501,-0.8501,-0.8501,-0.8501,-1.2438,-1.2841,-1.2954,-1.2788,-1.2595,-1.2337,-1.192,-1.0872,-0.9978,-1.0001,-0.9463,-0.9171,-0.9736,-0.9808,-1.0132,-1.1264,-1.1567,-1.1905,-1.2637,0.0,0.0,0.0,0.0,0.0,0.0,0.0,0.0,0.0,0.0,0.0,-2.0292,-2.0292,-2.0292,-2.0292,-2.0292,-2.0292,-2.0292,-2.0292,-2.0292,-2.0292,-2.0292,-2.0292,-2.0292,-2.0292,-2.0292,-2.0292,-2.0292,-2.0292,-2.0292,-2.0292,-2.0292,-2.0292,-2.0292,-2.0223,-2.0086,-1.9785,-1.9546,-1.9311,-1.9097,-1.8608,-1.7992,-1.7495,-1.72,-1.6881,-1.6065,-1.6149,-1.6417,-1.6004,-1.5652,-1.5388,-1.5265,-1.4601,-1.3779,-1.3026,-1.218,-1.1364,-1.0654,-1.051,-1.0435,-1.0218,-1.0175,-1.0121,-0.993,-0.9898,-0.9898,-0.9898,-0.9844,-0.9809,-0.9809,-0.9604,-0.9482,-0.9482,-0.9256,-0.9018,-0.8792,-0.8603,-0.8501,-0.8501,-0.8501,-0.8501,-0.8501,-0.8501,-0.8501,-0.8501,-0.8501,-0.8501,-0.8501,-0.8501,-0.8501,-0.8501,-0.8501,-0.8603,-1.169,-1.2106,-1.2265,-1.2373,-1.2189,-1.1914,-1.1665,-1.073,-0.991,-0.991,-0.9431,-0.9226,-0.9967,-0.9927,-1.0194,-1.1409,-1.1614,-1.1854,-1.2532,0.0,0.0,0.0,0.0,0.0,0.0,0.0,0.0,0.0,0.0,0.0,-2.0292,-2.0292,-2.0292,-2.0292,-2.0292,-2.0292,-2.0292,-2.0292,-2.0292,-2.0292,-2.0292,-2.0292,-2.0292,-2.0292,-2.0292,-2.0292,-2.0292,-2.0292,0.0,-2.0292,-2.0292,-2.0292,-2.0292,-2.0292,-2.0257,-2.0012,-1.9841,-1.9665,-1.9448,-1.9087,-1.8617,-1.8166,-1.7753,-1.7275,-1.6199,-1.6046,-1.617,-1.5901,-1.5631,-1.534,-1.509,-1.472,-1.4204,-1.335,-1.2645,-1.1947,-1.1293,-1.0931,-1.0671,-1.0466,-1.0358,-1.025,-1.0089,-0.9962,-0.9898,-0.9898,-0.9898,-0.9898,-0.9898,-0.9798,-0.9712,-0.9712,-0.9497,-0.931,-0.9187,-0.8915,-0.8758,-0.8758,-0.8758,-0.8758,-0.8758,-0.8758,-0.8732,-0.8646,-0.8646,-0.8603,-0.8501,-0.8603,-0.8646,-0.8646,-0.8732,-0.8851,0.0,-1.1409,-1.1759,-1.2107,-1.1709,-1.1212,-1.1212,-1.0389,0.0,-0.9596,-0.9305,-0.9277,-1.0001,-1.0137,-1.0405,-1.1229,-1.1396,-1.1808,-1.2909,-1.3834,0.0,0.0,0.0,0.0,0.0,0.0,0.0,0.0,0.0,0.0,-2.0292,-2.0292,-2.0292,-2.0292,-2.0292,-2.0292,-2.0292,-2.0292,-2.0292,-2.0292,-2.0292,-2.0292,-2.0292,-2.0292,-2.0292,0.0,-2.0292,-2.0292,-2.0292,-2.0292,-2.0292,-2.0292,-2.0292,-2.0292,-2.0292,-2.0292,-2.0047,-1.9734,-1.9734,-1.9534,-1.9226,-1.9166,-1.8557,-1.7711,-1.6935,-1.6123,-1.5444,-1.5444,-1.5423,-1.5257,-1.4573,-1.4391,-1.4223,-1.3498,-1.286,-1.232,-1.2022,-1.1464,-1.0939,-1.0682,-1.0487,-1.0336,-1.0326,-1.0091,-0.993,-0.993,-0.9908,-0.9898,-0.9898,-0.9898,-0.9898,-0.9898,-0.9733,-0.9622,-0.9622,-0.9357,-0.9206,-0.9206,-0.9206,-0.9206,-0.9206,-0.9206,-0.9109,-0.8927,-0.8927,-0.8803,-0.8544,-0.8803,-0.8927,-0.8927,-0.9109,-0.9217,-0.9846,0.0,-1.0462,-1.0297,-1.0314,-1.0388,0.0,-0.9972,-0.9596,-0.9596,-0.9527,-0.9681,-1.0422,-1.0559,-1.0913,-1.1983,-1.2394,-1.2892,-1.3716,0.0,0.0,0.0,0.0,0.0,0.0,0.0,0.0,0.0,0.0,-2.0292,-2.0292,-2.0292,-2.0292,-2.0292,-2.0292,-2.0292,-2.0292,-2.0292,-2.0292,-2.0292,-2.0292,-2.0292,-2.0292,-2.0292,-2.0292,-2.0292,-2.0292,-2.0292,-2.0292,-2.0292,-2.0292,-2.0292,-2.0292,-2.0292,-2.0292,-2.0292,-2.024,-2.0155,-2.0155,-1.9878,-1.9406,-1.874,-1.796,-1.7206,-1.6757,-1.6306,-1.5942,-1.5942,-1.5673,-1.5257,-1.4573,-1.4391,-1.4097,-1.2912,-1.2519,-1.2217,-1.1594,-1.1348,-1.1176,-1.095,-1.0864,-1.0767,-1.0564,-1.0338,-1.0207,-1.0207,-1.0027,-0.9898,-0.9898,-0.9898,-0.9898,-0.9898,-0.9855,-0.9822,-0.9822,-0.9443,-0.9206,-0.9206,-0.9206,-0.9206,-0.9206,-0.9206,-0.9174,-0.912,-0.912,-0.9098,-0.9044,-0.9098,-0.912,-0.912,-0.9174,-0.9303,-0.9271,-0.9705,-1.0103,-1.0098,-1.0086,-1.0154,-1.0325,-0.9972,-0.9647,-0.9801,-0.9824,-1.0012,-1.0593,-1.0844,-1.1233,-1.199,-1.2617,-1.3492,0.0,0.0,0.0,0.0,0.0,0.0,0.0,0.0,0.0,0.0,0.0,-2.0292,-2.0292,-2.0292,-2.0292,-2.0292,-2.0292,-2.0292,-2.0292,-2.0292,-2.0292,-2.0292,-2.0292,-2.0292,-2.0292,-2.0292,-2.0292,-2.0292,-2.0292,-2.0292,-2.0292,-2.0292,-2.0292,-2.0292,-2.0292,-2.0292,-2.0292,-2.0292,-2.0292,-2.0292,-2.0292,-2.0133,-1.9792,-1.8932,-1.8376,-1.7872,-1.707,-1.6603,-1.6249,-1.5884,-1.559,-1.5257,-1.4573,-1.4391,-1.4139,-1.3103,-1.2625,-1.2283,-1.1876,-1.1543,-1.1273,-1.1155,-1.1058,-1.0939,-1.0821,-1.0585,-1.0435,-1.0435,-1.025,-1.007,-1.007,-0.9973,-0.9898,-0.9898,-0.9898,-0.9898,-0.9898,-0.9661,-0.9511,-0.9511,-0.9511,-0.9511,-0.9511,-0.9511,-0.9486,-0.9378,-0.926,-0.9206,-0.9206,-0.9324,-0.9378,-0.9378,-0.9486,-0.9604,-0.9072,-0.9585,-1.0172,-1.0456,-1.0308,-1.0189,-1.0542,-1.0115,-0.9756,-1.0035,-1.0154,-1.0308,-1.0725,-1.1148,0.0,-1.1926,-1.2843,0.0,0.0,0.0,0.0,0.0,0.0,0.0,0.0,0.0,0.0,0.0,0.0,-2.0292,-2.0292,-2.0292,-2.0292,-2.0292,-2.0292,-2.0292,-2.0292,-2.0292,-2.0292,-2.0292,-2.0292,-2.0292,-2.0292,-2.0292,-2.0292,-2.0292,0.0,0.0,-2.0292,-2.0292,-2.0292,-2.0292,-2.0292,-2.0292,-2.0292,-2.0292,-2.0292,-2.0292,-2.0292,-2.0292,-2.0195,-1.9508,-1.9234,-1.8951,-1.7777,-1.7138,-1.6679,-1.583,-1.5488,-1.5257,-1.4573,-1.4307,-1.4089,-1.3413,-1.2732,-1.224,-1.224,-1.1725,-1.1305,-1.1305,-1.1155,-1.1036,-1.1036,-1.0822,-1.0671,-1.0671,-1.0478,-1.0347,-1.0347,-1.0145,-0.9994,-0.9962,-0.9962,-0.9941,-0.9908,-0.9898,-0.9898,-0.9898,-0.9898,-0.9898,-0.9898,-0.9898,-0.983,-0.9655,-0.9421,-0.9314,-0.9314,-0.9529,-0.9644,-0.9655,-0.983,-0.9898,-0.9408,-0.979,-1.0052,-0.9835,-0.9944,-1.012,-1.0189,-1.0103,-1.0035,-1.0086,-1.0359,-1.0742,-1.1126,-1.176,-1.236,0.0,0.0,0.0,0.0,0.0,0.0,0.0,0.0,0.0,0.0,0.0,0.0,0.0,0.0,-2.0292,-2.0292,-2.0292,-2.0292,-2.0292,-2.0292,-2.0292,-2.0292,-2.0292,-2.0292,-2.0292,-2.0292,-2.0292,-2.0292,-2.0292,-2.0292,-2.0292,0.0,-2.0292,-2.0292,-2.0292,-2.0292,-2.0292,-2.0292,-2.0292,-2.0292,-2.0292,-2.0292,-2.0292,-2.0292,-2.0292,-2.0292,-2.0155,-1.9844,-1.942,-1.8939,-1.8437,-1.7803,-1.6731,-1.5923,-1.5257,-1.4573,-1.3984,-1.3392,-1.2711,-1.2005,-1.1478,-1.1478,-1.137,-1.1305,-1.1305,-1.1273,-1.1252,-1.1252,-1.1069,-1.0929,-1.0929,-1.0714,-1.0544,-1.0544,-1.0532,-1.0435,-1.0261,-1.0239,-1.0153,-0.9919,-0.9898,-0.9898,-0.9898,-0.9898,-0.9898,-0.9898,-0.9898,-0.9887,-0.9855,-0.9812,-0.979,-0.979,-0.9833,-0.9855,-0.9855,-0.9887,-0.9898,-0.9237,-0.9687,-1.0069,-0.991,-1.0314,-1.0793,-1.0986,-1.1025,-1.1076,-1.1306,-1.1477,-1.1678,-1.1863,0.0,-1.3699,0.0,0.0,0.0,0.0,0.0,0.0,0.0,0.0,0.0,0.0,0.0,0.0,0.0,0.0,0.0,-2.0292,-2.0292,-2.0292,-2.0292,-2.0292,-2.0292,-2.0292,-2.0292,-2.0292,-2.0292,-2.0292,-2.0292,-2.0292,-2.0292,-2.0292,-2.0292,0.0,-2.0292,-2.0292,-2.0292,-2.0292,-2.0292,-2.0292,-2.0292,-2.0292,-2.0292,-2.0292,-2.0292,-2.0292,-2.0292,-2.0292,-2.0292,-2.0155,-1.9917,-1.95,-1.9071,-1.8552,-1.7752,-1.655,-1.5417,-1.5034,-1.4174,-1.3328,-1.3009,-1.239,-1.179,-1.1392,-1.1305,-1.1305,-1.1305,-1.1305,-1.1305,-1.1305,-1.1219,-1.1155,-1.1155,-1.0962,-1.0821,-1.0821,-1.0693,-1.0554,-1.0467,-1.0456,-1.0413,-1.0295,-1.0284,-1.0177,-0.9919,-0.9898,-0.9898,-0.9898,-0.9898,-0.9898,-0.9898,-0.9898,-0.9898,-0.9898,-0.9898,-0.9898,-0.9898,-0.9898,-0.9898,-0.9107,-0.9619,-1.012,-1.0223,-1.0759,-1.1434,-1.1973,-1.2011,-1.2131,-1.2792,-1.286,-1.2772,0.0,-1.3528,0.0,0.0,0.0,0.0,0.0,0.0,0.0,0.0,0.0,0.0,0.0,0.0,0.0,0.0,0.0,0.0,-2.0292,-2.0292,-2.0292,-2.0292,-2.0292,-2.0292,-2.0292,-2.0292,-2.0292,-2.0292,-2.0292,-2.0292,-2.0292,-2.0292,-2.0292,-2.0292,-2.0292,-2.0292,-2.0292,-2.0292,-2.0292,-2.0292,-2.0292,-2.0292,-2.0292,-2.0292,-2.0292,-2.0292,-2.0292,-2.0292,-2.0292,-2.0292,-2.0292,-2.0224,-1.9866,-1.9568,-1.9245,-1.8671,-1.7164,-1.5706,-1.5501,-1.4353,-1.3212,-1.317,-1.2647,-1.1983,-1.1413,-1.1305,-1.1305,-1.1305,-1.1305,-1.1305,-1.1305,-1.1305,-1.1305,-1.1305,-1.1166,-1.1069,-1.1069,-1.0897,-1.0737,-1.0704,-1.0693,-1.0671,-1.0597,-1.0597,-1.0456,-1.0091,-1.0016,-0.9962,-0.9908,-0.9898,-0.9898,-0.9898,-0.9898,-0.9898,-0.9898,-0.9898,-0.9898,-0.9898,-0.9954,-0.9935,-0.9459,-0.9824,-1.0189,-1.0547,-1.0976,-1.1584,-1.2683,-1.262,-1.2757,-1.4229,-1.4246,-1.3853,-1.3494,-1.4093,0.0,0.0,0.0,0.0,0.0,0.0,0.0,0.0,0.0,0.0,0.0,0.0,0.0,0.0,0.0,0.0,-2.0292,-2.0292,-2.0292,-2.0292,-2.0292,-2.0292,-2.0292,-2.0292,-2.0292,-2.0292,-2.0292,-2.0292,-2.0292,-2.0292,-2.0292,-2.0292,-2.0292,-2.0292,-2.0292,-2.0292,-2.0292,-2.0292,-2.0292,-2.0292,-2.0292,-2.0292,-2.0292,-2.0292,-2.0292,-2.0292,-2.0292,-2.0292,-2.0292,-2.0292,-2.0269,-2.0229,-2.0053,-1.9268,-1.7657,-1.6077,-1.5691,-1.4195,-1.2695,-1.2523,-1.1897,-1.1348,-1.1305,-1.1305,-1.1305,-1.1305,-1.1305,-1.1305,-1.1305,-1.1305,-1.1305,-1.1305,-1.1295,-1.1284,-1.1284,-1.1262,-1.1187,-1.0982,-1.0982,-1.0875,-1.0608,-1.0597,-1.0576,-1.0544,-1.036,-1.0164,-0.9908,-0.9898,-0.9898,-0.9898,-0.9898,-0.9898,-0.9898,-0.9898,-0.9898,-0.9898,-1.0086,-1.0086,-0.9185,-0.9841,-1.0456,-1.0342,-1.1152,-1.2223,-1.3114,-1.3594,-1.4194,-1.5497,-1.5446,-1.5172,-1.524,0.0,0.0,0.0,0.0,0.0,0.0,0.0,0.0,0.0,0.0,0.0,0.0,0.0,0.0,0.0,0.0,-2.0292,-2.0292,-2.0292,-2.0292,-2.0292,-2.0292,-2.0292,-2.0292,-2.0292,-2.0292,-2.0292,-2.0292,-2.0292,-2.0292,-2.0292,-2.0292,-2.0292,-2.0292,-2.0292,-2.0292,-2.0292,-2.0292,-2.0292,-2.0292,-2.0292,-2.0292,-2.0292,-2.0292,-2.0292,-2.0292,-2.0292,-2.0292,-2.0292,-2.0292,-2.0178,-1.9569,-1.9797,-2.0099,-1.9177,-1.7796,-1.651,-1.5999,-1.4408,-1.2923,-1.2852,-1.2479,-1.2058,-1.163,-1.1413,-1.1305,-1.1305,-1.1305,-1.1305,-1.1305,-1.1305,-1.1305,-1.1305,-1.1305,-1.1305,-1.1305,-1.1305,-1.1273,-1.1198,-1.1187,-1.1155,-1.1048,-1.1037,-1.0973,-1.0864,-1.0618,-1.0446,-1.0349,-1.0349,-1.0349,-1.0349,-1.0345,-1.0412,-1.0585,-1.0529,-1.0617,-1.0782,-1.0861,-1.0841,-0.9192,-0.9927,-1.0661,-1.0519,-1.1541,-1.2826,-1.3819,-1.447,-1.5292,-1.6785,-1.668,-1.6507,-1.7124,0.0,0.0,0.0,0.0,0.0,0.0,0.0,0.0,0.0,0.0,0.0,0.0,0.0,0.0,0.0,-2.0121,-2.0172,-2.0292,-2.0292,-2.0292,-2.0292,-2.0292,-2.0292,-2.0292,-2.0292,-2.0292,-2.0292,-2.0292,-2.0292,-2.0292,-2.0292,-2.0292,-2.0292,-2.0292,-2.0292,-2.0292,-2.0292,-2.0292,-2.0292,-2.0292,-2.0292,-2.0292,-2.0292,-2.0292,-2.0292,-2.0292,-2.0292,-2.0292,-2.0292,-2.0292,-2.0178,-1.9477,-1.9546,-1.9683,-1.9003,-1.7654,-1.6341,-1.5915,-1.4409,-1.2974,-1.2894,-1.2688,-1.2372,-1.1924,-1.1628,-1.1434,-1.1434,-1.1359,-1.1305,-1.1305,-1.1305,-1.1305,-1.1305,-1.1305,-1.1305,-1.1305,-1.1305,-1.1305,-1.1305,-1.1305,-1.1305,-1.1305,-1.1305,-1.1241,-1.1112,-1.0929,-1.0789,-1.0719,-1.0739,-1.0759,-1.082,-1.0815,-1.0914,-1.1082,-1.1053,-1.1112,-1.1304,-1.1364,-1.1364,-0.9596,-1.0143,-1.0798,-1.1212,-1.2168,-1.3389,-1.4864,-1.5223,-1.5874,-1.8154,-1.8017,-1.7846,-1.8977,-1.8274,0.0,0.0,0.0,0.0,0.0,0.0,0.0,0.0,0.0,0.0,0.0,0.0,0.0,-1.9687,-1.97,-1.9876,-2.0297,-2.0314,-2.0292,-2.0292,-2.0292,-2.0292,-2.0292,-2.0292,-2.0292,-2.0292,-2.0292,-2.0292,-2.0292,-2.0292,-2.0292,-2.0292,-2.0292,-2.0292,-2.0292,-2.0292,-2.0292,-2.0292,-2.0292,-2.0292,-2.0292,-2.0292,-2.0292,-2.0292,-2.0292,-2.0292,-2.0292,-2.0292,-2.0292,-2.0292,-2.0292,-1.9592,-1.8796,-1.8796,-1.7142,-1.5399,-1.5399,-1.411,-1.2736,-1.2481,-1.2254,-1.2117,-1.2117,-1.1888,-1.1704,-1.1704,-1.1488,-1.1305,-1.1305,-1.1305,-1.1305,-1.1305,-1.1305,-1.1305,-1.1305,-1.1305,-1.1305,-1.1305,-1.1305,-1.1305,-1.1305,-1.1305,-1.1305,-1.1305,-1.1305,-1.1207,-1.1015,-1.1013,-1.1114,-1.1295,-1.1315,-1.1304,-1.1315,-1.1304,-1.1304,-1.1315,-1.1525,-1.1485,-0.9664,-1.0343,-1.128,-1.1914,-1.272,-1.3887,-1.5924,-1.661,-1.7229,-1.872,-1.9042,-1.8986,-1.8802,-1.8737,0.0,-1.9286,0.0,0.0,0.0,0.0,0.0,0.0,0.0,0.0,0.0,0.0,-1.9365,-1.9747,-2.0027,-2.0175,-2.0164,-2.0564,-2.0637,-2.0314,-2.0473,-2.0496,-2.0292,-2.0292,-2.0292,-2.0292,-2.0292,-2.0292,-2.0292,-2.0292,-2.0292,-2.0292,-2.0292,-2.0292,-2.0292,-2.0292,-2.0292,-2.0292,-2.0292,-2.0292,-2.0292,-2.0292,-2.0292,-2.0292,-2.0292,-2.0292,-2.0292,-2.0292,-2.0292,-2.0178,-1.9477,-1.9049,-1.8657,-1.7948,-1.6758,-1.5673,-1.5673,-1.4637,-1.3515,-1.3233,-1.2874,-1.2587,-1.2587,-1.2274,-1.192,-1.1736,-1.1639,-1.152,-1.1337,-1.1305,-1.1305,-1.1305,-1.1305,-1.1305,-1.1305,-1.1305,-1.1305,-1.1305,-1.1305,-1.1305,-1.1305,-1.1305,-1.1305,-1.1305,-1.1305,-1.1348,-1.1483,-1.1483,-1.1588,-1.1799,-1.1783,-1.1896,-1.2071,-1.204,-1.2102,-1.2281,-1.2344,-1.2344,-1.0405,-1.0981,-1.1747,-1.2809,-1.3631,-1.4813,-1.7261,-1.81,-1.8614,-1.9474,-1.967,-1.9641,-1.9484,-1.9299,0.0,0.0,0.0,0.0,0.0,0.0,0.0,0.0,0.0,0.0,0.0,-1.949,-1.9607,-1.9907,-2.0131,-2.0237,-2.0172,-2.0515,-2.0591,-2.0314,-2.045,-2.045,-2.0292,-2.0292,-2.0292,-2.0292,-2.0292,-2.0292,-2.0292,-2.0292,-2.0292,-2.0292,-2.0292,-2.0292,-2.0292,-2.0292,-2.0292,-2.0292,-2.0292,-2.0292,-2.0292,-2.0292,-2.0292,-2.0292,-2.0292,-2.0025,-1.9774,-2.0178,-2.0042,-1.9683,-1.9477,-1.8842,-1.8087,-1.7483,-1.6288,-1.5211,-1.5211,-1.4627,-1.3992,-1.3714,-1.3359,-1.3079,-1.3079,-1.2783,-1.2468,-1.2199,-1.199,-1.1761,-1.151,-1.137,-1.1305,-1.1305,-1.1305,-1.1305,-1.1305,-1.1305,-1.1305,-1.1305,-1.1305,-1.1305,-1.1305,-1.1305,-1.1305,-1.1305,-1.1305,-1.137,-1.1521,-1.1629,-1.1844,-1.2145,-1.2153,-1.2268,-1.2507,-1.2479,-1.2554,-1.2699,-1.2699,-1.2699,-1.1417,-1.181,-1.2267,-1.3785,-1.4846,-1.6148,-1.8621,-1.9492,-1.9881,-2.0268,0.0,-1.9987,-2.0607,-1.9969,-1.9583,0.0,0.0,0.0,0.0,0.0,0.0,0.0,0.0,0.0,0.0,-1.995,-1.9965,-2.0097,-2.0145,-2.0191,-2.0268,-2.0365,-2.036,-2.0292,-2.0314,-2.0314,-2.0292,-2.0292,-2.0292,-2.0292,-2.0292,-2.0292,-2.0292,-2.0292,-2.0292,-2.0292,-2.0292,-2.0292,-2.0292,-2.0292,-2.0292,-2.0292,-2.0292,-2.0292,-2.0292,-2.0292,-2.0292,-2.0292,-2.0292,-1.9637,-1.8957,-1.9866,-1.9477,-1.8842,-1.9752,-1.875,-1.7273,-1.7203,-1.5839,-1.4412,-1.4316,-1.4292,-1.4256,-1.4003,-1.3738,-1.3545,-1.3545,-1.3375,-1.3156,-1.2886,-1.2505,-1.2115,-1.1803,-1.1553,-1.1391,-1.1348,-1.1327,-1.1305,-1.1305,-1.1305,-1.1305,-1.1305,-1.1305,-1.1305,-1.1305,-1.1305,-1.1305,-1.1305,-1.1305,-1.1305,-1.1305,-1.1521,-1.1887,-1.239,-1.2412,-1.2507,-1.2699,-1.2699,-1.2699,-1.2699,-1.2699,-1.2699,-1.0866,-1.1819,-1.3046,-1.4247,-1.6216,-1.8075,-1.8863,-1.9791,-2.0504,-2.0591,-2.0539,-2.0572,-2.0867,-2.0743,0.0,0.0,0.0,0.0,0.0,0.0,0.0,0.0,0.0,0.0,-2.0373,-2.0226,-2.0153,-2.0178,-2.0487,-2.0487,-2.0174,-2.0788,-2.0897,-2.0314,-2.0496,-2.0518,-2.0292,-2.0292,-2.0292,-2.0292,-2.0292,-2.0292,-2.0292,-2.0292,-2.0292,-2.0292,-2.0292,-2.0292,-2.0292,-2.0292,-2.0292,-2.0292,-2.0292,-2.0292,-2.0292,-2.0292,-2.0292,-2.0292,-2.0292,-1.9637,-1.8842,-1.9049,-1.8434,-1.7669,-1.7878,-1.7646,-1.7133,-1.6335,-1.5815,-1.5307,-1.4508,-1.4292,-1.4304,-1.4232,-1.4016,-1.3811,-1.3811,-1.362,-1.3373,-1.3167,-1.3019,-1.2813,-1.2325,-1.2202,-1.2057,-1.1736,-1.1466,-1.1305,-1.1305,-1.1305,-1.1305,-1.1305,-1.1305,-1.1305,-1.1305,-1.1305,-1.1305,-1.1305,-1.1305,-1.1305,-1.1305,-1.1348,-1.1672,-1.2316,-1.254,-1.2656,-1.2699,-1.2699,-1.2699,-1.2699,-1.2699,-1.2699,-1.1025,-1.1956,-1.308,-1.4572,-1.6875,-1.8842,-1.8984,-1.9965,-2.088,-2.1015,-2.0925,-2.0907,-2.115,0.0,0.0,0.0,0.0,0.0,0.0,0.0,0.0,0.0,0.0,0.0,-2.1086,-2.0978,-2.0869,-2.0779,-2.0959,-2.0913,-2.0558,-2.0953,-2.0992,-2.0518,-2.0631,-2.0564,-2.0292,-2.0292,-2.0292,-2.0292,-2.0292,-2.0292,-2.0292,-2.0292,-2.0292,-2.0292,-2.0292,-2.0292,-2.0292,-2.0292,-2.0292,-2.0292,-2.0292,-2.0292,-2.0292,-2.0292,-2.0292,-2.0292,-2.0292,-1.9637,-1.8796,-1.8796,-1.811,-1.7296,-1.7296,-1.6969,-1.6476,-1.5957,-1.5449,-1.4949,-1.4436,-1.4292,-1.4292,-1.4292,-1.4184,-1.4088,-1.4088,-1.3968,-1.3812,-1.3577,-1.3449,-1.3251,-1.2835,-1.254,-1.217,-1.1651,-1.1413,-1.1305,-1.1305,-1.1305,-1.1305,-1.1305,-1.1305,-1.1305,-1.1305,-1.1305,-1.1305,-1.1305,-1.1305,-1.1499,-1.194,-1.1962,-1.2005,-1.2059,-1.2347,-1.2561,-1.2699,-1.2699,-1.2699,-1.2699,-1.2699,-1.2699,-1.1059,-1.1956,-1.2977,-1.4915,-1.7021,-1.8673,-1.8976,-1.9989,-2.0953,-2.1288,-2.1186,-2.115,0.0,0.0,0.0,0.0,0.0,0.0,0.0,0.0,0.0,0.0,0.0,-2.1687,-2.1687,-2.1664,-2.1593,-2.1414,-2.1392,-2.128,-2.1019,-2.1042,-2.0952,-2.0767,-2.0744,-2.0654,-2.0428,-2.0428,-2.0405,-2.036,-2.0314,-2.0292,-2.0292,-2.0292,-2.0292,-2.0292,-2.0292,-2.0292,-2.0292,-2.0292,-2.0292,-2.0292,-2.0292,-2.0201,-2.0025,-2.0025,-2.0025,-2.0025,-2.0025,-1.937,-1.8526,-1.8526,-1.7739,-1.6781,-1.6781,-1.6311,-1.5768,-1.5579,-1.5069,-1.4532,-1.434,-1.4292,-1.4292,-1.4292,-1.4292,-1.4292,-1.4292,-1.4292,-1.4232,-1.4027,-1.3802,-1.3579,-1.3426,-1.2824,-1.2191,-1.1628,-1.1706,-1.1772,-1.1574,-1.1706,-1.1817,-1.1817,-1.1817,-1.174,-1.1554,-1.1543,-1.1543,-1.1543,-1.1543,-1.1876,-1.2656,-1.2699,-1.2476,-1.1983,-1.2219,-1.2476,-1.2699,-1.2699,-1.2699,-1.2699,-1.2699,-1.2699,-0.975,-1.137,-1.344,-1.5686,-1.6569,-1.7328,0.0,0.0,-2.0475,0.0,-2.125,0.0,0.0,0.0,0.0,0.0,0.0,0.0,0.0,0.0,0.0,0.0,0.0,-2.1687,-2.1687,-2.1549,-2.1437,-2.1392,-2.1392,-2.128,-2.1019,-2.1217,-2.1217,-2.0975,-2.0952,-2.093,-2.0907,-2.0907,-2.0817,-2.0631,-2.0405,-2.0292,-2.0292,-2.0292,-2.0292,-2.0292,-2.0292,-2.0292,-2.0292,-2.0292,-2.0292,-2.0292,-2.0292,-1.9774,-1.9003,-1.9003,-1.9003,-1.9003,-1.9003,-1.8342,-1.7506,-1.7506,-1.6217,-1.4699,-1.4699,-1.5211,-1.5602,-1.4747,-1.5021,-1.5402,-1.4532,-1.4292,-1.4292,-1.4292,-1.4292,-1.4292,-1.4292,-1.4292,-1.4304,-1.4244,-1.3992,-1.3848,-1.41,-1.3359,-1.2691,-1.2611,-1.3328,-1.3589,-1.2719,-1.3352,-1.3897,-1.3897,-1.3897,-1.3528,-1.259,-1.2519,-1.2519,-1.2519,-1.2519,-1.2583,-1.2677,-1.2699,-1.2656,-1.2571,-1.2625,-1.2668,-1.2699,-1.2699,-1.2699,-1.2699,-1.2699,-1.2699,-1.0217,-1.1743,-1.3367,-1.4908,-1.6385,-1.7678,-1.8313,-1.9446,-2.0395,-2.0424,0.0,0.0,0.0,0.0,0.0,0.0,0.0,0.0,0.0,0.0,0.0,0.0,0.0,-2.1687,-2.1687,-2.162,-2.1571,-2.1571,-2.1571,-2.1508,-2.1396,-2.1508,-2.1459,-2.1217,-2.1217,-2.115,-2.0997,-2.0997,-2.0885,-2.0699,-2.0586,-2.045,-2.0292,-2.0292,-2.0292,-2.0292,-2.0292,-2.0292,-2.0292,-2.0292,-2.0292,-2.0292,-2.0292,-1.9683,-1.8796,-1.8796,-1.8434,-1.7948,-1.7948,-1.7669,-1.7203,-1.664,-1.5863,-1.5045,-1.446,-1.4604,-1.4854,-1.4412,-1.4627,-1.4867,-1.4412,-1.4292,-1.4292,-1.4292,-1.4292,-1.4292,-1.4292,-1.4292,-1.4292,-1.4292,-1.4184,-1.4136,-1.4268,-1.3932,-1.3654,-1.3654,-1.4004,-1.4124,-1.3702,-1.4028,-1.4292,-1.4292,-1.4292,-1.4111,-1.364,-1.3604,-1.3604,-1.3604,-1.3604,-1.3326,-1.2735,-1.2699,-1.2699,-1.2699,-1.2699,-1.2699,-1.2699,-1.2699,-1.2699,-1.2699,-1.2699,-1.2699,-1.0154,-1.1473,-1.2659,-1.3685,-1.5557,-1.7241,0.0,0.0,-1.9859,0.0,0.0,0.0,0.0,0.0,0.0,0.0,0.0,0.0,0.0,0.0,0.0,0.0,0.0,-2.1687,-2.1687,-2.1687,-2.1687,-2.1687,-2.1687,-2.1687,-2.1687,-2.1687,-2.1638,-2.1482,-2.1482,-2.1374,-2.1177,-2.0885,-2.0614,-2.0388,-2.0337,-2.0178,-1.9934,-2.0178,-2.0292,-2.0292,-2.0042,-1.9911,-1.9888,-1.9637,-1.9546,-1.9546,-1.9546,-1.8934,-1.8041,-1.8041,-1.7553,-1.6922,-1.6922,-1.6922,-1.6805,-1.6028,-1.5639,-1.5283,-1.4532,-1.4292,-1.4292,-1.4292,-1.4292,-1.4292,-1.4292,-1.4292,-1.4292,-1.4292,-1.4292,-1.4292,-1.4292,-1.4292,-1.4292,-1.4292,-1.4292,-1.4292,-1.4292,-1.4292,-1.4292,-1.4292,-1.4292,-1.4292,-1.4292,-1.4292,-1.4292,-1.4292,-1.4292,-1.4292,-1.4292,-1.4292,-1.4292,-1.4292,-1.4292,-1.3942,-1.3145,-1.3109,-1.3109,-1.3109,-1.2843,-1.2699,-1.2699,-1.2699,-1.2699,-1.2699,-1.2699,-1.2699,-0.8434,-0.9709,-1.1109,-1.2386,-1.3511,-1.4829,0.0,0.0,0.0,0.0,0.0,0.0,0.0,0.0,0.0,0.0,0.0,0.0,0.0,0.0,0.0,0.0,0.0,-2.1687,-2.1687,-2.1687,-2.1687,-2.1687,-2.1687,-2.1687,-2.1687,-2.1687,-2.1687,-2.1664,-2.1664,-2.1664,-2.1664,-2.0529,-1.9826,-1.9552,-1.9363,-1.9134,-1.8911,-1.9866,-2.0292,-2.0246,-1.9278,-1.8888,-1.8796,-1.7855,-1.746,-1.746,-1.746,-1.6852,-1.5957,-1.5957,-1.591,-1.5886,-1.5886,-1.5886,-1.5863,-1.5815,-1.5164,-1.4364,-1.4316,-1.4292,-1.4292,-1.4292,-1.4292,-1.4292,-1.4292,-1.4292,-1.4292,-1.4292,-1.4292,-1.4292,-1.4292,-1.4292,-1.4292,-1.4292,-1.4292,-1.4292,-1.4292,-1.4292,-1.4292,-1.4292,-1.4292,-1.4292,-1.4292,-1.4292,-1.4292,-1.4292,-1.4292,-1.4292,-1.4292,-1.4292,-1.4292,-1.4292,-1.4292,-1.4268,-1.422,-1.422,-1.422,-1.422,-1.3218,-1.2699,-1.2699,-1.2699,-1.2699,-1.2699,-1.2699,-1.2699,-0.827,-0.932,-1.0516,-1.193,-1.3191,-1.4383,-1.5476,0.0,0.0,0.0,0.0,0.0,0.0,0.0,0.0,0.0,0.0,0.0,0.0,0.0,0.0,0.0,0.0,-2.1687,-2.1687,-2.1687,-2.1687,-2.1687,-2.1687,-2.1687,-2.1687,-2.1687,-2.1687,-2.1687,-2.1687,-2.1687,-2.1687,-2.0664,-1.994,-1.9484,-1.8773,-1.8226,-1.7855,-1.8203,-1.8365,-1.8319,-1.732,-1.7599,-1.8727,-1.7716,-1.7296,-1.7296,-1.7296,-1.6687,-1.5792,-1.5792,-1.5402,-1.4843,-1.4843,-1.4843,-1.4843,-1.4843,-1.4604,-1.4292,-1.4292,-1.4292,-1.4292,-1.4292,-1.4292,-1.4292,-1.4292,-1.4292,-1.4292,-1.4292,-1.4292,-1.4292,-1.4292,-1.4292,-1.4292,-1.4292,-1.4292,-1.4292,-1.4292,-1.4292,-1.4292,-1.4292,-1.4292,-1.4292,-1.4292,-1.4292,-1.4292,-1.4292,-1.4292,-1.4292,-1.4292,-1.4292,-1.4292,-1.4292,-1.4292,-1.4292,-1.4292,-1.4292,-1.4292,-1.4292,-1.3918,-1.3387,-1.2699,-1.2699,-1.2699,-1.2699,-1.2699,-1.2699,-0.7699,-0.8769,-0.9991,0.0,-1.2215,-1.3237,-1.4375,0.0,0.0,0.0,0.0,0.0,0.0,0.0,0.0,0.0,0.0,0.0,0.0,0.0,0.0,0.0,0.0,-2.1687,-2.1687,-2.1687,-2.1687,-2.1687,-2.1687,0.0,-2.1687,-2.1687,-2.1687,-2.1687,-2.1687,-2.1553,-2.1221,-2.028,-1.9353,-1.848,-1.7832,-1.7273,-1.6805,-1.7156,-1.7296,-1.725,-1.624,-1.657,-1.7716,-1.6711,-1.6288,-1.6288,-1.6288,-1.5886,-1.5307,-1.5307,-1.4854,-1.4292,-1.4292,-1.4292,-1.4292,-1.4292,-1.4292,-1.4292,-1.4292,-1.4292,-1.4292,-1.4292,-1.4292,-1.4292,-1.4292,-1.4292,-1.4292,-1.4292,-1.4292,-1.4292,-1.4292,-1.4292,-1.4292,-1.4292,-1.4292,-1.4292,-1.4292,-1.4292,-1.4292,-1.4292,-1.4292,-1.4292,-1.4292,-1.4292,-1.4292,-1.4292,-1.4292,-1.4292,-1.4292,-1.4292,-1.4292,-1.4292,-1.4292,-1.4292,-1.4292,-1.4292,-1.4292,-1.4292,-1.4292,-1.3954,-1.3242,-1.3061,-1.293,-1.287,-1.287,-1.2894,0.0,0.0,0.0,0.0,0.0,0.0,-1.3471,0.0,0.0,0.0,0.0,0.0,0.0,0.0,0.0,0.0,0.0,0.0,0.0,0.0,0.0,0.0,0.0,-2.1687,-2.1687,-2.1687,-2.1687,-2.1664,-2.1664,-2.1687,-2.1664,-2.1664,-2.1687,-2.1664,-2.1664,-2.1199,-2.0257,-1.9255,-1.7994,-1.6485,-1.6551,-1.6268,-1.5792,-1.6781,-1.7203,-1.7156,-1.617,-1.5758,-1.5687,-1.4699,-1.4292,-1.4292,-1.4292,-1.4292,-1.4292,-1.4292,-1.4292,-1.4292,-1.4292,-1.4292,-1.4292,-1.4292,-1.4292,-1.4292,-1.4292,-1.4292,-1.4292,-1.4292,-1.4292,-1.4292,-1.4292,-1.4292,-1.4292,-1.4292,-1.4292,-1.4292,-1.4292,-1.4292,-1.4292,-1.4292,-1.4292,-1.4292,-1.4292,-1.4292,-1.4292,-1.4292,-1.4292,-1.4292,-1.4292,-1.4292,-1.4292,-1.4292,-1.4292,-1.4292,-1.4292,-1.4292,-1.4292,-1.4292,-1.4292,-1.4292,-1.4292,-1.4292,-1.4292,-1.4292,-1.4292,-1.4292,-1.4292,-1.3773,-1.34,-1.3185,-1.3221,-1.3352,-0.6909,0.0,0.0,0.0,0.0,0.0,0.0,0.0,0.0,0.0,0.0,0.0,0.0,0.0,0.0,0.0,0.0,0.0,0.0,0.0,0.0,0.0,0.0,-2.1687,-2.1687,-2.1687,-2.1419,0.0,-2.1311,-2.1396,-2.0709,-2.1329,-2.1396,-2.0709,-2.0687,-2.0212,-1.9216,-1.8218,-1.7311,-1.6485,-1.5818,-1.5237,-1.4723,-1.4997,-1.5116,-1.5116,-1.4843,-1.4723,-1.4699,-1.4412,-1.4292,-1.4292,-1.4292,-1.4292,-1.4292,-1.4292,-1.4292,-1.4292,-1.4292,-1.4292,-1.4292,-1.4292,-1.4292,-1.4292,-1.4292,-1.4292,-1.4292,-1.4292,-1.4292,-1.4292,-1.4292,-1.4292,-1.4292,-1.4292,-1.4292,-1.4292,-1.4292,-1.4292,-1.4292,-1.4292,-1.4292,-1.4292,-1.4292,-1.4292,-1.4292,-1.4292,-1.4292,-1.4292,-1.4292,-1.4292,-1.4292,-1.4292,-1.4292,-1.4292,-1.4292,-1.4292,-1.4292,-1.4292,-1.4292,-1.4292,-1.4292,-1.4292,-1.4292,-1.4292,-1.4292,-1.4292,-1.4292,-1.3773,-1.3268,-1.2858,-1.3629,-1.4039,0.0,0.0,0.0,0.0,0.0,0.0,0.0,-1.0559,0.0,0.0,0.0,0.0,0.0,0.0,0.0,0.0,0.0,0.0,0.0,0.0,0.0,0.0,0.0,-2.0989,-2.0461,-2.0561,-2.0329,-1.953,-1.9973,-2.0086,-1.9695,-2.019,-2.0235,-1.9673,-1.9673,-1.9186,-1.8172,-1.7606,-1.6833,-1.59,-1.5356,-1.4807,-1.4292,-1.4292,-1.4292,-1.4292,-1.4292,-1.4292,-1.4292,-1.4292,-1.4292,-1.4292,-1.4292,-1.4292,-1.4292,-1.4292,-1.4292,-1.4292,-1.4292,-1.4292,-1.4292,-1.4292,-1.4292,-1.4292,-1.4292,-1.4292,-1.4292,-1.4292,-1.4292,-1.4292,-1.4292,-1.4292,-1.4292,-1.4292,-1.4292,-1.4292,-1.4292,-1.4292,-1.4292,-1.4292,-1.4292,-1.4292,-1.4292,-1.4292,-1.4292,-1.4292,-1.4292,-1.4292,-1.4292,-1.4292,-1.4292,-1.4292,-1.4292,-1.4292,-1.4292,-1.4292,-1.4292,-1.4292,-1.4292,-1.4292,-1.4292,-1.4292,-1.4292,-1.4292,-1.4292,-1.4292,-1.4292,-1.399,-1.3676,-1.3387,-1.4002,-1.4292,-0.7425,-0.7797,0.0,0.0,0.0,0.0,-0.9664,-0.97,-0.9827,0.0,0.0,0.0,0.0,0.0,0.0,0.0,0.0,0.0,0.0,0.0,0.0,0.0,0.0,-1.9913,-1.8786,-1.8981,-1.8919,-1.8287,-1.8141,-1.8277,-1.8716,-1.8732,-1.8702,-1.8596,-1.8588,-1.8102,-1.7068,-1.7044,-1.6362,-1.5059,-1.5059,-1.4783,-1.4292,-1.4292,-1.4292,-1.4292,-1.4292,-1.4292,-1.4292,-1.4292,-1.4292,-1.4292,-1.4292,-1.4292,-1.4292,-1.4292,-1.4292,-1.4292,-1.4292,-1.4292,-1.4292,-1.4292,-1.4292,-1.4292,-1.4292,-1.4292,-1.4292,-1.4292,-1.4292,-1.4292,-1.4292,-1.4292,-1.4292,-1.4292,-1.4292,-1.4292,-1.4292,-1.4292,-1.4292,-1.4292,-1.4292,-1.4292,-1.4292,-1.4292,-1.4292,-1.4292,-1.4292,-1.4292,-1.4292,-1.4292,-1.4292,-1.4292,-1.4292,-1.4292,-1.4292,-1.4292,-1.4292,-1.4292,-1.4292,-1.4292,-1.4292,-1.4292,-1.4292,-1.4292,-1.4292,-1.4292,-1.4292,-1.4292,-1.4292,-1.4292,-1.4292,-1.4292,-0.8423,-0.8504,-0.8575,-0.8444,0.0,0.0,-0.8227,-0.8512,-0.8891,0.0,0.0,0.0,0.0,0.0,0.0,0.0,0.0,0.0,0.0,0.0,0.0,0.0,0.0,-1.9366,-1.9127,-1.9157,-1.8801,-1.7892,-1.7169,-1.7255,-1.8351,-1.8412,-1.804,-1.7296,-1.7273,-1.6702,-1.5523,-1.5523,-1.5285,-1.4783,-1.4783,-1.4616,-1.4292,-1.4292,-1.4292,-1.4292,-1.4292,-1.4292,-1.4292,-1.4292,-1.4292,-1.4292,-1.4292,-1.4292,-1.4292,-1.4292,-1.4292,-1.4292,-1.4292,-1.4292,-1.4292,-1.4292,-1.4292,-1.4292,-1.4292,-1.4292,-1.4292,-1.4292,-1.4292,-1.4292,-1.4292,-1.4292,-1.4292,-1.4292,-1.4292,-1.4292,-1.4292,-1.4292,-1.4292,-1.4292,-1.4292,-1.4292,-1.4292,-1.4292,-1.4292,-1.4292,-1.4292,-1.4292,-1.4292,-1.4292,-1.4292,-1.4292,-1.4292,-1.4292,-1.4292,-1.4292,-1.4292,-1.4292,-1.4292,-1.4292,-1.4292,-1.4292,-1.4292,-1.4292,-1.4292,-1.4292,-1.4292,-1.4292,-1.4292,-1.4292,-1.4292,-1.4292,-0.8939,-0.8903,-0.8939,-0.9056,0.0,0.0,0.0,-0.8327,-0.8299,-0.8299,0.0,0.0,0.0,0.0,0.0,0.0,0.0,0.0,0.0,0.0,0.0,0.0,0.0,-1.7106,-1.6625,-1.6849,-1.6781,-1.6147,-1.5839,-1.5988,-1.6616,-1.6527,-1.631,-1.5951,-1.5871,-1.5577,-1.5107,-1.5107,-1.4963,-1.4688,-1.4688,-1.4568,-1.4292,-1.4292,-1.4292,-1.4292,-1.4292,-1.4292,-1.4292,-1.4292,-1.4292,-1.4292,-1.4292,-1.4292,-1.4292,-1.4292,-1.4292,-1.4292,-1.4292,-1.4292,-1.4292,-1.4292,-1.4292,-1.4292,-1.4292,-1.4292,-1.4292,-1.4292,-1.4292,-1.4292,-1.4292,-1.4292,-1.4292,-1.4292,-1.4292,-1.4292,-1.4292,-1.4292,-1.4292,-1.4292,-1.4292,-1.4292,-1.4292,-1.4292,-1.4292,-1.4292,-1.4292,-1.4292,-1.4292,-1.4292,-1.4292,-1.4292,-1.4292,-1.4292,-1.4292,-1.4292,-1.4292,-1.4292,-1.4292,-1.4292,-1.4292,-1.4292,-1.4292,-1.4292,-1.4292,-1.4292,-1.4292,-1.4292,-1.4292,-1.4292,-1.4292,-1.4292,0.0,0.0,0.0,0.0,0.0,-0.9047,0.0,0.0,0.0,-0.8215,0.0,0.0,0.0,0.0,0.0,0.0,0.0,0.0,0.0,0.0,0.0,0.0,0.0,-1.4643,-1.388,-1.4326,-1.4548,-1.4271,-1.4451,-1.4638,-1.4732,-1.462,-1.4624,-1.4869,-1.472,-1.4744,-1.4927,-1.4963,-1.4844,-1.4616,-1.4616,-1.452,-1.4292,-1.4292,-1.4292,-1.4292,-1.4292,-1.4292,-1.4292,-1.4292,-1.4292,-1.4292,-1.4292,-1.4292,-1.4292,-1.4292,-1.4292,-1.4292,-1.4292,-1.4292,-1.4292,-1.4292,-1.4292,-1.4292,-1.4292,-1.4292,-1.4292,-1.4292,-1.4292,-1.4292,-1.4292,-1.4292,-1.4292,-1.4292,-1.4292,-1.4292,-1.4292,-1.4292,-1.4292,-1.4292,-1.4292,-1.4292,-1.4292,-1.4292,-1.4292,-1.4292,-1.4292,-1.4292,-1.4292,-1.4292,-1.4292,-1.4292,-1.4292,-1.4292,-1.4292,-1.4292,-1.4292,-1.4292,-1.4292,-1.4292,-1.4292,-1.4292,-1.4292,-1.4292,-1.4292,-1.4292,-1.4292,-1.4292,-1.4292,-1.4292,-1.4292,-1.4292,0.0,0.0,0.0,0.0,-1.019,0.0,0.0,0.0,-0.877,-0.8081,0.0,0.0,0.0,0.0,0.0,0.0,0.0,0.0,0.0,0.0,0.0,0.0,0.0,-1.3382,-1.3452,-1.3634,-1.3653,-1.338,-1.3153,-1.3287,-1.3817,-1.4091,-1.4282,-1.4383,-1.4361,-1.4368,-1.4388,-1.44,-1.4376,-1.4352,-1.4352,-1.4316,-1.4292,-1.4292,-1.4292,-1.4292,-1.4292,-1.4292,-1.4292,-1.4292,-1.4292,-1.4292,-1.4292,-1.4292,-1.4292,-1.4292,-1.4292,-1.4292,-1.4292,-1.4292,-1.4292,-1.4292,-1.4292,-1.4292,-1.4292,-1.4292,-1.4292,-1.4292,-1.4292,-1.4292,-1.4292,-1.4292,-1.4292,-1.4292,-1.4292,-1.4292,-1.4292,-1.4292,-1.4292,-1.4292,-1.4292,-1.4292,-1.4292,-1.4292,-1.4292,-1.4292,-1.4292,-1.4292,-1.4292,-1.4292,-1.4292,-1.4292,-1.4292,-1.4292,-1.4292,-1.4292,-1.4292,-1.4292,-1.4292,-1.4292,-1.4292,-1.4292,-1.4292,-1.4292,-1.4292,-1.4292,-1.4292,-1.4292,-1.4292,-1.4292,-1.4292,-1.4292,0.0,0.0,0.0,0.0,0.0,0.0,-0.889,0.0,-0.8359,0.0,0.0,0.0,0.0,0.0,0.0,0.0,0.0,0.0,0.0,0.0,0.0,0.0,0.0,0.0,-1.1954,-1.234,-1.256,-1.2551,-1.2459,-1.2639,-1.3209,-1.3418,-1.3693,-1.4054,-1.3918,-1.3998,-1.4292,-1.4292,-1.4292,-1.4292,-1.4292,-1.4292,-1.4292,-1.4292,-1.4292,-1.4292,-1.4292,-1.4292,-1.4292,-1.4292,-1.4292,-1.4292,-1.4292,-1.4292,-1.4292,-1.4292,-1.4292,-1.4292,-1.4292,-1.4292,-1.4292,-1.4292,-1.4292,-1.4292,-1.4292,-1.4292,-1.4292,-1.4292,-1.4292,-1.4292,-1.4292,-1.4292,-1.4292,-1.4292,-1.4292,-1.4292,-1.4292,-1.4292,-1.4292,-1.4292,-1.4292,-1.4292,-1.4292,-1.4292,-1.4292,-1.4292,-1.4292,-1.4292,-1.4292,-1.4292,-1.4292,-1.4292,-1.4292,-1.4292,-1.4292,-1.4292,-1.4292,-1.4292,-1.4292,-1.4292,-1.4292,-1.4292,-1.4292,-1.4292,-1.4292,-1.4292,-1.4292,-1.4292,-1.4292,-1.4292,-1.4292,-1.4292,-1.1725,0.0,0.0,0.0,0.0,0.0,0.0,0.0,0.0,0.0,0.0,0.0,0.0,0.0,0.0,0.0,0.0,0.0,0.0,0.0,0.0,0.0,0.0,0.0,0.0,-1.0904,-1.1269,-1.1626,-1.1628,-1.1905,-1.255,-1.2778,-1.3142,-1.3767,-1.361,-1.3761,-1.4292,-1.4292,-1.4292,-1.4292,-1.4292,-1.4292,-1.4292,-1.4292,-1.4292,-1.4292,-1.4292,-1.4292,-1.4292,-1.4292,-1.4292,-1.4292,-1.4292,-1.4292,-1.4292,-1.4292,-1.4292,-1.4292,-1.4292,-1.4292,-1.4292,-1.4292,-1.4292,-1.4292,-1.4292,-1.4292,-1.4292,-1.4292,-1.4292,-1.4292,-1.4292,-1.4292,-1.4292,-1.4292,-1.4292,-1.4292,-1.4292,-1.4292,-1.4292,-1.4292,-1.4292,-1.4292,-1.4292,-1.4292,-1.4292,-1.4292,-1.4292,-1.4292,-1.4292,-1.4292,-1.4292,-1.4292,-1.4292,-1.4292,-1.4292,-1.4292,-1.4292,-1.4292,-1.4292,-1.4292,-1.4292,-1.4292,-1.4292,-1.4292,-1.4292,-1.4292,-1.4292,-1.4292,-1.4292,-1.4292,-1.4292,-1.4292,0.0,0.0,0.0,-1.0779,0.0,0.0,0.0,0.0,-0.8915,0.0,0.0,0.0,0.0,0.0,0.0,0.0,0.0,0.0,0.0,0.0,0.0,0.0,0.0,0.0,0.0,-0.9406,-0.9703,0.0,-1.0442,-1.0793,-1.1775,-1.2267,-1.2816,-1.3483,-1.3497,-1.3761,-1.4292,-1.4292,-1.4292,-1.4292,-1.4292,-1.4292,-1.4292,-1.4292,-1.4292,-1.4292,-1.4292,-1.4292,-1.4292,-1.4292,-1.4292,-1.4292,-1.4292,-1.4292,-1.4292,-1.4292,-1.4292,-1.4292,-1.4292,-1.4292,-1.4292,-1.4292,-1.4292,-1.4292,-1.4292,-1.4292,-1.4292,-1.4292,-1.4292,-1.4292,-1.4292,-1.4292,-1.4292,-1.4292,-1.4292,-1.4292,-1.4292,-1.4292,-1.4292,-1.4292,-1.4292,-1.4292,-1.4292,-1.4292,-1.4292,-1.4292,-1.4292,-1.4292,-1.4292,-1.4292,-1.4292,-1.4292,-1.4292,-1.4292,-1.4292,-1.4292,-1.4292,-1.4292,-1.4292,-1.4292,-1.4292,-1.4292,-1.4292,-1.4292,-1.4292,-1.4292,-1.4292,-1.4292,-1.4292,-1.4292,-1.4292,-1.4292,0.0,0.0,-1.3256,-1.1737,0.0,0.0,0.0,0.0,0.0,0.0,0.0,0.0,0.0,0.0,0.0,0.0,0.0,0.0,0.0,0.0,0.0,0.0,0.0,0.0,0.0,0.0,0.0,0.0,-0.9725,0.0,-1.1211,-1.1764,-1.2334,-1.2952,-1.3304,-1.3665,-1.4039,-1.4208,-1.4292,-1.4292,-1.4292,-1.4292,-1.4292,-1.4292,-1.4292,-1.4292,-1.4292,-1.4292,-1.4292,-1.4292,-1.4292,-1.4292,-1.4292,-1.4292,-1.4292,-1.4292,-1.4292,-1.4292,-1.4292,-1.4292,-1.4292,-1.4292,-1.4292,-1.4292,-1.4292,-1.4292,-1.4292,-1.4292,-1.4292,-1.4292,-1.4292,-1.4292,-1.4292,-1.4292,-1.4292,-1.4292,-1.4292,-1.4292,-1.4292,-1.4292,-1.4292,-1.4292,-1.4292,-1.4292,-1.4292,-1.4292,-1.4292,-1.4292,-1.4292,-1.4292,-1.4292,-1.4292,-1.4292,-1.4292,-1.4292,-1.4292,-1.4292,-1.4292,-1.4292,-1.4292,-1.4292,-1.4292,-1.4292,-1.4292,-1.4292,-1.4292,-1.4292,-1.4292,-1.4292,-1.4292,-1.4292,-1.4292,-1.3364,-1.3545,0.0,-1.2328,-1.1774,0.0,-0.9709,0.0,0.0,0.0,0.0,0.0,0.0,0.0,0.0,0.0,0.0,0.0,0.0,-0.7901,0.0,0.0,0.0,0.0,0.0,0.0,-0.8504,-0.8972,-0.907,0.0,0.0,-1.1286,-1.1935,-1.2542,-1.3159,-1.3617,-1.3906,-1.4171,-1.4292,-1.4292,-1.4292,-1.4292,-1.4292,-1.4292,-1.4292,-1.4292,-1.4292,-1.4292,-1.4292,-1.4292,-1.4292,-1.4292,-1.4292,-1.4292,-1.4292,-1.4292,-1.4292,-1.4292,-1.4292,-1.4292,-1.4292,-1.4292,-1.4292,-1.4292,-1.4292,-1.4292,-1.4292,-1.4292,-1.4292,-1.4292,-1.4292,-1.4292,-1.4292,-1.4292,-1.4292,-1.4292,-1.4292,-1.4292,-1.4292,-1.4292,-1.4292,-1.4292,-1.4292,-1.4292,-1.4292,-1.4292,-1.4292,-1.4292,-1.4292,-1.4292,-1.4292,-1.4292,-1.4292,-1.4292,-1.4292,-1.4292,-1.4292,-1.4292,-1.4292,-1.4292,-1.4292,-1.4292,-1.4292,-1.4292,-1.4292,-1.4292,-1.4292,-1.4292,-1.4292,-1.4292,-1.4292,-1.4292]},{"header":{"parameterUnit":"m.s-1","parameterCategory":1,"la1":30.6,"la2":29.2853,"lo1":-89.7004,"lo2":-87.6739,"dy":0.0162,"dx":0.0183,"nx":112,"ny":82,"refTime":"2024-06-19T06:00:00:Z","depth":0,"parameterNumber":3,"parameterNumberName":"V-component_of_WINDS"},"data":[0.0,0.0,0.0,0.0,0.0,0.0,0.0,0.0,0.0,0.0,0.0,0.0,0.0,0.0,0.0,0.0,0.0,0.0,0.0,0.0,0.0,0.0,0.0,0.0,0.0,0.0,0.0,0.0,0.0,0.0,0.0,0.0,0.0,0.0,0.0,0.0,0.0,0.0,0.0,0.0,0.0,0.0,0.0,0.0,0.0,0.0,0.0,0.0,0.0,0.0,0.0,0.0,0.0,0.0,0.0,0.0,0.0,0.0,0.0,0.0,0.0,0.0,0.0,0.0,0.0,0.0,0.0,0.0,0.0,0.0,0.0,0.0,0.0,0.0,0.0,0.0,0.0,0.0,0.0,0.0,0.0,0.0,0.0,0.0,0.0,0.0,0.0,0.0,0.0,0.0,0.0,1.5491,1.8574,2.0184,1.946,1.9148,1.7654,1.4418,0.0,0.0,0.0,0.0,0.0,0.0,0.0,0.0,0.0,0.0,0.0,0.0,0.0,0.0,0.0,0.0,0.0,0.0,0.0,0.0,0.0,0.0,0.0,0.0,0.0,0.0,0.0,0.0,0.0,0.0,0.0,0.0,0.0,0.0,0.0,0.0,0.0,0.0,0.0,0.0,0.0,0.0,0.0,0.0,0.0,0.0,0.0,0.0,0.0,0.0,0.0,0.0,0.0,0.0,0.0,0.0,0.0,0.0,0.0,0.0,0.0,0.0,0.0,0.0,0.0,0.0,0.0,0.0,0.0,0.0,0.0,0.0,0.0,0.0,0.0,0.0,0.0,0.0,0.0,0.0,0.0,0.0,0.0,0.0,0.0,0.0,0.0,0.0,0.0,0.0,0.0,0.0,0.0,0.0,0.0,0.0,0.0,0.0,0.0,0.0,0.0,0.0,0.0,0.0,1.4013,1.7255,1.9359,2.0454,2.03,1.9012,1.7317,1.5238,0.0,0.0,0.0,0.0,0.0,0.0,0.0,0.0,0.0,0.0,0.0,0.0,0.0,0.0,0.0,0.0,0.0,0.0,0.0,0.0,0.0,0.0,0.0,0.0,0.0,0.0,0.0,0.0,0.0,0.0,0.0,0.0,0.0,0.0,0.0,0.0,0.0,0.0,0.0,0.0,0.0,0.0,0.0,0.0,0.0,0.0,0.0,0.0,0.0,0.0,0.0,0.0,0.0,0.0,0.0,0.0,0.0,0.0,0.0,0.0,0.0,0.0,0.0,0.0,0.0,0.0,0.0,0.0,0.0,0.0,0.0,0.0,0.0,0.0,0.0,0.0,0.0,0.0,0.0,0.0,0.0,0.0,0.0,0.0,0.0,0.0,0.0,0.0,0.0,0.0,0.0,0.0,0.0,0.0,0.0,0.0,0.0,0.0,0.0,0.0,0.0,0.0,0.0,1.3651,1.5167,1.7729,1.9484,2.0499,2.0499,1.8976,1.7242,1.5394,1.4033,0.0,0.0,0.0,0.0,0.0,0.0,0.0,0.0,0.0,0.0,0.0,0.0,0.0,0.0,0.0,0.0,0.0,0.0,0.0,0.0,0.0,0.0,0.0,0.0,0.0,0.0,0.0,0.0,0.0,0.0,0.0,0.0,0.0,0.0,0.0,0.0,0.0,0.0,0.0,0.0,0.0,0.0,0.0,0.0,0.0,0.0,0.0,0.0,0.0,0.0,0.0,0.0,0.0,0.0,0.0,0.0,0.0,0.0,0.0,0.0,0.0,0.0,0.0,0.0,0.0,0.0,0.0,0.0,0.0,0.0,0.0,0.0,0.0,0.0,0.0,0.0,0.0,0.0,0.0,0.0,0.0,0.0,0.0,0.0,0.0,0.0,0.0,0.0,0.0,0.0,0.0,0.0,0.0,0.0,0.0,0.0,0.0,0.0,0.0,0.0,0.0,0.0,1.5077,1.6518,1.785,1.9487,2.0499,2.0499,1.8779,1.7005,1.5396,1.3475,0.0,0.0,0.0,0.0,0.0,0.0,0.0,0.0,0.0,0.0,0.0,0.0,0.0,0.0,0.0,0.0,0.0,0.0,0.0,0.0,0.0,0.0,0.0,0.0,0.0,0.0,0.0,0.0,0.0,0.0,0.0,0.0,0.0,0.0,0.0,0.0,0.0,0.0,0.0,0.0,0.0,0.0,0.0,0.0,0.0,0.0,0.0,0.0,0.0,0.0,0.0,0.0,0.0,0.0,0.0,0.0,0.0,0.0,0.0,0.0,0.0,0.0,0.0,0.0,0.0,0.0,0.0,0.0,0.0,0.0,0.0,0.0,0.0,0.0,0.0,0.0,0.0,0.0,0.0,0.0,0.0,0.0,0.0,0.0,0.0,0.0,0.0,0.0,0.0,0.0,0.0,0.0,0.0,0.0,0.0,0.0,0.0,0.0,0.0,0.0,0.0,0.0,1.5763,1.7867,1.7984,1.9493,2.0499,2.0499,1.8145,1.6291,1.5364,1.2849,0.0,0.0,0.0,0.0,0.0,0.0,0.0,0.0,0.0,0.0,0.0,0.0,0.0,0.0,0.0,0.0,0.0,0.0,0.0,0.0,0.0,0.0,0.0,0.0,0.0,0.0,0.0,0.0,0.0,0.0,0.0,0.0,0.0,0.0,0.0,0.0,0.0,0.0,0.0,0.0,0.0,0.0,0.0,0.0,0.0,0.0,0.0,0.0,0.0,0.0,0.0,0.0,0.0,0.0,0.0,0.0,0.0,0.0,0.0,0.0,0.0,0.0,0.0,0.0,0.0,0.0,0.0,0.0,0.0,0.0,0.0,0.0,0.0,0.0,0.0,0.0,0.0,0.0,0.0,0.0,0.0,0.0,0.0,0.0,0.0,0.0,0.0,0.0,0.0,0.0,0.0,0.0,0.0,0.0,0.0,0.0,0.0,0.0,0.0,0.0,0.0,0.0,1.5699,1.7612,0.0,1.9825,2.0481,2.0485,1.8637,1.6858,1.538,0.0,0.0,0.0,0.0,0.0,0.0,0.0,0.0,0.0,0.0,0.0,0.0,0.0,0.0,0.0,0.0,0.0,0.0,0.0,0.0,0.0,0.0,0.0,0.0,0.0,0.0,0.0,0.0,0.0,0.0,0.0,0.0,0.0,0.0,0.0,0.0,0.0,0.0,0.0,0.0,0.0,0.0,0.0,0.0,0.0,0.0,0.0,0.0,0.0,0.0,0.0,0.0,0.0,0.0,0.0,0.0,0.0,0.0,0.0,0.0,0.0,0.0,0.0,0.0,0.0,0.0,0.0,0.0,0.0,0.0,0.0,0.0,0.0,0.0,0.0,0.0,0.0,0.0,0.0,0.0,0.0,0.0,0.0,0.0,0.0,0.0,0.0,0.0,0.0,0.0,0.0,0.0,0.0,0.0,0.0,0.0,0.0,0.0,0.0,0.0,0.0,0.0,1.3906,1.5859,1.7656,0.0,1.9993,2.0416,2.0141,1.8528,1.6788,1.4995,0.0,0.0,0.0,0.0,0.0,0.0,0.0,0.0,0.0,0.0,0.0,0.0,0.0,0.0,0.0,0.0,0.0,0.0,0.0,0.0,0.0,0.0,0.0,0.0,0.0,0.0,0.0,0.0,0.0,0.0,0.0,0.0,0.0,0.0,0.0,0.0,0.0,0.0,0.0,0.0,0.0,0.0,0.0,0.0,0.0,0.0,0.0,0.0,0.0,0.0,0.0,0.0,0.0,0.0,0.0,0.0,0.0,0.0,0.0,0.0,0.0,0.0,0.0,0.0,0.0,0.0,0.0,0.0,0.0,0.0,0.0,0.0,0.0,0.0,0.0,0.0,0.0,0.0,0.0,0.0,0.0,0.0,0.0,0.0,0.0,0.0,0.0,0.0,0.0,0.0,0.0,0.0,0.0,0.0,0.0,0.0,0.0,0.0,0.0,0.0,0.0,0.0,1.4018,1.6318,1.8234,1.9101,1.9999,2.0188,1.9391,1.766,1.5883,0.0,0.0,0.0,0.0,0.0,0.0,0.0,0.0,0.0,0.0,0.0,0.0,0.0,0.0,0.0,0.0,0.0,0.0,0.0,0.0,0.0,0.0,0.0,0.0,0.0,0.0,0.0,0.0,0.0,0.0,0.0,0.0,0.0,0.0,0.0,0.0,0.0,0.0,0.0,0.0,0.0,0.0,0.0,0.0,0.0,0.0,0.0,0.0,0.0,0.0,0.0,0.0,0.0,0.0,0.0,0.0,0.0,0.0,0.0,0.0,0.0,0.0,0.0,0.0,0.0,0.0,0.0,0.0,0.0,0.0,0.0,0.0,0.0,0.0,0.0,0.0,0.0,0.0,0.0,0.0,0.0,0.0,0.0,0.0,0.0,0.0,0.0,0.0,0.0,0.0,0.0,0.0,0.0,0.0,0.0,0.0,0.0,0.0,0.0,0.0,0.0,0.0,0.0,1.4811,1.6719,1.8477,1.9973,2.0347,2.0391,2.0156,1.8585,1.6846,1.5111,0.0,0.0,0.0,0.0,0.0,0.0,0.0,0.0,0.0,0.0,0.0,0.0,0.0,0.0,0.0,0.0,0.0,0.0,0.0,0.0,0.0,0.0,0.0,0.0,0.0,0.0,0.0,0.0,0.0,0.0,0.0,0.0,0.0,0.0,0.0,0.0,0.0,0.0,0.0,0.0,0.0,0.0,0.0,0.0,0.0,0.0,0.0,0.0,0.0,0.0,0.0,0.0,0.0,0.0,0.0,0.0,0.0,0.0,0.0,0.0,0.0,0.0,0.0,0.0,0.0,0.0,0.0,0.0,0.0,0.0,0.0,0.0,0.0,0.0,0.0,0.0,0.0,0.0,0.0,0.0,0.0,0.0,0.0,0.0,0.0,0.0,0.0,0.0,0.0,0.0,0.0,0.0,0.0,0.0,0.0,0.0,0.0,0.0,0.0,0.0,0.0,0.0,1.5183,1.6849,1.8564,2.0302,2.0485,2.0383,2.0037,1.8788,1.7099,1.501,0.0,0.0,0.0,0.0,0.0,0.0,0.0,0.0,0.0,0.0,0.0,0.0,0.0,0.0,0.0,0.0,0.0,0.0,0.0,0.0,0.0,0.0,0.0,0.0,0.0,0.0,0.0,0.0,0.0,0.0,0.0,0.0,0.0,0.0,0.0,0.0,0.0,0.0,0.0,0.0,0.0,0.0,0.0,0.0,0.0,0.0,0.0,0.0,0.0,0.0,0.0,0.0,0.0,0.0,0.0,0.0,0.0,0.0,0.0,0.0,0.0,0.0,0.0,0.0,0.0,0.0,0.0,0.0,0.0,0.0,0.0,0.0,0.0,0.0,0.0,0.0,0.0,0.0,0.0,0.0,0.0,0.0,0.0,0.0,0.0,0.0,0.0,0.0,0.0,0.0,0.0,0.0,0.0,0.0,0.0,0.0,0.0,0.0,0.0,0.0,0.0,0.0,1.5174,1.6906,1.866,2.0335,2.0497,2.0207,1.9452,1.8554,1.6952,1.4511,0.0,0.0,0.0,0.0,0.0,0.0,0.0,0.0,0.0,0.0,0.0,0.0,0.0,0.0,0.0,0.0,0.0,0.0,0.0,0.0,0.0,0.0,0.0,0.0,0.0,0.0,0.0,0.0,0.0,0.0,0.0,0.0,0.0,0.0,0.0,0.0,0.0,0.0,0.0,0.0,0.0,0.0,0.0,0.0,0.0,0.0,0.0,0.0,0.0,0.0,0.0,0.0,0.0,0.0,0.0,0.0,0.0,0.0,0.0,0.0,1.3221,0.0,0.0,0.0,0.0,0.0,0.0,0.0,0.0,0.0,0.0,0.0,0.0,0.0,0.0,0.0,0.0,0.0,0.0,0.0,0.0,0.0,0.0,0.0,0.0,0.0,0.0,0.0,0.0,0.0,0.0,0.0,0.0,0.0,0.0,0.0,0.0,0.0,0.0,0.0,0.0,0.0,1.5188,1.7362,1.9279,2.0366,2.052,2.0426,2.0243,1.8861,1.7461,1.6211,1.3234,0.0,0.0,0.0,0.0,0.0,0.0,0.0,0.0,0.0,0.0,0.0,0.0,0.0,0.0,0.0,0.0,0.0,0.0,0.0,0.0,0.0,0.0,0.0,0.0,0.0,0.0,0.0,0.0,0.0,0.0,0.0,0.0,0.0,0.0,0.0,0.0,0.0,0.0,0.0,0.0,0.0,0.0,0.0,0.0,0.0,0.0,0.0,0.0,0.0,0.0,0.0,0.0,0.0,0.0,0.0,0.0,0.0,0.0,0.0,0.0,1.4582,0.0,0.0,0.0,0.0,0.0,0.0,0.0,0.0,0.0,0.0,0.0,0.0,0.0,0.0,0.0,0.0,0.0,0.0,0.0,0.0,0.0,0.0,0.0,0.0,0.0,0.0,0.0,0.0,0.0,0.0,0.0,0.0,0.0,0.0,0.0,0.0,0.0,0.0,0.0,0.0,1.5747,1.7801,1.9511,2.0388,2.0451,2.0472,2.0491,1.9302,1.8032,1.6795,1.457,0.0,0.0,0.0,0.0,0.0,0.0,0.0,0.0,0.0,0.0,0.0,0.0,0.0,0.0,0.0,0.0,0.0,0.0,0.0,0.0,0.0,0.0,0.0,0.0,0.0,0.0,0.0,0.0,0.0,0.0,0.0,0.0,0.0,0.0,0.0,0.0,0.0,0.0,0.0,0.0,0.0,0.0,0.0,0.0,0.0,0.0,0.0,0.0,0.0,0.0,0.0,0.0,0.0,1.8319,1.8351,1.8246,1.8962,1.936,1.9371,1.8012,1.761,1.7771,1.6111,0.0,0.0,0.0,0.0,0.0,0.0,0.0,0.0,0.0,0.0,0.0,0.0,0.0,0.0,0.0,0.0,0.0,0.0,0.0,0.0,0.0,0.0,0.0,0.0,1.9608,1.8875,1.5832,0.0,0.0,0.0,0.0,0.0,0.0,0.0,0.0,0.0,0.0,0.0,1.6571,1.8304,1.9658,2.0382,2.0417,2.0431,2.0469,1.9691,1.8623,1.7217,1.5975,1.4061,0.0,0.0,0.0,0.0,0.0,0.0,0.0,0.0,0.0,0.0,0.0,0.0,0.0,0.0,0.0,0.0,0.0,0.0,0.0,0.0,0.0,0.0,0.0,0.0,0.0,0.0,0.0,0.0,0.0,0.0,0.0,0.0,1.2157,1.2941,0.0,0.0,0.0,0.0,0.0,0.0,0.0,0.0,0.0,0.0,0.0,0.0,0.0,1.8457,1.933,2.084,2.1212,2.0555,2.1941,2.2222,2.1587,2.1627,2.2054,2.2765,2.2551,0.0,1.9353,1.7764,0.0,0.0,0.0,0.0,0.0,0.0,0.0,0.0,0.0,0.0,0.0,0.0,0.0,0.0,0.0,0.0,0.0,0.0,0.0,0.0,0.0,0.0,2.1652,2.1125,2.1585,2.1792,0.0,1.8259,1.6334,1.5843,1.4753,0.0,0.0,0.0,0.0,0.0,0.0,0.0,1.7433,1.9015,2.0171,2.039,2.0398,2.04,2.0408,1.9657,1.9107,1.8879,1.6677,1.5192,1.4714,1.2668,0.0,0.0,0.0,0.0,0.0,0.0,0.0,0.0,0.0,0.0,0.0,0.0,0.0,0.0,0.0,0.0,0.0,0.0,0.0,0.0,0.0,0.0,0.0,0.0,0.0,0.0,0.0,0.0,0.0,1.1483,1.2741,1.3548,1.375,1.3798,0.0,0.0,0.0,0.0,0.0,0.0,0.0,0.0,0.0,1.9787,2.028,2.1144,2.2491,2.3644,2.428,2.4363,2.507,2.5248,2.4895,2.4875,2.5053,2.5426,2.5406,2.4837,2.3649,2.1173,1.9597,1.8631,0.0,0.0,0.0,0.0,1.767,1.7833,1.9152,1.9407,1.908,1.8873,0.0,0.0,0.0,0.0,0.0,0.0,0.0,0.0,0.0,0.0,2.2675,2.328,2.3711,2.3896,2.3475,2.1934,2.0011,0.0,1.7814,1.7196,1.4818,0.0,0.0,0.0,0.0,1.8199,1.9117,2.0664,2.1765,2.1857,2.1429,2.1114,2.1114,2.0363,1.9666,1.9215,1.7722,1.6406,1.5423,1.3844,1.2299,0.0,0.0,0.0,0.0,0.0,0.0,0.0,0.0,0.0,0.0,0.0,0.0,0.0,0.0,0.0,0.0,0.0,0.0,0.0,0.0,0.0,0.0,0.0,0.0,0.0,0.0,0.0,0.0,1.2872,1.394,1.476,1.5584,1.604,0.0,0.0,0.0,0.0,0.0,0.0,1.9616,1.9863,2.0706,2.2371,2.299,2.3938,2.5164,2.5769,2.6375,2.7018,2.6967,2.6972,2.7018,2.6967,2.6963,2.6967,2.6976,2.7018,2.6803,2.4039,2.2164,2.0918,1.9944,1.9174,1.8768,2.0021,2.0242,2.016,2.1962,2.2265,2.1759,2.1218,2.0852,2.0359,1.9054,0.0,0.0,0.0,0.0,2.0393,2.2559,2.3079,2.3354,2.4667,2.4984,2.4984,2.4984,2.4471,2.318,0.0,2.0555,2.0134,1.7022,0.0,0.0,0.0,0.0,1.9994,2.0852,2.2074,2.2907,2.2969,2.2227,2.1717,2.1717,2.0915,2.0145,1.9557,1.8569,1.7417,1.613,1.479,1.3486,1.2186,0.0,0.0,0.0,0.0,0.0,0.0,0.0,0.0,0.0,0.0,0.0,0.0,0.0,0.0,0.0,0.0,0.0,0.0,0.0,0.0,0.0,0.0,0.0,0.0,0.0,0.0,0.0,0.0,0.0,1.8133,1.8893,0.0,0.0,0.0,0.0,1.8289,1.9701,2.1254,2.2885,2.3677,2.4855,2.6449,2.6586,2.6693,2.6767,2.6804,2.6898,2.7014,2.6935,2.694,2.7014,2.6935,2.6916,2.6916,2.6958,2.7014,2.687,2.519,2.4418,2.4194,2.2559,2.1927,2.1969,2.1987,2.2499,2.3184,2.3296,2.336,2.3496,2.4234,2.3404,2.2166,2.2088,2.1501,0.0,0.0,2.2602,2.3375,2.4339,2.4528,2.4538,2.4617,2.4621,2.4621,2.4621,2.4579,2.4343,0.0,2.2242,2.1114,2.0847,0.0,1.9908,2.0696,2.1015,2.1506,2.2365,2.2661,2.283,2.2898,2.2172,2.1709,2.1709,2.0911,2.042,2.0419,1.8882,1.7962,1.7852,1.5427,1.4056,1.3977,1.2212,0.0,0.0,0.0,0.0,0.0,0.0,0.0,0.0,0.0,0.0,0.0,0.0,0.0,0.0,0.0,0.0,0.0,0.0,0.0,0.0,0.0,0.0,0.0,0.0,0.0,0.0,0.0,0.0,1.9886,2.0729,0.0,2.0851,2.1235,2.1711,2.2232,2.3231,2.4288,2.5383,2.5725,2.6127,2.6708,2.677,2.7044,2.7604,2.7604,2.7879,2.8428,2.8407,2.837,2.8428,2.8438,2.8444,2.8449,2.851,2.8535,2.846,2.7312,2.6567,2.6098,2.5501,2.5252,2.5307,2.5248,2.5443,2.5726,2.5734,2.5718,2.5793,2.61,2.5776,2.5315,2.5315,2.5136,2.4952,2.5244,2.5153,2.5024,2.5315,2.5007,2.4584,2.4584,2.4584,2.4584,2.4584,2.4584,2.4538,2.4324,2.381,2.3041,2.1918,2.198,2.1917,2.1164,2.2088,2.2974,2.3383,2.3986,2.4406,2.4496,2.3784,2.3097,2.2517,2.1713,2.0791,1.9743,1.8562,1.7684,1.7186,1.574,1.4682,1.4099,1.3436,1.2114,0.0,0.0,0.0,0.0,0.0,0.0,0.0,0.0,0.0,0.0,0.0,0.0,0.0,0.0,0.0,0.0,0.0,0.0,0.0,0.0,0.0,0.0,0.0,0.0,0.0,0.0,2.0175,2.1563,2.2651,2.3309,2.3321,2.3945,2.4593,2.5148,2.5623,2.6207,2.6901,2.7306,2.7574,2.775,2.8044,2.8459,2.9052,2.8923,2.9191,2.9853,2.9853,2.9905,3.0002,3.0072,3.0083,3.0089,3.0133,3.0149,3.0112,2.9514,2.8994,2.8455,2.7382,2.6953,2.6953,2.6953,2.6953,2.6953,2.6953,2.6963,2.7014,2.7014,2.6985,2.6995,2.6995,2.6985,2.7018,2.699,2.6603,2.6179,2.6193,2.5778,2.5322,2.5028,2.4953,2.4916,2.4617,2.4584,2.4584,2.4584,2.4568,2.4248,2.3119,2.3454,2.3513,2.2397,2.3319,2.4184,2.4282,2.4873,2.53,2.5404,2.465,2.381,2.2961,2.2143,2.1068,1.9691,1.8546,1.7673,1.7145,1.6015,1.5114,1.4568,1.4182,1.2902,1.0643,0.0,0.0,0.0,0.0,0.0,0.0,0.0,0.0,0.0,0.0,0.0,0.0,0.0,0.0,0.0,0.0,0.0,0.0,0.0,0.0,0.0,0.0,0.0,1.9802,2.1164,2.2464,2.3312,2.4733,2.5676,2.5722,2.6364,2.6779,2.6779,2.6811,2.7052,2.7501,2.858,2.9421,2.992,3.0678,3.1078,3.1078,3.0742,3.0778,3.1071,3.1078,3.1277,3.1592,3.1604,3.1604,3.1604,3.161,3.161,3.161,3.161,3.161,3.1289,2.8226,2.7013,2.7013,2.7013,2.6976,2.6976,2.6981,2.7009,2.7084,2.7084,2.7075,2.7065,2.7065,2.7079,2.7056,2.7056,2.701,2.6958,2.7037,2.6977,2.6688,2.5908,2.5722,2.5536,2.4723,2.4574,2.4537,2.4537,2.4563,2.4584,2.4584,2.4584,2.4634,2.4674,2.487,0.0,2.5075,2.5268,2.5382,2.5389,2.4656,2.3809,2.2999,2.2159,2.129,2.0462,1.8831,1.7928,1.8004,1.6366,1.543,1.5425,1.4533,1.3255,1.1617,0.0,0.0,0.0,0.0,0.0,0.0,0.0,0.0,0.0,0.0,0.0,0.0,0.0,0.0,0.0,0.0,0.0,0.0,0.0,0.0,0.0,0.0,2.2152,2.2237,2.3116,2.4273,2.5606,2.6127,2.6408,2.6423,2.7664,2.8437,2.8437,2.9497,3.0167,3.0283,3.0607,3.0834,3.0992,3.0956,3.0944,3.0944,3.0636,3.0484,3.0614,3.0841,3.0991,3.1085,3.1384,3.1532,3.1538,3.1592,3.161,3.161,3.161,3.161,3.1499,3.0653,2.9956,2.9438,2.9438,2.9079,2.8582,2.8665,2.867,2.8687,2.8733,2.8758,2.8731,2.8731,2.8721,2.8753,2.8726,2.8264,2.7761,2.7776,2.7362,2.6832,2.6614,2.6577,2.6502,2.6279,2.5796,2.535,2.535,2.4926,2.4534,2.4534,2.4534,2.4538,2.4551,2.4584,0.0,2.4919,2.4984,2.5149,2.5353,2.5202,2.4711,2.3847,2.3,2.1933,2.048,1.8772,1.7873,1.7999,1.6911,1.6328,1.6326,1.546,1.4778,0.0,0.0,0.0,0.0,0.0,0.0,0.0,0.0,0.0,0.0,0.0,0.0,0.0,0.0,0.0,0.0,0.0,0.0,0.0,0.0,0.0,0.0,2.3356,2.4746,2.5129,2.5282,2.5827,2.7084,2.7511,2.7833,2.8164,2.9336,3.0031,3.0007,3.0852,3.129,3.1147,3.1567,3.1763,3.1664,3.1749,3.183,3.1866,3.1513,3.1436,3.1612,3.1794,3.1951,3.2124,3.2367,3.2463,3.2463,3.2501,3.252,3.252,3.252,3.252,0.0,0.0,0.0,0.0,0.0,3.0618,3.0229,3.0296,3.0074,2.9787,2.9826,2.9582,2.9334,2.9334,2.9334,2.9334,2.9334,2.8958,2.855,2.855,2.8216,2.7766,2.7427,2.7348,2.7274,2.6904,2.6454,2.6121,2.6121,2.5463,0.0,2.4912,2.4692,2.453,2.4576,2.4576,2.4696,2.4978,2.5019,2.51,2.532,2.536,2.5024,2.4167,2.367,0.0,0.0,0.0,1.8607,1.8037,1.7497,0.0,0.0,0.0,0.0,0.0,0.0,0.0,0.0,1.3854,1.4401,0.0,0.0,0.0,0.0,0.0,0.0,0.0,0.0,0.0,0.0,0.0,0.0,0.0,0.0,0.0,0.0,2.5446,2.7232,2.8047,2.7622,2.7459,2.818,2.88,2.9551,3.0324,3.1078,3.1487,3.1423,3.1527,3.1439,3.1124,0.0,0.0,0.0,0.0,3.3101,3.3065,3.2778,3.2818,3.328,3.3316,3.3546,3.3989,3.403,3.4043,3.4037,3.3984,3.3947,3.3903,3.3844,3.3807,3.3673,3.2244,3.1697,3.1697,3.1635,3.1598,3.1592,3.1604,0.0,0.0,3.0533,2.9991,2.9337,2.9337,2.9268,2.9194,2.9194,2.9194,2.9194,2.9194,2.9194,2.9004,2.8318,2.8128,2.7907,2.7158,2.6895,2.6858,2.6858,2.6204,2.5595,2.5545,2.4953,2.4522,2.4678,2.4681,2.4834,2.5153,2.5126,2.5154,2.5295,0.0,0.0,2.4319,2.4138,2.348,2.1996,2.1147,1.9973,1.8347,1.8396,1.8358,1.8159,1.8162,1.8233,1.8271,1.8333,1.8387,1.8437,1.661,1.6601,0.0,0.0,0.0,0.0,0.0,0.0,0.0,0.0,0.0,0.0,0.0,0.0,0.0,0.0,0.0,2.5586,2.7384,2.8832,2.9634,3.0149,3.0253,2.9829,2.9849,3.0216,3.1028,3.1763,3.2185,3.2208,3.2798,3.3142,3.3072,3.3267,3.3234,3.2903,3.3045,3.2814,3.2231,3.247,3.2805,3.324,0.0,0.0,3.519,3.552,3.5616,3.5549,3.4985,3.4749,3.4627,3.4037,3.3807,3.3697,3.2762,3.2401,3.2334,3.1728,3.1501,3.1446,3.158,3.1463,3.1311,3.137,3.0834,3.017,3.017,2.9701,0.0,2.9194,2.9194,2.9194,2.9194,2.9194,2.9157,2.9004,2.8967,2.893,2.874,2.8212,2.7754,2.7754,2.7047,2.6322,2.5819,2.4998,2.4449,2.4599,2.4688,2.4786,2.5086,2.5115,2.5154,2.5295,2.5332,2.53,2.5082,2.4489,2.3951,2.3655,2.2923,2.1733,2.0108,2.0722,2.0498,1.9091,1.9724,2.0078,2.0117,2.074,2.1397,2.2044,1.9578,1.9011,0.0,0.0,0.0,0.0,0.0,0.0,0.0,0.0,0.0,0.0,0.0,2.1275,2.328,0.0,2.6454,2.7594,2.9122,3.0302,3.0674,3.1051,3.1142,3.0772,3.1038,3.1395,3.1803,3.2543,3.2976,3.2941,3.3305,3.3553,3.3509,3.3866,3.4017,3.3867,3.4241,3.4287,3.3958,3.4118,3.4357,3.4604,3.4935,3.531,3.5755,3.5948,3.6016,3.5971,3.5652,3.5477,3.5418,3.5103,3.4699,3.4296,3.3927,3.3573,3.3146,3.2775,3.2621,3.2608,3.2672,3.2409,3.2052,3.209,3.155,3.0894,3.0894,3.0605,3.0206,2.9795,2.9684,2.961,2.92,2.9089,2.9089,2.9089,2.9089,2.9089,2.9089,2.8784,2.8484,2.8484,2.7821,2.7153,2.6849,2.5838,2.4985,2.4749,2.4688,2.4765,2.5022,2.5056,2.5103,2.5257,2.5285,2.5295,2.5288,2.455,2.4097,2.4119,2.3379,2.2584,2.1771,2.2183,2.2043,2.1237,2.1632,2.1831,2.1834,2.2265,2.2656,2.3078,2.2195,2.2055,0.0,0.0,0.0,0.0,0.0,0.0,0.0,1.9593,2.0223,2.2372,2.3335,2.4243,2.5809,2.7726,2.9149,2.9415,3.0601,3.1514,3.1514,3.1601,3.1684,3.1707,3.2128,3.2452,3.2598,3.318,3.3553,3.3488,3.3633,3.3677,3.3647,3.44,3.4803,3.4705,3.5418,3.5744,3.5652,3.5744,3.588,3.6087,3.6087,3.6228,3.6435,3.6451,3.6451,3.6435,3.6269,3.6138,3.6008,3.6054,3.5711,3.5126,3.5183,3.4706,3.3986,3.3837,3.3807,3.3807,3.3807,3.336,3.2839,3.2839,3.2302,3.1647,3.1647,3.1537,3.1244,3.0613,3.043,3.024,2.9427,2.9244,2.9207,2.9023,2.8981,2.8981,2.8981,2.8981,2.8981,2.8981,2.8479,2.7987,2.7878,2.6876,2.5855,2.5118,2.4817,2.4787,2.5009,2.504,2.508,2.5182,2.5192,2.52,2.5262,2.4673,2.4292,2.4315,2.3719,2.3323,2.323,2.3243,2.3191,2.3107,2.3262,2.3346,2.3356,2.3509,2.3591,2.3632,2.4293,2.4552,1.8969,1.8919,1.935,2.0862,2.1295,2.1934,0.0,2.4591,2.4895,2.5857,2.6146,2.6691,2.8295,2.8774,2.9399,3.082,3.1737,3.2267,3.2267,3.2832,3.3269,3.324,3.2717,3.2594,3.3299,3.3386,3.3415,3.3408,3.4052,3.448,3.4472,3.5232,3.5495,3.5136,3.5551,3.5509,3.4845,3.5501,3.6,3.6343,3.6719,3.7265,3.7954,3.8028,3.802,3.7926,3.7273,3.6609,3.6,3.6015,3.5942,3.5869,3.5877,3.5418,3.4637,3.4016,3.3807,3.3807,3.3807,3.3733,3.366,3.366,3.3103,3.2479,3.2479,3.1971,3.1397,3.128,3.128,3.1097,3.0283,3.0057,2.9873,2.917,2.8981,2.8981,2.8981,2.8981,2.8981,2.8981,2.8913,2.8676,2.808,2.7738,2.7167,2.5972,2.5307,2.5013,2.5154,2.5174,2.5176,2.519,2.5192,2.5192,2.5195,2.5124,2.5091,2.5063,2.5038,2.4727,2.4092,2.4118,2.3824,2.3091,2.3861,2.4259,2.4243,2.4962,2.5359,2.5423,2.5457,2.5078,2.1385,2.1835,2.2457,2.3598,2.4265,2.489,2.5888,2.6109,2.6476,2.7739,2.7602,2.7872,2.996,3.0277,3.0598,0.0,3.2575,3.3036,3.3036,3.3263,3.3263,3.2791,3.2857,3.3067,3.3408,3.3408,3.361,3.4074,3.44,3.4798,3.5269,3.6073,3.6415,3.6248,3.6877,3.7036,3.6727,3.7036,3.7275,3.7437,3.7617,3.7865,3.8182,3.8224,3.8216,3.8182,3.7861,3.7568,3.7265,3.7305,3.7075,3.6646,3.6692,3.6197,3.5403,3.4716,3.4142,3.3753,3.3793,3.3807,3.3807,3.3807,3.3587,3.3293,3.3293,3.3073,3.2712,3.2228,3.2118,3.1825,3.054,3.021,2.9983,2.9207,2.8981,2.8981,2.8981,2.8981,2.8981,2.8981,2.9106,2.9084,2.8793,2.8496,2.806,2.7548,2.6356,2.539,2.5051,2.5138,2.5187,2.5187,2.5198,2.5209,2.5209,2.5184,2.5192,2.5192,2.5237,2.5108,2.4839,2.4911,2.4782,2.4488,2.4893,2.5102,2.5116,2.5452,2.5612,2.563,2.5598,2.5417,2.3157,2.3892,2.4711,2.5526,2.6324,2.6943,2.6943,2.7084,2.7592,2.8744,2.8489,2.8637,3.0563,3.1084,3.1432,3.2233,3.2978,3.3546,3.3764,3.3567,3.3284,3.2886,3.3176,3.3502,3.3719,3.3712,3.4074,3.487,3.5124,3.553,3.6101,3.6878,3.7321,3.7321,3.7901,3.8182,3.8182,3.8182,3.8182,3.8182,3.8182,3.8182,3.8182,3.8182,3.8182,3.8182,3.8182,3.8182,3.8191,3.8249,3.7947,3.7411,3.7467,3.6973,3.6209,3.571,3.4885,3.4,3.4055,3.3929,3.3746,3.3746,3.3746,3.3753,3.3773,3.378,3.3633,3.3096,3.2919,3.2626,3.1231,3.0864,3.0607,2.9574,2.9317,2.928,2.9054,2.8981,2.8981,2.8981,2.9134,2.9238,2.9307,2.9031,2.8756,2.8623,2.7476,2.6329,2.5439,2.5246,2.5191,2.5191,2.5208,2.5181,2.5181,2.5198,2.5209,2.5209,2.5209,2.5219,2.5314,2.5331,2.5406,2.549,2.5555,2.5578,2.5601,2.5588,2.5586,2.5593,2.561,2.5618,2.4049,2.4711,2.5563,2.6355,2.7163,2.7756,2.7756,2.8369,2.8933,2.8923,2.8868,2.9107,2.9886,3.0605,3.1358,3.2172,3.2907,3.3683,3.448,3.39,3.3675,3.4436,3.3864,3.3719,0.0,3.4544,3.4906,3.5695,3.648,3.6959,3.6959,3.772,3.8154,3.8154,3.8191,3.8182,3.8182,3.8182,3.8182,3.8182,3.8182,3.8182,3.8182,3.8182,3.8182,3.8182,3.8182,3.8182,3.8182,3.8191,3.8191,3.8154,3.8154,3.7692,3.6975,3.7019,3.6071,3.4783,3.4783,3.4243,3.3594,3.3594,3.3594,3.3608,3.3678,3.3698,3.3719,3.375,3.377,3.3587,3.2736,3.2516,3.2149,3.0534,3.0167,2.9947,2.917,2.8981,2.8981,2.8981,2.8992,2.9072,2.928,2.929,2.9132,2.8662,2.8559,2.8009,2.653,2.5682,2.5191,2.5191,2.5191,2.5191,2.5191,2.5194,2.5194,2.5194,2.5194,2.5231,2.5311,2.5316,2.5373,2.5499,2.5505,2.5546,2.5601,2.5593,2.5581,2.5609,2.5581,2.5605,2.4819,2.6222,2.7731,2.7981,2.9083,2.9929,2.9387,2.9454,2.9667,2.9612,2.8743,2.8379,2.9695,2.9661,2.987,3.1225,3.2074,3.2886,3.3683,3.3574,3.3284,3.3031,3.3719,0.0,0.0,0.0,0.0,3.6443,3.6363,3.6906,3.8508,3.8834,3.9233,3.9722,3.9731,3.9731,3.9731,3.9731,3.9478,3.8979,3.8472,3.8182,3.8182,3.8182,3.8182,3.8182,3.8182,3.8182,3.8182,3.8182,3.8182,3.8182,3.8182,3.8037,3.7792,3.7817,3.7152,3.6139,3.5147,3.463,3.4309,3.3769,3.3587,3.3587,3.3615,3.3622,3.3629,3.3657,3.3664,3.3474,3.27,3.2474,3.2182,3.1135,3.0879,3.0654,2.982,2.9673,2.9564,2.9143,2.9117,2.9179,2.9338,2.9565,2.9494,2.8881,2.7851,2.6956,2.6476,2.5685,2.5191,2.5191,2.5191,2.5191,2.5191,2.5191,2.5191,2.5191,2.5191,2.5228,2.5306,2.5325,2.5402,2.5498,2.5523,2.5594,2.5591,2.561,2.5605,2.5617,2.5605,2.56,2.6291,2.7796,2.9302,2.96,3.0444,3.0991,3.0195,2.9983,2.9831,2.9229,2.8245,2.7731,2.8427,2.8341,2.8781,3.0683,3.1444,3.2459,3.4415,3.3936,3.3538,3.3871,3.4588,3.5124,0.0,0.0,0.0,3.7285,3.7232,3.7775,3.9305,3.9659,4.0012,4.0483,4.0519,4.0519,4.0519,4.0519,4.0266,3.9804,3.926,3.8871,3.8617,3.8617,3.8472,3.8182,3.8182,3.8182,3.8182,3.8182,3.8182,3.8182,3.8182,3.8182,3.8182,3.8182,3.7865,3.7257,3.601,3.5211,3.4622,3.412,3.3756,3.3545,3.3574,3.3545,3.3552,3.358,3.3587,3.3478,3.2953,3.2844,3.2625,3.1823,3.1641,3.1422,3.0597,3.0414,3.0233,2.9556,2.9506,2.9534,2.9433,2.9681,2.9735,2.9296,2.8089,2.7058,2.6476,2.595,2.5532,2.5229,2.5191,2.5191,2.5191,2.5191,2.5191,2.5191,2.5191,2.5214,2.5266,2.5324,2.5357,2.5447,2.5527,2.5565,2.56,2.56,2.56,2.56,2.56,2.56,2.827,2.9398,3.0309,3.1051,3.1233,3.1058,3.0226,3.0007,2.9484,2.7821,2.7446,2.7132,2.63,2.6795,2.8135,3.0539,3.0973,3.2386,3.6379,3.4958,3.4371,0.0,0.0,0.0,0.0,0.0,0.0,3.8121,0.0,3.9378,3.9523,4.0193,4.0591,4.0628,4.0628,4.0628,4.0628,4.0591,4.0546,4.0546,4.051,4.0121,3.945,3.945,3.9052,3.8327,3.8291,3.8255,3.8263,3.8218,3.8182,3.8182,3.8182,3.8182,3.8182,3.8182,3.8182,3.8082,3.7321,3.6045,3.4725,3.4653,3.4146,3.3516,3.3553,3.3575,3.3553,3.3588,3.3573,3.3573,3.3573,3.3573,3.3391,3.2648,3.2472,3.2224,3.1416,3.124,3.1034,3.0202,3.0204,3.011,2.9507,2.9677,2.9872,2.9809,2.9258,2.8294,2.6737,2.6444,2.6103,2.5341,2.5229,2.5191,2.5191,2.5191,2.5191,2.5191,2.5191,2.5194,2.5197,2.5197,2.5277,2.5387,2.5393,2.5455,2.5597,2.5598,2.56,2.56,2.56,2.56,2.8516,3.0094,3.1703,3.1891,3.1964,3.1746,3.0919,2.9823,2.8686,2.7659,2.6462,2.5556,2.5358,2.5963,2.7308,2.9712,3.0611,0.0,3.5639,3.5594,0.0,3.685,0.0,3.7456,3.7644,3.7523,0.0,0.0,3.821,3.9269,4.1026,4.127,4.1678,4.2276,4.2276,4.2276,4.2276,4.1678,4.1379,4.1379,4.08,4.041,4.0229,4.0229,4.0121,3.9867,3.9333,3.9088,3.9052,3.8436,3.8182,3.8182,3.8182,3.8182,3.8182,3.8182,3.8182,3.8182,3.7973,3.724,3.6298,3.5703,3.5377,3.5088,3.4495,3.4321,3.4184,3.3626,3.3452,3.3452,3.3452,3.3452,3.3415,3.319,3.3253,3.3111,3.2144,3.2065,3.1922,3.1129,3.0625,3.0126,2.9625,2.9575,2.9666,2.9859,2.9715,2.9293,2.8363,2.7163,2.6329,2.6103,2.5571,2.5191,2.5191,2.5191,2.5191,2.5191,2.5191,2.522,2.5277,2.528,2.529,2.5389,2.5435,2.5472,2.554,2.5581,2.56,2.56,2.56,2.56,3.0525,3.2191,3.3719,3.3357,3.2995,3.235,3.0835,2.9511,2.8057,2.6216,2.5389,2.4701,2.365,2.4375,2.5932,0.0,0.0,0.0,3.5122,3.5583,3.5974,0.0,3.7837,0.0,3.7811,3.798,3.813,0.0,3.8331,3.9023,4.0354,4.1065,4.1641,4.2082,4.2442,4.2661,4.2749,4.2306,4.208,4.2089,4.1647,4.1212,4.0768,4.0768,4.0578,4.0219,0.0,3.9743,3.9689,3.9017,3.8726,3.8689,3.8327,3.8182,3.8182,3.8182,3.8182,3.8182,3.8182,3.7892,3.7393,3.6588,3.6101,3.5739,3.5261,3.487,3.4508,3.4037,3.3683,3.3393,3.3393,3.3393,3.3393,3.3393,3.3495,3.3435,3.297,3.2958,3.2843,3.2195,3.117,3.0352,3.0096,2.979,2.9631,2.9702,2.9805,2.9737,2.9368,2.8207,2.7259,2.6878,2.6149,2.5675,2.5675,2.54,2.5191,2.5191,2.5191,2.5211,2.5256,2.5258,2.5298,2.5339,2.5376,2.541,2.5441,2.5501,2.5523,2.5517,2.558,2.5588,3.2995,3.4581,3.5587,3.4653,3.3755,3.2488,3.0183,2.8757,2.7158,2.438,2.4194,2.394,2.2016,2.2817,2.4659,2.7278,0.0,3.0219,3.4938,3.5468,3.5945,3.7559,3.8298,3.8422,3.7763,3.8217,3.8555,3.8555,3.8555,3.869,3.8961,4.0237,4.1012,4.1109,4.1798,4.2282,4.256,4.256,4.256,4.256,4.256,4.2111,4.1252,4.1252,4.0885,4.0224,4.0274,4.0324,4.0271,3.9689,3.9408,3.9227,3.854,3.8232,3.8149,3.8149,3.8165,3.8182,3.8182,3.8182,3.8074,3.7393,3.6697,3.6101,3.5993,3.5486,3.4914,3.4798,3.419,3.3582,3.3575,3.3488,3.34,3.343,3.3437,3.3495,3.3657,3.3719,3.3596,3.3181,3.1922,3.09,3.0814,3.0295,2.9805,2.9687,2.9747,2.9816,2.9851,2.9199,2.8415,2.7653,2.6881,2.6467,2.6467,2.5847,2.5467,2.5353,2.5315,2.5276,2.5165,2.5165,2.52,2.5231,2.5241,2.5285,2.5355,2.5421,2.5441,2.5386,2.5598,2.5697,3.314,3.4581,3.545,3.3965,3.2488,3.0966,2.9222,2.6651,2.4483,2.3909,2.289,2.2197,2.2445,2.3216,2.4988,2.8625,0.0,0.0,0.0,0.0,3.6792,0.0,0.0,0.0,0.0,0.0,0.0,0.0,0.0,3.8038,3.9701,4.0042,4.0451,4.1074,4.1252,4.1629,4.2348,4.2348,4.2348,4.2348,4.2348,4.2267,4.2083,4.2083,4.2012,4.1859,4.1221,0.0,4.0873,4.0133,3.9427,3.8803,3.866,3.8331,3.7943,3.7943,3.8046,3.8182,3.8182,3.8182,3.8182,3.8046,3.7892,3.7675,3.6987,3.6697,3.6443,3.5776,3.5015,3.4445,3.4601,3.4004,3.3444,3.3601,3.3636,3.365,3.3691,3.384,3.3771,3.3211,3.2879,3.2482,3.1931,3.1184,3.0668,3.0658,3.0124,2.9734,2.9714,2.9125,2.8642,2.8491,2.7706,2.7217,2.7217,2.708,2.6746,2.6067,2.6029,2.5691,2.498,2.4942,2.4952,2.4968,2.5002,2.505,2.5068,2.5198,2.5239,2.5234,2.5933,2.6294,3.3737,3.5439,3.6544,3.4516,3.2814,3.0966,2.8527,2.5818,2.3583,2.2781,2.2016,2.1364,2.0898,2.208,2.3714,2.5596,2.6799,0.0,0.0,0.0,0.0,0.0,0.0,0.0,0.0,0.0,0.0,0.0,0.0,3.8441,3.8978,3.9803,4.044,4.0784,4.1163,4.1605,4.2111,4.2111,4.2111,4.2111,4.2111,4.2048,4.1941,4.1941,4.1941,4.1917,4.1632,4.1532,4.1471,4.079,4.0305,3.9886,3.9021,3.8542,3.8285,3.7998,3.7899,3.7934,3.8123,3.8123,3.8055,3.8157,3.8182,3.811,3.7756,3.7321,3.6922,3.6516,3.553,3.4611,3.4724,3.4091,3.3452,3.3643,3.3787,3.3867,3.3867,3.3992,3.4085,3.393,3.3552,3.3163,3.284,3.2062,3.1386,3.0968,3.056,3.019,2.9744,2.9403,2.9229,2.9229,2.847,2.7966,2.7966,2.7627,2.7237,2.6858,2.682,2.6631,2.6221,2.6183,2.6183,2.6183,2.6229,2.6253,2.6253,2.6352,2.6393,2.6416,2.6847,2.7048,3.4122,3.6113,3.7349,3.495,3.314,3.1111,2.7851,2.5138,2.2932,2.1692,2.1172,2.0589,1.9491,2.0884,2.2344,2.2855,2.4426,2.6794,0.0,0.0,0.0,0.0,0.0,0.0,0.0,0.0,0.0,0.0,0.0,0.0,3.8399,3.9578,4.0316,4.0502,4.1053,4.1516,4.182,4.182,4.182,4.182,4.182,4.1734,4.1604,4.1604,4.1604,4.1615,4.178,4.182,4.1806,4.1384,4.1111,4.0862,3.9572,3.8915,3.8581,3.8177,3.7819,3.764,3.7969,3.7995,3.7916,3.8072,3.8149,3.8182,3.8182,3.7756,3.7249,3.7249,3.6226,3.5103,3.5157,3.4409,3.3662,3.3679,3.39,3.4049,3.4049,3.4203,3.4416,3.4561,3.4095,3.3676,3.3676,3.2968,3.2175,3.1531,3.1119,3.0668,3.0039,2.9819,2.9706,2.9706,2.9121,2.8747,2.8747,2.8244,2.7826,2.7637,2.7599,2.7524,2.7376,2.7376,2.7376,2.7376,2.7376,2.7376,2.7376,2.7418,2.744,2.7456,2.7657,2.7774,3.3834,3.5724,3.6524,3.4117,3.2306,3.0258,2.697,2.3806,2.1491,2.1359,2.0106,1.925,1.9889,2.0679,2.1925,2.3987,2.503,2.7148,3.1561,0.0,0.0,0.0,0.0,0.0,0.0,0.0,0.0,0.0,0.0,0.0,3.9241,3.9347,3.9743,4.0467,4.0573,4.0924,4.1626,4.1626,4.1626,4.1626,4.1626,4.1615,4.1604,4.1604,4.1604,4.1604,4.1626,4.1626,0.0,4.1578,4.1143,4.0521,4.038,3.9544,3.8406,3.8354,3.8043,3.7595,3.7631,3.7775,3.7899,3.7916,3.8038,3.8182,3.8182,3.8146,3.8082,3.8082,3.7466,3.6826,3.7002,3.5765,3.4351,3.3826,3.3973,3.425,3.425,3.4439,3.4572,3.4588,3.4551,3.4476,3.4476,3.3832,3.3263,3.3188,3.1869,3.0856,3.0781,3.0152,2.9706,2.9706,2.9636,2.9603,2.9603,2.9537,2.9161,2.8358,2.8321,2.7987,2.7244,2.7207,2.7207,2.7207,2.7207,2.7207,2.7207,2.7219,2.7224,2.7257,2.7971,2.8408,3.2207,3.3988,3.491,3.2886,3.1218,2.9307,2.6551,2.3453,2.1192,2.1182,1.9896,1.9025,1.9817,2.0163,2.0925,2.2752,2.3259,2.4536,2.7744,0.0,0.0,0.0,0.0,0.0,0.0,0.0,0.0,0.0,0.0,0.0,4.0681,4.0681,4.0621,4.0502,4.0913,4.1288,4.1604,4.1604,4.1604,4.1604,4.1604,4.1604,4.1604,4.1604,4.1604,4.1604,4.1604,4.1604,0.0,4.1604,4.1429,4.1124,4.0678,4.0169,3.9548,3.8716,3.8206,3.7852,3.7681,3.7558,3.7585,3.7819,3.7872,3.7863,3.8123,3.8182,3.8182,3.8182,3.7611,3.7019,3.7116,3.6412,3.5482,3.462,3.4718,3.4907,3.4392,3.4376,3.4461,3.4567,3.4588,3.4588,3.4588,3.432,3.3944,3.3489,3.285,3.2212,3.1687,3.0936,3.041,3.041,3.0002,2.9706,2.9706,2.9706,2.9551,2.9209,2.9171,2.9026,2.873,2.8692,2.8692,2.8692,2.8692,2.8692,2.8692,2.8692,2.8692,2.8725,2.9026,2.9216,3.0455,3.216,3.3191,3.1742,3.0212,2.8455,2.6255,2.3328,2.1084,2.1074,1.9804,1.8931,1.9737,1.9972,2.0536,2.1876,2.2201,2.3207,2.5735,2.721,0.0,0.0,0.0,0.0,0.0,0.0,0.0,0.0,0.0,0.0,4.1604,4.1604,4.1358,4.0843,4.1323,4.1604,4.1604,4.1604,4.1604,4.1604,4.1604,4.1604,4.1604,4.1604,4.1604,4.1604,4.1604,4.1604,0.0,4.1604,4.1604,4.1569,4.1018,4.0678,4.0372,3.9392,3.8612,3.8063,3.7839,3.7567,3.7362,3.764,3.7685,3.764,3.7951,3.8063,3.8115,3.8165,3.7792,3.7285,3.7067,3.6881,3.653,3.5553,3.5667,3.5743,3.4959,3.4772,3.4738,3.4604,3.4588,3.4588,3.4588,3.4588,3.44,3.3832,3.3564,3.3188,3.2555,3.1762,3.1231,3.1231,3.0523,2.9964,2.9706,2.9706,2.9706,2.9706,2.9706,2.9706,2.9706,2.9706,2.9706,2.9706,2.9706,2.9706,2.9706,2.9706,2.9706,2.9706,2.9706,2.9706,2.882,3.0502,3.1643,3.0805,2.9405,2.775,2.6003,2.3212,2.0985,2.0999,1.9679,1.8788,1.9644,2.0333,2.1053,2.1885,2.261,2.4142,2.7245,2.8368,0.0,0.0,0.0,0.0,0.0,0.0,0.0,0.0,0.0,0.0,4.1604,4.1604,4.1604,4.1604,4.1604,4.1604,4.1604,4.1604,4.1604,4.1604,4.1604,4.1604,4.1604,4.1604,4.1604,4.1604,4.1604,4.1604,0.0,4.1604,4.1604,4.1604,4.1593,4.1159,4.0502,4.0467,3.9473,3.8083,3.8093,3.7741,3.7314,3.7314,3.742,3.7595,3.7595,3.7757,3.7934,3.8132,3.8182,3.8001,3.7212,3.7284,3.7363,3.6572,3.6746,3.6879,3.6047,3.5891,3.5634,3.4776,3.4588,3.4588,3.4588,3.4588,3.4588,3.4588,3.3907,3.3414,3.3376,3.263,3.2105,3.2105,3.1386,3.056,2.9781,2.9706,2.9706,2.9706,2.9706,2.9706,2.9706,2.9706,2.9706,2.9706,2.9706,2.9706,2.9706,2.9706,2.9706,2.9706,2.9706,2.9706,2.6223,2.7458,2.8181,2.7268,2.6667,2.6012,2.4956,2.2729,2.0861,2.085,1.9592,1.8909,2.0241,2.025,2.0831,2.319,2.3781,2.4442,2.591,0.0,0.0,0.0,0.0,0.0,0.0,0.0,0.0,0.0,0.0,0.0,4.1604,4.1604,4.1604,4.1604,4.1604,4.1604,4.1604,4.1604,4.1604,4.1604,4.1604,4.1604,4.1604,4.1604,4.1604,4.1604,4.1604,4.1604,4.1604,4.1604,4.1604,4.1604,4.1604,4.1464,4.1183,4.0678,4.0186,3.9649,3.9101,3.8904,3.8805,3.8389,3.8351,3.8364,3.8078,3.7872,3.7757,3.7934,3.8081,3.8146,3.7901,3.8036,3.8051,3.7365,3.7485,3.7536,3.685,3.6729,3.6466,3.5634,3.5484,3.5296,3.4701,3.4588,3.4588,3.4588,3.44,3.4207,3.4207,3.3494,3.3001,3.3001,3.2212,3.1386,3.0598,3.0002,2.9706,2.9706,2.9706,2.9706,2.9706,2.9706,2.9706,2.9706,2.9706,2.9706,2.9706,2.9706,2.9706,2.9706,2.9706,3.0002,2.4069,2.5169,2.5786,2.5474,2.4956,2.4394,2.3951,2.206,2.0374,2.0374,1.9391,1.8969,2.052,2.0409,2.0931,2.3424,2.3845,2.4337,2.5658,0.0,0.0,0.0,0.0,0.0,0.0,0.0,0.0,0.0,0.0,0.0,4.1604,4.1604,4.1604,4.1604,4.1604,4.1604,4.1604,4.1604,4.1604,4.1604,4.1604,4.1604,4.1604,4.1604,4.1604,4.1604,4.1604,4.1604,0.0,4.1604,4.1604,4.1604,4.1604,4.1604,4.1534,4.1089,4.0737,4.0432,3.993,3.9627,3.9418,3.9069,3.8786,3.8574,3.8106,3.7916,3.7864,3.7977,3.8089,3.8207,3.8307,3.8409,3.8436,3.8162,3.8278,3.8256,3.7598,3.7502,3.7292,3.6498,3.6122,3.5747,3.5184,3.4814,3.4588,3.4588,3.4588,3.4588,3.4588,3.417,3.3869,3.3869,3.3118,3.24,3.1907,3.1091,3.0607,3.0607,3.0607,3.0607,3.0607,3.0607,3.0452,3.0152,3.0152,3.0002,2.9706,3.0002,3.0152,3.0152,3.0452,3.0865,0.0,2.3424,2.4209,2.4822,2.3973,2.2955,2.2955,2.127,0.0,1.9701,1.9104,1.9074,2.059,2.0871,2.1393,2.299,2.33,2.4142,2.643,2.8325,0.0,0.0,0.0,0.0,0.0,0.0,0.0,0.0,0.0,0.0,4.1604,4.1604,4.1604,4.1604,4.1604,4.1604,4.1604,4.1604,4.1604,4.1604,4.1604,4.1604,4.1604,4.1604,4.1604,0.0,4.1604,4.1604,4.1604,4.1604,4.1604,4.1604,4.1604,4.1604,4.1604,4.1604,4.1159,4.0573,4.0573,4.0105,3.9473,3.9459,3.9015,3.8419,3.787,3.7926,3.8165,3.8165,3.8174,3.8241,3.8465,3.8491,3.8554,3.8855,3.9071,3.8999,3.8273,3.824,3.815,3.733,3.6573,3.6047,3.601,3.5264,3.4701,3.4701,3.4626,3.4588,3.4588,3.4588,3.4588,3.4588,3.3944,3.3489,3.3489,3.263,3.2105,3.2105,3.2105,3.2105,3.2105,3.2105,3.1767,3.1006,3.1006,3.0635,2.9856,3.0635,3.1006,3.1006,3.1767,3.2142,2.0188,0.0,2.1539,2.1141,2.1176,2.1358,0.0,2.0474,1.9701,1.9701,1.9561,1.9877,2.1428,2.1709,2.2406,2.4535,2.5377,2.6395,2.8122,0.0,0.0,0.0,0.0,0.0,0.0,0.0,0.0,0.0,0.0,4.1604,4.1604,4.1604,4.1604,4.1604,4.1604,4.1604,4.1604,4.1604,4.1604,4.1604,4.1604,4.1604,4.1604,4.1604,4.1604,4.1604,4.1604,4.1604,4.1604,4.1604,4.1604,4.1604,4.1604,4.1604,4.1604,4.1604,4.1499,4.1323,4.1323,4.1327,4.1206,4.0826,4.0279,3.9629,3.8887,3.8357,3.796,3.796,3.8072,3.8241,3.8465,3.8491,3.86,3.9013,3.9181,3.9195,3.922,3.9252,3.9057,3.8188,3.7887,3.7549,3.6917,3.6128,3.5597,3.5597,3.5039,3.4588,3.4588,3.4588,3.4588,3.4588,3.4438,3.4325,3.4325,3.2931,3.2105,3.2105,3.2105,3.2105,3.2105,3.2105,3.1992,3.1804,3.1804,3.1729,3.1541,3.1729,3.1804,3.1804,3.1992,3.2443,1.9034,1.9953,2.0801,2.076,2.0766,2.0907,2.1258,2.0474,1.9807,2.0123,2.0198,2.0585,2.1779,2.2265,2.3032,2.4618,2.5833,2.7623,0.0,0.0,0.0,0.0,0.0,0.0,0.0,0.0,0.0,0.0,0.0,4.1604,4.1604,4.1604,4.1604,4.1604,4.1604,4.1604,4.1604,4.1604,4.1604,4.1604,4.1604,4.1604,4.1604,4.1604,4.1604,4.1604,4.1604,4.1604,4.1604,4.1604,4.1604,4.1604,4.1604,4.1604,4.1604,4.1604,4.1604,4.1604,4.1604,4.1681,4.1671,4.1125,4.0734,4.0318,3.973,3.8995,3.8339,3.8111,3.8106,3.8241,3.8465,3.8491,3.8585,3.8949,3.9147,3.9256,3.9381,3.9521,3.9477,3.8982,3.8563,3.815,3.7737,3.6992,3.6466,3.6466,3.5747,3.5189,3.5189,3.4851,3.4588,3.4588,3.4588,3.4588,3.4588,3.3762,3.3236,3.3236,3.3236,3.3236,3.3236,3.3236,3.3081,3.2705,3.2292,3.2105,3.2105,3.2518,3.2705,3.2705,3.3081,3.3494,1.8653,1.9707,2.0942,2.1498,2.1223,2.0977,2.1674,2.0796,2.0058,2.0661,2.0907,2.1223,2.2019,2.2856,0.0,2.4519,2.6332,0.0,0.0,0.0,0.0,0.0,0.0,0.0,0.0,0.0,0.0,0.0,0.0,4.1604,4.1604,4.1604,4.1604,4.1604,4.1604,4.1604,4.1604,4.1604,4.1604,4.1604,4.1604,4.1604,4.1604,4.1604,4.1604,4.1604,0.0,0.0,4.1604,4.1604,4.1604,4.1604,4.1604,4.1604,4.1604,4.1604,4.1604,4.1604,4.1604,4.1604,4.1521,4.1071,4.0898,4.0815,4.0402,3.9829,3.9175,3.8514,3.8274,3.8241,3.8465,3.8523,3.8644,3.8884,3.9113,3.9269,3.9269,3.9426,3.9589,3.9589,3.8982,3.8488,3.8488,3.7818,3.7292,3.7292,3.6616,3.6085,3.6085,3.5452,3.4926,3.4814,3.4814,3.4738,3.4626,3.4588,3.4588,3.4588,3.4588,3.4588,3.4588,3.4588,3.4282,3.3601,3.2856,3.248,3.248,3.3231,3.3564,3.3601,3.4282,3.4588,1.9315,2.0128,2.0696,2.0193,2.0444,2.0836,2.0977,2.0801,2.0661,2.0766,2.1328,2.2054,2.278,2.4078,2.5307,0.0,0.0,0.0,0.0,0.0,0.0,0.0,0.0,0.0,0.0,0.0,0.0,0.0,0.0,4.1604,4.1604,4.1604,4.1604,4.1604,4.1604,4.1604,4.1604,4.1604,4.1604,4.1604,4.1604,4.1604,4.1604,4.1604,4.1604,4.1604,0.0,4.1604,4.1604,4.1604,4.1604,4.1604,4.1604,4.1604,4.1604,4.1604,4.1604,4.1604,4.1604,4.1604,4.1604,4.1497,4.1603,4.1587,4.0906,4.075,4.0519,3.9238,3.856,3.8241,3.8465,3.8683,3.8892,3.912,3.9342,3.954,3.954,3.9571,3.9589,3.9589,3.9477,3.9401,3.9401,3.8682,3.8112,3.8112,3.7442,3.6922,3.6922,3.6804,3.6466,3.5784,3.5709,3.5409,3.4663,3.4588,3.4588,3.4588,3.4588,3.4588,3.4588,3.4588,3.4551,3.4438,3.4288,3.4213,3.4213,3.4363,3.4438,3.4438,3.4551,3.4588,1.8964,1.9917,2.0731,2.0374,2.1176,2.216,2.2587,2.2699,2.2804,2.3213,2.3564,2.3944,2.4289,0.0,2.8087,0.0,0.0,0.0,0.0,0.0,0.0,0.0,0.0,0.0,0.0,0.0,0.0,0.0,0.0,0.0,4.1604,4.1604,4.1604,4.1604,4.1604,4.1604,4.1604,4.1604,4.1604,4.1604,4.1604,4.1604,4.1604,4.1604,4.1604,4.1604,0.0,4.1604,4.1604,4.1604,4.1604,4.1604,4.1604,4.1604,4.1604,4.1604,4.1604,4.1604,4.1604,4.1604,4.1604,4.1604,4.167,4.1698,4.1464,4.119,4.0826,4.0285,3.9527,3.8766,3.8413,3.8614,3.8914,3.9021,3.9222,3.9407,3.9564,3.9589,3.9589,3.9589,3.9589,3.9589,3.9589,3.9289,3.8982,3.8982,3.8306,3.7737,3.7737,3.7367,3.696,3.6579,3.6541,3.6391,3.5978,3.594,3.5565,3.4663,3.4588,3.4588,3.4588,3.4588,3.4588,3.4588,3.4588,3.4588,3.4588,3.4588,3.4588,3.4588,3.4588,3.4588,1.8723,1.9777,2.0836,2.1047,2.2089,2.3412,2.4583,2.4695,2.4941,2.6226,2.6367,2.6149,0.0,2.7736,0.0,0.0,0.0,0.0,0.0,0.0,0.0,0.0,0.0,0.0,0.0,0.0,0.0,0.0,0.0,0.0,4.1604,4.1604,4.1604,4.1604,4.1604,4.1604,4.1604,4.1604,4.1604,4.1604,4.1604,4.1604,4.1604,4.1604,4.1604,4.1604,4.1604,4.1604,4.1604,4.1604,4.1604,4.1604,4.1604,4.1604,4.1604,4.1604,4.1604,4.1604,4.1604,4.1604,4.1604,4.1604,4.1604,4.1637,4.1766,4.1432,4.0979,4.1029,4.0497,3.9744,3.8732,3.8839,3.9201,3.9008,3.914,3.9349,3.9558,3.9589,3.9589,3.9589,3.9589,3.9589,3.9589,3.9589,3.9589,3.9589,3.902,3.8601,3.8601,3.8081,3.7598,3.7405,3.7367,3.7292,3.711,3.711,3.6541,3.5264,3.5001,3.4814,3.4626,3.4588,3.4588,3.4588,3.4588,3.4588,3.4588,3.4588,3.4588,3.4588,3.4572,3.4577,1.942,2.0198,2.0977,2.1715,2.2505,2.3686,2.5932,2.5875,2.6156,2.9133,2.9168,2.8403,2.7666,2.8895,0.0,0.0,0.0,0.0,0.0,0.0,0.0,0.0,0.0,0.0,0.0,0.0,0.0,0.0,0.0,0.0,4.1604,4.1604,4.1604,4.1604,4.1604,4.1604,4.1604,4.1604,4.1604,4.1604,4.1604,4.1604,4.1604,4.1604,4.1604,4.1604,4.1604,4.1604,4.1604,4.1604,4.1604,4.1604,4.1604,4.1604,4.1604,4.1604,4.1604,4.1604,4.1604,4.1604,4.1604,4.1604,4.1604,4.1604,4.1615,4.1591,4.1459,4.0969,4.1221,4.1276,3.9707,3.981,4.0109,3.9344,3.9375,3.9577,3.9589,3.9589,3.9589,3.9589,3.9589,3.9589,3.9589,3.9589,3.9589,3.9589,3.9552,3.9514,3.9514,3.9439,3.9095,3.83,3.8219,3.7925,3.7148,3.711,3.7035,3.6922,3.6203,3.5446,3.4626,3.4588,3.4588,3.4588,3.4588,3.4588,3.4588,3.4588,3.4588,3.4588,3.4534,3.4534,1.8859,2.0234,2.1498,2.1293,2.2897,2.5026,2.6851,2.7834,2.9063,3.1687,3.1625,3.1107,3.129,0.0,0.0,0.0,0.0,0.0,0.0,0.0,0.0,0.0,0.0,0.0,0.0,0.0,0.0,0.0,0.0,4.1604,4.1604,4.1604,4.1604,4.1604,4.1604,4.1604,4.1604,4.1604,4.1604,4.1604,4.1604,4.1604,4.1604,4.1604,4.1604,4.1604,4.1604,4.1604,4.1604,4.1604,4.1604,4.1604,4.1604,4.1604,4.1604,4.1604,4.1604,4.1604,4.1604,4.1604,4.1604,4.1604,4.1604,4.1659,4.1906,4.1799,4.1611,4.1657,4.2053,4.2114,4.0552,4.0688,4.1143,4.0838,4.0422,4.0142,4.0309,3.9965,3.9589,3.9589,3.9589,3.9589,3.9589,3.9589,3.9589,3.9589,3.9589,3.9589,3.9589,3.9589,3.9477,3.9132,3.9095,3.8982,3.8688,3.865,3.8425,3.7887,3.7104,3.6504,3.6166,3.6166,3.6166,3.6166,3.5638,3.5578,3.6097,3.5544,3.5558,3.6039,3.6015,3.6021,1.8899,2.0409,2.192,2.1598,2.3664,2.6297,2.8333,2.9667,3.1309,3.4318,3.4152,3.3845,3.5109,0.0,0.0,0.0,0.0,0.0,0.0,0.0,0.0,0.0,0.0,0.0,0.0,0.0,0.0,0.0,4.1253,4.1358,4.1604,4.1604,4.1604,4.1604,4.1604,4.1604,4.1604,4.1604,4.1604,4.1604,4.1604,4.1604,4.1604,4.1604,4.1604,4.1604,4.1604,4.1604,4.1604,4.1604,4.1604,4.1604,4.1604,4.1604,4.1604,4.1604,4.1604,4.1604,4.1604,4.1604,4.1604,4.1604,4.1604,4.1659,4.1949,4.1917,4.1852,4.2123,4.2621,4.2849,4.1799,4.1846,4.2109,4.1848,4.1339,4.0945,4.1159,4.0553,3.9959,3.9959,3.9777,3.9589,3.9589,3.9589,3.9589,3.9589,3.9589,3.9589,3.9589,3.9589,3.9589,3.9589,3.9589,3.9589,3.9589,3.9589,3.9364,3.8751,3.8193,3.7624,3.7075,3.7069,3.7064,3.7046,3.6437,3.6407,3.6968,3.6365,3.6347,3.6901,3.6883,3.6883,1.9701,2.0825,2.2201,2.2955,2.4879,2.7413,3.0518,3.1255,3.2546,3.7171,3.689,3.6539,3.8855,3.7416,0.0,0.0,0.0,0.0,0.0,0.0,0.0,0.0,0.0,0.0,0.0,0.0,0.0,4.0421,4.0502,4.0808,4.1558,4.1593,4.1604,4.1604,4.1604,4.1604,4.1604,4.1604,4.1604,4.1604,4.1604,4.1604,4.1604,4.1604,4.1604,4.1604,4.1604,4.1604,4.1604,4.1604,4.1604,4.1604,4.1604,4.1604,4.1604,4.1604,4.1604,4.1604,4.1604,4.1604,4.1604,4.1604,4.1604,4.1604,4.1604,4.1895,4.2216,4.2216,4.283,4.3487,4.3487,4.3347,4.2997,4.2136,4.1958,4.1998,4.1998,4.1373,4.0816,4.0816,4.0146,3.9589,3.9589,3.9589,3.9589,3.9589,3.9589,3.9589,3.9589,3.9589,3.9589,3.9589,3.9589,3.9589,3.9589,3.9589,3.9589,3.9589,3.9589,3.8845,3.7111,3.703,3.7,3.6945,3.6938,3.6901,3.6938,3.6901,3.6901,3.6938,3.6833,3.6845,1.9842,2.1206,2.3096,2.4394,2.6044,2.8473,3.2695,3.4056,3.5275,3.8329,3.9041,3.8981,3.855,3.8364,0.0,3.9487,0.0,0.0,0.0,0.0,0.0,0.0,0.0,0.0,0.0,0.0,3.8576,3.939,3.9949,4.0355,4.0666,4.1077,4.1391,4.1593,4.1515,4.1504,4.1604,4.1604,4.1604,4.1604,4.1604,4.1604,4.1604,4.1604,4.1604,4.1604,4.1604,4.1604,4.1604,4.1604,4.1604,4.1604,4.1604,4.1604,4.1604,4.1604,4.1604,4.1604,4.1604,4.1604,4.1604,4.1604,4.1604,4.1659,4.1949,4.2102,4.2277,4.2541,4.3023,4.343,4.343,4.3667,4.3863,4.3623,4.3201,4.2837,4.2837,4.2196,4.1485,4.0929,4.0591,4.0259,3.9702,3.9589,3.9589,3.9589,3.9589,3.9589,3.9589,3.9589,3.9589,3.9589,3.9589,3.9589,3.9589,3.9589,3.9589,3.9589,3.9589,3.9333,3.8765,3.8765,3.8733,3.8669,3.8021,3.7945,3.8504,3.7899,3.7879,3.8437,3.8417,3.8417,2.1393,2.2546,2.4085,2.6262,2.7947,3.0413,3.539,3.711,3.8164,3.9873,4.0386,4.027,3.9564,3.935,0.0,0.0,0.0,0.0,0.0,0.0,0.0,0.0,0.0,0.0,0.0,3.8251,3.8585,3.9441,3.994,4.0368,4.0793,4.1146,4.1413,4.1593,4.1526,4.1526,4.1604,4.1604,4.1604,4.1604,4.1604,4.1604,4.1604,4.1604,4.1604,4.1604,4.1604,4.1604,4.1604,4.1604,4.1604,4.1604,4.1604,4.1604,4.1604,4.1604,4.1604,4.1604,4.1604,4.169,4.1809,4.1659,4.1725,4.1852,4.1949,4.2195,4.2482,4.2734,4.3204,4.3635,4.3635,4.3876,4.4124,4.4252,4.3952,4.3629,4.3629,4.2983,4.2262,4.1852,4.1221,4.0596,4.014,3.9815,3.9589,3.9589,3.9589,3.9589,3.9589,3.9589,3.9589,3.9589,3.9589,3.9589,3.9589,3.9589,3.9589,3.9589,3.9589,3.9571,3.9527,3.9495,3.9431,3.934,3.8765,3.8687,3.9144,3.862,3.8637,3.9082,3.9082,3.9082,2.3507,2.4315,2.5222,2.8263,3.044,3.3108,3.8073,3.9908,4.0762,4.1442,0.0,4.0753,4.1275,4.0327,3.9602,0.0,0.0,0.0,0.0,0.0,0.0,0.0,0.0,0.0,0.0,3.8892,3.9236,4.0088,4.0239,4.0609,4.1442,4.1525,4.1571,4.1604,4.1593,4.1593,4.1604,4.1604,4.1604,4.1604,4.1604,4.1604,4.1604,4.1604,4.1604,4.1604,4.1604,4.1604,4.1604,4.1604,4.1604,4.1604,4.1604,4.1604,4.1604,4.1604,4.1604,4.1604,4.1604,4.1874,4.2144,4.1766,4.1949,4.2195,4.182,4.2236,4.2819,4.2847,4.337,4.3947,4.3978,4.3986,4.4039,4.4161,4.4244,4.4304,4.4304,4.3661,4.3116,4.3156,4.1965,4.09,4.0909,4.029,3.9808,3.9739,3.9664,3.9589,3.9589,3.9589,3.9589,3.9589,3.9589,3.9589,3.9589,3.9589,3.9589,3.9589,3.9589,3.9589,3.9589,3.9527,3.9418,3.9222,3.9215,3.9144,3.9082,3.9082,3.9082,3.9082,3.9082,3.9082,2.2341,2.4267,2.6711,2.9211,3.3248,3.6905,3.8041,3.9804,4.1238,4.1413,4.1308,4.1205,4.1231,4.0987,0.0,0.0,0.0,0.0,0.0,0.0,0.0,0.0,0.0,0.0,3.8672,3.875,3.892,3.9127,3.9671,4.0154,4.0574,4.0965,4.1347,4.1593,4.1504,4.1493,4.1604,4.1604,4.1604,4.1604,4.1604,4.1604,4.1604,4.1604,4.1604,4.1604,4.1604,4.1604,4.1604,4.1604,4.1604,4.1604,4.1604,4.1604,4.1604,4.1604,4.1604,4.1604,4.1604,4.1874,4.2195,4.2102,4.2332,4.2657,4.257,4.2667,4.2875,4.3186,4.3379,4.3602,4.3916,4.3986,4.4023,4.4047,4.4116,4.4222,4.4222,4.4117,4.3825,4.3153,4.2749,4.2322,4.1774,4.1526,4.1283,4.0929,4.0153,3.9589,3.9589,3.9589,3.9589,3.9589,3.9589,3.9589,3.9589,3.9589,3.9589,3.9589,3.9589,3.9589,3.9589,3.9577,3.9483,3.9286,3.9175,3.9096,3.9082,3.9082,3.9082,3.9082,3.9082,3.9082,2.2699,2.4548,2.6781,2.9878,3.4361,3.8051,3.8024,3.9717,4.1312,4.1244,4.129,4.1255,4.1175,0.0,0.0,0.0,0.0,0.0,0.0,0.0,0.0,0.0,0.0,0.0,3.971,3.9767,3.9824,3.9915,4.0262,4.055,4.0731,4.1012,4.1255,4.1493,4.1437,4.1471,4.1604,4.1604,4.1604,4.1604,4.1604,4.1604,4.1604,4.1604,4.1604,4.1604,4.1604,4.1604,4.1604,4.1604,4.1604,4.1604,4.1604,4.1604,4.1604,4.1604,4.1604,4.1604,4.1604,4.1874,4.2216,4.2216,4.2472,4.281,4.281,4.2941,4.3132,4.3327,4.3552,4.3726,4.3939,4.3986,4.3986,4.3986,4.4062,4.4093,4.4093,4.4131,4.4057,4.364,4.323,4.2841,4.2478,4.1914,4.125,4.0547,3.9965,3.9589,3.9589,3.9589,3.9589,3.9589,3.9589,3.9589,3.9589,3.9589,3.9589,3.9589,3.9589,3.9533,3.9362,3.9355,3.9342,3.9366,3.9236,3.9168,3.9082,3.9082,3.9082,3.9082,3.9082,3.9082,2.2769,2.4548,2.657,3.058,3.442,3.735,3.7853,3.9443,4.0793,4.0839,4.1024,4.1175,0.0,0.0,0.0,0.0,0.0,0.0,0.0,0.0,0.0,0.0,0.0,4.0894,4.0894,4.0906,4.0988,4.1082,4.1093,4.1152,4.1197,4.1186,4.1232,4.1369,4.138,4.1426,4.1538,4.1538,4.1549,4.1571,4.1593,4.1604,4.1604,4.1604,4.1604,4.1604,4.1604,4.1604,4.1604,4.1604,4.1604,4.1604,4.1604,4.1648,4.169,4.169,4.169,4.169,4.169,4.1955,4.2292,4.2292,4.2628,4.3014,4.3014,4.3195,4.3396,4.3464,4.3685,4.3908,4.3971,4.3986,4.3986,4.3986,4.3986,4.3986,4.3986,4.3986,4.4047,4.4153,4.361,4.3148,4.3155,4.2359,4.1406,4.0553,4.0409,4.039,4.0447,4.0409,4.0377,4.0377,4.0377,4.0114,3.9558,3.9521,3.9521,3.9521,3.9521,3.9381,3.9096,3.9082,3.9195,3.9349,3.9276,3.9195,3.9082,3.9082,3.9082,3.9082,3.9082,3.9082,2.0017,2.3312,2.7518,3.2073,3.3598,3.466,0.0,0.0,3.9281,0.0,4.0551,0.0,0.0,0.0,0.0,0.0,0.0,0.0,0.0,0.0,0.0,0.0,0.0,4.0894,4.0894,4.1011,4.107,4.1093,4.1093,4.1152,4.1197,4.114,4.114,4.122,4.1232,4.1243,4.1255,4.1255,4.13,4.1437,4.1549,4.1604,4.1604,4.1604,4.1604,4.1604,4.1604,4.1604,4.1604,4.1604,4.1604,4.1604,4.1604,4.1809,4.2123,4.2123,4.2123,4.2123,4.2123,4.2372,4.2724,4.2724,4.323,4.3852,4.3852,4.3635,4.3456,4.3836,4.3701,4.3569,4.3908,4.3986,4.3986,4.3986,4.3986,4.3986,4.3986,4.3986,4.4023,4.4002,4.4042,4.4005,4.3884,4.3952,4.3987,4.3888,4.3594,4.3513,4.3816,4.3587,4.3416,4.3416,4.3416,4.2262,3.9405,3.9181,3.9181,3.9181,3.9181,3.9161,3.9089,3.9082,3.9096,3.9124,3.9147,3.9133,3.9082,3.9082,3.9082,3.9082,3.9082,3.9082,2.0919,2.4043,2.7293,3.0148,3.2729,3.4789,3.5605,3.7306,3.8661,3.8513,0.0,0.0,0.0,0.0,0.0,0.0,0.0,0.0,0.0,0.0,0.0,0.0,0.0,4.0894,4.0894,4.093,4.1,4.1,4.1,4.0989,4.1047,4.0989,4.1058,4.114,4.114,4.1175,4.1209,4.1209,4.1266,4.1403,4.1459,4.1526,4.1604,4.1604,4.1604,4.1604,4.1604,4.1604,4.1604,4.1604,4.1604,4.1604,4.1604,4.1852,4.2216,4.2216,4.2332,4.2541,4.2541,4.2657,4.2847,4.3069,4.3361,4.3693,4.3931,4.3884,4.3758,4.3947,4.3876,4.3795,4.3947,4.3986,4.3986,4.3986,4.3986,4.3986,4.3986,4.3986,4.3986,4.3986,4.4062,4.4078,4.3994,4.4102,4.4229,4.4229,4.4079,4.4041,4.4214,4.4071,4.3986,4.3986,4.3986,4.3429,4.198,4.1869,4.1869,4.1869,4.1869,4.1014,3.9194,3.9082,3.9082,3.9082,3.9082,3.9082,3.9082,3.9082,3.9082,3.9082,3.9082,3.9082,2.108,2.3653,2.5813,2.7485,3.0697,3.3565,0.0,0.0,3.7398,0.0,0.0,0.0,0.0,0.0,0.0,0.0,0.0,0.0,0.0,0.0,0.0,0.0,0.0,4.0894,4.0894,4.0894,4.0894,4.0894,4.0894,4.0894,4.0894,4.0894,4.0964,4.1047,4.1047,4.1059,4.1117,4.1266,4.1402,4.1514,4.1582,4.1659,4.1734,4.1659,4.1604,4.1604,4.1725,4.1744,4.1755,4.1874,4.1917,4.1917,4.1917,4.2154,4.2501,4.2501,4.2705,4.2959,4.2959,4.2959,4.3005,4.33,4.3484,4.361,4.3908,4.3986,4.3986,4.3986,4.3986,4.3986,4.3986,4.3986,4.3986,4.3986,4.3986,4.3986,4.3986,4.3986,4.3986,4.3986,4.3986,4.3986,4.3986,4.3986,4.3986,4.3986,4.3986,4.3986,4.3986,4.3986,4.3986,4.3986,4.3986,4.3986,4.3986,4.3986,4.3986,4.3986,4.3986,4.2909,4.0457,4.0346,4.0346,4.0346,3.9528,3.9082,3.9082,3.9082,3.9082,3.9082,3.9082,3.9082,1.8479,2.0557,2.2745,2.4946,2.6697,2.8832,0.0,0.0,0.0,0.0,0.0,0.0,0.0,0.0,0.0,0.0,0.0,0.0,0.0,0.0,0.0,0.0,0.0,4.0894,4.0894,4.0894,4.0894,4.0894,4.0894,4.0894,4.0894,4.0894,4.0894,4.0906,4.0906,4.0906,4.0906,4.1401,4.1742,4.1871,4.2002,4.2107,4.2164,4.1766,4.1604,4.1626,4.1998,4.2175,4.2216,4.258,4.2743,4.2743,4.2743,4.2987,4.3327,4.3327,4.3344,4.3353,4.3353,4.3353,4.3361,4.3379,4.3652,4.3963,4.3978,4.3986,4.3986,4.3986,4.3986,4.3986,4.3986,4.3986,4.3986,4.3986,4.3986,4.3986,4.3986,4.3986,4.3986,4.3986,4.3986,4.3986,4.3986,4.3986,4.3986,4.3986,4.3986,4.3986,4.3986,4.3986,4.3986,4.3986,4.3986,4.3986,4.3986,4.3986,4.3986,4.3986,4.3986,4.3912,4.3763,4.3763,4.3763,4.3763,4.068,3.9082,3.9082,3.9082,3.9082,3.9082,3.9082,3.9082,1.8467,2.0393,2.2551,2.4125,2.6028,2.7963,2.9729,0.0,0.0,0.0,0.0,0.0,0.0,0.0,0.0,0.0,0.0,0.0,0.0,0.0,0.0,0.0,0.0,4.0894,4.0894,4.0894,4.0894,4.0894,4.0894,4.0894,4.0894,4.0894,4.0894,4.0894,4.0894,4.0894,4.0894,4.1333,4.1687,4.1903,4.2226,4.2422,4.258,4.2432,4.2362,4.2382,4.28,4.2686,4.2246,4.2638,4.281,4.281,4.281,4.3051,4.3387,4.3387,4.3569,4.3804,4.3804,4.3804,4.3804,4.3804,4.3884,4.3986,4.3986,4.3986,4.3986,4.3986,4.3986,4.3986,4.3986,4.3986,4.3986,4.3986,4.3986,4.3986,4.3986,4.3986,4.3986,4.3986,4.3986,4.3986,4.3986,4.3986,4.3986,4.3986,4.3986,4.3986,4.3986,4.3986,4.3986,4.3986,4.3986,4.3986,4.3986,4.3986,4.3986,4.3986,4.3986,4.3986,4.3986,4.3986,4.3986,4.3986,4.2835,4.12,3.9082,3.9082,3.9082,3.9082,3.9082,3.9082,1.8416,2.0168,2.2147,0.0,2.4769,2.6442,2.7836,0.0,0.0,0.0,0.0,0.0,0.0,0.0,0.0,0.0,0.0,0.0,0.0,0.0,0.0,0.0,0.0,4.0894,4.0894,4.0894,4.0894,4.0894,4.0894,0.0,4.0894,4.0894,4.0894,4.0894,4.0894,4.0965,4.1094,4.1523,4.192,4.2312,4.2589,4.2819,4.3005,4.2866,4.281,4.2829,4.3221,4.3096,4.2638,4.3042,4.3204,4.3204,4.3204,4.3353,4.3602,4.3602,4.3758,4.3986,4.3986,4.3986,4.3986,4.3986,4.3986,4.3986,4.3986,4.3986,4.3986,4.3986,4.3986,4.3986,4.3986,4.3986,4.3986,4.3986,4.3986,4.3986,4.3986,4.3986,4.3986,4.3986,4.3986,4.3986,4.3986,4.3986,4.3986,4.3986,4.3986,4.3986,4.3986,4.3986,4.3986,4.3986,4.3986,4.3986,4.3986,4.3986,4.3986,4.3986,4.3986,4.3986,4.3986,4.3986,4.3986,4.3986,4.3986,4.2946,4.0754,4.0197,3.987,3.9684,3.9684,3.9758,0.0,0.0,0.0,0.0,0.0,0.0,2.6762,0.0,0.0,0.0,0.0,0.0,0.0,0.0,0.0,0.0,0.0,0.0,0.0,0.0,0.0,0.0,0.0,4.0894,4.0894,4.0894,4.0894,4.0906,4.0906,4.0894,4.0906,4.0906,4.0894,4.0906,4.0906,4.1105,4.1534,4.2008,4.2521,4.3087,4.3187,4.3294,4.3387,4.3014,4.2847,4.2866,4.3248,4.3441,4.3467,4.3852,4.3986,4.3986,4.3986,4.3986,4.3986,4.3986,4.3986,4.3986,4.3986,4.3986,4.3986,4.3986,4.3986,4.3986,4.3986,4.3986,4.3986,4.3986,4.3986,4.3986,4.3986,4.3986,4.3986,4.3986,4.3986,4.3986,4.3986,4.3986,4.3986,4.3986,4.3986,4.3986,4.3986,4.3986,4.3986,4.3986,4.3986,4.3986,4.3986,4.3986,4.3986,4.3986,4.3986,4.3986,4.3986,4.3986,4.3986,4.3986,4.3986,4.3986,4.3986,4.3986,4.3986,4.3986,4.3986,4.3986,4.3986,4.2389,4.1319,4.0731,4.0843,4.117,1.9309,0.0,0.0,0.0,0.0,0.0,0.0,0.0,0.0,0.0,0.0,0.0,0.0,0.0,0.0,0.0,0.0,0.0,0.0,0.0,0.0,0.0,0.0,4.0894,4.0894,4.0894,4.1035,0.0,4.1047,4.1047,4.1311,4.1082,4.1047,4.1311,4.1322,4.1556,4.1983,4.2468,4.2846,4.3087,4.3461,4.3709,4.3844,4.371,4.3669,4.3669,4.3804,4.3844,4.3852,4.3947,4.3986,4.3986,4.3986,4.3986,4.3986,4.3986,4.3986,4.3986,4.3986,4.3986,4.3986,4.3986,4.3986,4.3986,4.3986,4.3986,4.3986,4.3986,4.3986,4.3986,4.3986,4.3986,4.3986,4.3986,4.3986,4.3986,4.3986,4.3986,4.3986,4.3986,4.3986,4.3986,4.3986,4.3986,4.3986,4.3986,4.3986,4.3986,4.3986,4.3986,4.3986,4.3986,4.3986,4.3986,4.3986,4.3986,4.3986,4.3986,4.3986,4.3986,4.3986,4.3986,4.3986,4.3986,4.3986,4.3986,4.3986,4.2389,4.091,3.9647,4.2025,4.3206,0.0,0.0,0.0,0.0,0.0,0.0,0.0,2.518,0.0,0.0,0.0,0.0,0.0,0.0,0.0,0.0,0.0,0.0,0.0,0.0,0.0,0.0,0.0,3.9893,3.9728,4.0028,4.0496,4.1234,4.1064,4.1183,4.176,4.1567,4.1545,4.1771,4.1771,4.204,4.2488,4.2768,4.3078,4.3389,4.3667,4.3857,4.3986,4.3986,4.3986,4.3986,4.3986,4.3986,4.3986,4.3986,4.3986,4.3986,4.3986,4.3986,4.3986,4.3986,4.3986,4.3986,4.3986,4.3986,4.3986,4.3986,4.3986,4.3986,4.3986,4.3986,4.3986,4.3986,4.3986,4.3986,4.3986,4.3986,4.3986,4.3986,4.3986,4.3986,4.3986,4.3986,4.3986,4.3986,4.3986,4.3986,4.3986,4.3986,4.3986,4.3986,4.3986,4.3986,4.3986,4.3986,4.3986,4.3986,4.3986,4.3986,4.3986,4.3986,4.3986,4.3986,4.3986,4.3986,4.3986,4.3986,4.3986,4.3986,4.3986,4.3986,4.3986,4.3058,4.2092,4.12,4.3095,4.3986,2.2724,2.297,0.0,0.0,0.0,0.0,2.4532,2.5064,2.5684,0.0,0.0,0.0,0.0,0.0,0.0,0.0,0.0,0.0,0.0,0.0,0.0,0.0,0.0,3.856,3.8253,3.881,3.9664,4.0774,4.0925,4.1292,4.2037,4.2073,4.2129,4.2262,4.2307,4.2518,4.2985,4.2995,4.3259,4.3812,4.3812,4.3865,4.3986,4.3986,4.3986,4.3986,4.3986,4.3986,4.3986,4.3986,4.3986,4.3986,4.3986,4.3986,4.3986,4.3986,4.3986,4.3986,4.3986,4.3986,4.3986,4.3986,4.3986,4.3986,4.3986,4.3986,4.3986,4.3986,4.3986,4.3986,4.3986,4.3986,4.3986,4.3986,4.3986,4.3986,4.3986,4.3986,4.3986,4.3986,4.3986,4.3986,4.3986,4.3986,4.3986,4.3986,4.3986,4.3986,4.3986,4.3986,4.3986,4.3986,4.3986,4.3986,4.3986,4.3986,4.3986,4.3986,4.3986,4.3986,4.3986,4.3986,4.3986,4.3986,4.3986,4.3986,4.3986,4.3986,4.3986,4.3986,4.3986,4.3986,2.5973,2.6029,2.6005,2.5514,0.0,0.0,2.4062,2.512,2.6477,0.0,0.0,0.0,0.0,0.0,0.0,0.0,0.0,0.0,0.0,0.0,0.0,0.0,0.0,3.9056,3.9,3.9115,3.9417,4.001,4.0325,4.0713,4.1217,4.1232,4.1737,4.281,4.2819,4.3087,4.3609,4.3609,4.3693,4.3865,4.3865,4.3921,4.3986,4.3986,4.3986,4.3986,4.3986,4.3986,4.3986,4.3986,4.3986,4.3986,4.3986,4.3986,4.3986,4.3986,4.3986,4.3986,4.3986,4.3986,4.3986,4.3986,4.3986,4.3986,4.3986,4.3986,4.3986,4.3986,4.3986,4.3986,4.3986,4.3986,4.3986,4.3986,4.3986,4.3986,4.3986,4.3986,4.3986,4.3986,4.3986,4.3986,4.3986,4.3986,4.3986,4.3986,4.3986,4.3986,4.3986,4.3986,4.3986,4.3986,4.3986,4.3986,4.3986,4.3986,4.3986,4.3986,4.3986,4.3986,4.3986,4.3986,4.3986,4.3986,4.3986,4.3986,4.3986,4.3986,4.3986,4.3986,4.3986,4.3986,2.7613,2.7501,2.7613,2.8026,0.0,0.0,0.0,2.5676,2.5685,2.5685,0.0,0.0,0.0,0.0,0.0,0.0,0.0,0.0,0.0,0.0,0.0,0.0,0.0,3.6632,3.6853,3.7566,3.8536,3.9777,4.0405,4.085,4.1062,4.1098,4.1605,4.2662,4.2734,4.3091,4.3796,4.3796,4.3845,4.3897,4.3897,4.3937,4.3986,4.3986,4.3986,4.3986,4.3986,4.3986,4.3986,4.3986,4.3986,4.3986,4.3986,4.3986,4.3986,4.3986,4.3986,4.3986,4.3986,4.3986,4.3986,4.3986,4.3986,4.3986,4.3986,4.3986,4.3986,4.3986,4.3986,4.3986,4.3986,4.3986,4.3986,4.3986,4.3986,4.3986,4.3986,4.3986,4.3986,4.3986,4.3986,4.3986,4.3986,4.3986,4.3986,4.3986,4.3986,4.3986,4.3986,4.3986,4.3986,4.3986,4.3986,4.3986,4.3986,4.3986,4.3986,4.3986,4.3986,4.3986,4.3986,4.3986,4.3986,4.3986,4.3986,4.3986,4.3986,4.3986,4.3986,4.3986,4.3986,4.3986,0.0,0.0,0.0,0.0,0.0,2.7947,0.0,0.0,0.0,2.5424,0.0,0.0,0.0,0.0,0.0,0.0,0.0,0.0,0.0,0.0,0.0,0.0,0.0,3.3928,3.4247,3.5457,3.7051,3.9077,3.9635,4.0149,4.0614,4.0861,4.1441,4.2431,4.2524,4.2971,4.3816,4.3845,4.3886,4.3921,4.3921,4.3953,4.3986,4.3986,4.3986,4.3986,4.3986,4.3986,4.3986,4.3986,4.3986,4.3986,4.3986,4.3986,4.3986,4.3986,4.3986,4.3986,4.3986,4.3986,4.3986,4.3986,4.3986,4.3986,4.3986,4.3986,4.3986,4.3986,4.3986,4.3986,4.3986,4.3986,4.3986,4.3986,4.3986,4.3986,4.3986,4.3986,4.3986,4.3986,4.3986,4.3986,4.3986,4.3986,4.3986,4.3986,4.3986,4.3986,4.3986,4.3986,4.3986,4.3986,4.3986,4.3986,4.3986,4.3986,4.3986,4.3986,4.3986,4.3986,4.3986,4.3986,4.3986,4.3986,4.3986,4.3986,4.3986,4.3986,4.3986,4.3986,4.3986,4.3986,0.0,0.0,0.0,0.0,3.1478,0.0,0.0,0.0,2.7092,2.5057,0.0,0.0,0.0,0.0,0.0,0.0,0.0,0.0,0.0,0.0,0.0,0.0,0.0,3.3437,3.3451,3.3588,3.4549,3.6575,3.6075,3.6692,3.895,3.9723,4.0898,4.2598,4.2688,4.3098,4.3955,4.3992,4.4,4.4008,4.4008,4.3978,4.3986,4.3986,4.3986,4.3986,4.3986,4.3986,4.3986,4.3986,4.3986,4.3986,4.3986,4.3986,4.3986,4.3986,4.3986,4.3986,4.3986,4.3986,4.3986,4.3986,4.3986,4.3986,4.3986,4.3986,4.3986,4.3986,4.3986,4.3986,4.3986,4.3986,4.3986,4.3986,4.3986,4.3986,4.3986,4.3986,4.3986,4.3986,4.3986,4.3986,4.3986,4.3986,4.3986,4.3986,4.3986,4.3986,4.3986,4.3986,4.3986,4.3986,4.3986,4.3986,4.3986,4.3986,4.3986,4.3986,4.3986,4.3986,4.3986,4.3986,4.3986,4.3986,4.3986,4.3986,4.3986,4.3986,4.3986,4.3986,4.3986,4.3986,0.0,0.0,0.0,0.0,0.0,0.0,2.7464,0.0,2.587,0.0,0.0,0.0,0.0,0.0,0.0,0.0,0.0,0.0,0.0,0.0,0.0,0.0,0.0,0.0,3.2188,3.317,3.4046,3.4839,3.4582,3.5264,3.7301,3.8221,3.9697,4.1926,4.2053,4.2685,4.3986,4.3986,4.3986,4.3986,4.3986,4.3986,4.3986,4.3986,4.3986,4.3986,4.3986,4.3986,4.3986,4.3986,4.3986,4.3986,4.3986,4.3986,4.3986,4.3986,4.3986,4.3986,4.3986,4.3986,4.3986,4.3986,4.3986,4.3986,4.3986,4.3986,4.3986,4.3986,4.3986,4.3986,4.3986,4.3986,4.3986,4.3986,4.3986,4.3986,4.3986,4.3986,4.3986,4.3986,4.3986,4.3986,4.3986,4.3986,4.3986,4.3986,4.3986,4.3986,4.3986,4.3986,4.3986,4.3986,4.3986,4.3986,4.3986,4.3986,4.3986,4.3986,4.3986,4.3986,4.3986,4.3986,4.3986,4.3986,4.3986,4.3986,4.3986,4.3986,4.3986,4.3986,4.3986,4.3986,3.6154,0.0,0.0,0.0,0.0,0.0,0.0,0.0,0.0,0.0,0.0,0.0,0.0,0.0,0.0,0.0,0.0,0.0,0.0,0.0,0.0,0.0,0.0,0.0,0.0,3.1444,3.2269,3.2888,3.2722,3.3618,3.6,3.6913,3.8647,4.1445,4.1579,4.2352,4.3986,4.3986,4.3986,4.3986,4.3986,4.3986,4.3986,4.3986,4.3986,4.3986,4.3986,4.3986,4.3986,4.3986,4.3986,4.3986,4.3986,4.3986,4.3986,4.3986,4.3986,4.3986,4.3986,4.3986,4.3986,4.3986,4.3986,4.3986,4.3986,4.3986,4.3986,4.3986,4.3986,4.3986,4.3986,4.3986,4.3986,4.3986,4.3986,4.3986,4.3986,4.3986,4.3986,4.3986,4.3986,4.3986,4.3986,4.3986,4.3986,4.3986,4.3986,4.3986,4.3986,4.3986,4.3986,4.3986,4.3986,4.3986,4.3986,4.3986,4.3986,4.3986,4.3986,4.3986,4.3986,4.3986,4.3986,4.3986,4.3986,4.3986,4.3986,4.3986,4.3986,4.3986,4.3986,4.3986,0.0,0.0,0.0,3.3299,0.0,0.0,0.0,0.0,2.7538,0.0,0.0,0.0,0.0,0.0,0.0,0.0,0.0,0.0,0.0,0.0,0.0,0.0,0.0,0.0,0.0,2.7415,2.7933,0.0,2.9744,3.1069,3.5192,3.6139,3.8097,4.1497,4.1616,4.2352,4.3986,4.3986,4.3986,4.3986,4.3986,4.3986,4.3986,4.3986,4.3986,4.3986,4.3986,4.3986,4.3986,4.3986,4.3986,4.3986,4.3986,4.3986,4.3986,4.3986,4.3986,4.3986,4.3986,4.3986,4.3986,4.3986,4.3986,4.3986,4.3986,4.3986,4.3986,4.3986,4.3986,4.3986,4.3986,4.3986,4.3986,4.3986,4.3986,4.3986,4.3986,4.3986,4.3986,4.3986,4.3986,4.3986,4.3986,4.3986,4.3986,4.3986,4.3986,4.3986,4.3986,4.3986,4.3986,4.3986,4.3986,4.3986,4.3986,4.3986,4.3986,4.3986,4.3986,4.3986,4.3986,4.3986,4.3986,4.3986,4.3986,4.3986,4.3986,4.3986,4.3986,4.3986,4.3986,4.3986,0.0,0.0,4.0873,3.6191,0.0,0.0,0.0,0.0,0.0,0.0,0.0,0.0,0.0,0.0,0.0,0.0,0.0,0.0,0.0,0.0,0.0,0.0,0.0,0.0,0.0,0.0,0.0,0.0,2.8545,0.0,3.3568,3.5031,3.7064,3.9863,4.1021,4.2136,4.3206,4.3726,4.3986,4.3986,4.3986,4.3986,4.3986,4.3986,4.3986,4.3986,4.3986,4.3986,4.3986,4.3986,4.3986,4.3986,4.3986,4.3986,4.3986,4.3986,4.3986,4.3986,4.3986,4.3986,4.3986,4.3986,4.3986,4.3986,4.3986,4.3986,4.3986,4.3986,4.3986,4.3986,4.3986,4.3986,4.3986,4.3986,4.3986,4.3986,4.3986,4.3986,4.3986,4.3986,4.3986,4.3986,4.3986,4.3986,4.3986,4.3986,4.3986,4.3986,4.3986,4.3986,4.3986,4.3986,4.3986,4.3986,4.3986,4.3986,4.3986,4.3986,4.3986,4.3986,4.3986,4.3986,4.3986,4.3986,4.3986,4.3986,4.3986,4.3986,4.3986,4.3986,4.3986,4.3986,4.1207,4.1765,0.0,3.8012,3.6303,0.0,2.9991,0.0,0.0,0.0,0.0,0.0,0.0,0.0,0.0,0.0,0.0,0.0,0.0,2.45,0.0,0.0,0.0,0.0,0.0,0.0,2.6029,2.7109,2.7158,0.0,0.0,3.3914,3.6126,3.8599,4.0576,4.1988,4.2797,4.3615,4.3986,4.3986,4.3986,4.3986,4.3986,4.3986,4.3986,4.3986,4.3986,4.3986,4.3986,4.3986,4.3986,4.3986,4.3986,4.3986,4.3986,4.3986,4.3986,4.3986,4.3986,4.3986,4.3986,4.3986,4.3986,4.3986,4.3986,4.3986,4.3986,4.3986,4.3986,4.3986,4.3986,4.3986,4.3986,4.3986,4.3986,4.3986,4.3986,4.3986,4.3986,4.3986,4.3986,4.3986,4.3986,4.3986,4.3986,4.3986,4.3986,4.3986,4.3986,4.3986,4.3986,4.3986,4.3986,4.3986,4.3986,4.3986,4.3986,4.3986,4.3986,4.3986,4.3986,4.3986,4.3986,4.3986,4.3986,4.3986,4.3986,4.3986,4.3986,4.3986,4.3986,4.3986]}]]